[[{"header":{"parameterUnit":"m.s-1","parameterCategory":1,"la1":30.6,"la2":28.766,"lo1":-90.7593,"lo2":-88.6598,"dy":0.0162,"dx":0.0183,"nx":116,"ny":114,"refTime":"2024-03-20T00:00:00:Z","depth":0,"parameterNumber":2,"parameterNumberName":"U-component_of_WINDS"},"data":[0.0,0.0,0.0,0.0,0.0,0.0,0.0,0.0,0.0,0.0,0.0,0.0,0.0,0.0,0.0,0.0,0.0,0.0,0.0,0.0,0.0,0.0,0.0,0.0,0.0,0.0,0.0,0.0,0.0,0.0,0.0,0.0,0.0,0.0,0.0,0.0,0.0,0.0,0.0,0.0,0.0,0.0,0.0,0.0,0.0,0.0,0.0,0.0,0.0,0.0,0.0,0.0,0.0,0.0,0.0,0.0,0.0,0.0,0.0,0.0,0.0,0.0,0.0,0.0,0.0,0.0,0.0,0.0,0.0,0.0,0.0,0.0,0.0,0.0,0.0,0.0,0.0,0.0,0.0,0.0,0.0,0.0,0.0,0.0,0.0,0.0,0.0,0.0,0.0,0.0,0.0,0.0,0.0,0.0,0.0,0.0,0.0,0.0,0.0,0.0,0.0,0.0,0.0,0.0,0.0,0.0,0.0,0.0,0.0,0.0,0.0,0.0,0.0,0.0,0.0,0.0,0.0,0.0,0.0,0.0,0.0,0.0,0.0,0.0,0.0,0.0,0.0,0.0,0.0,0.0,0.0,0.0,0.0,0.0,0.0,0.0,0.0,0.0,0.0,0.0,0.0,0.0,0.0,0.0,0.0,0.0,0.0,0.0,0.0,0.0,0.0,0.0,0.0,0.0,0.0,0.0,0.0,0.0,0.0,0.0,0.0,0.0,0.0,0.0,0.0,0.0,0.0,0.0,0.0,0.0,0.0,0.0,0.0,0.0,0.0,0.0,0.0,0.0,0.0,0.0,0.0,0.0,0.0,0.0,0.0,0.0,0.0,0.0,0.0,0.0,0.0,0.0,0.0,0.0,0.0,0.0,0.0,0.0,0.0,0.0,0.0,0.0,0.0,0.0,0.0,0.0,0.0,0.0,0.0,0.0,0.0,0.0,0.0,0.0,0.0,0.0,0.0,0.0,0.0,0.0,0.0,0.0,0.0,0.0,0.0,0.0,0.0,0.0,0.0,0.0,0.0,0.0,0.0,0.0,0.0,0.0,0.0,0.0,0.0,0.0,0.0,0.0,0.0,0.0,0.0,0.0,0.0,0.0,0.0,0.0,0.0,0.0,0.0,0.0,0.0,0.0,0.0,0.0,0.0,0.0,0.0,0.0,0.0,0.0,0.0,0.0,0.0,0.0,0.0,0.0,0.0,0.0,0.0,0.0,0.0,0.0,0.0,0.0,0.0,0.0,0.0,0.0,0.0,0.0,0.0,0.0,0.0,0.0,0.0,0.0,0.0,0.0,0.0,0.0,0.0,0.0,0.0,0.0,0.0,0.0,0.0,0.0,0.0,0.0,0.0,0.0,0.0,0.0,0.0,0.0,0.0,0.0,0.0,0.0,0.0,0.0,0.0,0.0,0.0,0.0,0.0,0.0,0.0,0.0,0.0,0.0,0.0,0.0,0.0,0.0,0.0,0.0,0.0,0.0,0.0,0.0,0.0,0.0,0.0,0.0,0.0,0.0,0.0,0.0,0.0,0.0,0.0,0.0,0.0,0.0,0.0,0.0,0.0,0.0,0.0,0.0,0.0,0.0,0.0,0.0,0.0,0.0,0.0,0.0,0.0,0.0,0.0,0.0,0.0,0.0,0.0,0.0,0.0,0.0,0.0,0.0,0.0,0.0,0.0,0.0,0.0,0.0,0.0,0.0,0.0,0.0,0.0,0.0,0.0,0.0,0.0,0.0,0.0,0.0,0.0,0.0,0.0,0.0,0.0,0.0,0.0,0.0,0.0,0.0,0.0,0.0,0.0,0.0,0.0,0.0,0.0,0.0,0.0,0.0,0.0,0.0,0.0,0.0,0.0,0.0,0.0,0.0,0.0,0.0,0.0,0.0,0.0,0.0,0.0,0.0,0.0,0.0,0.0,0.0,0.0,0.0,0.0,0.0,0.0,0.0,0.0,0.0,0.0,0.0,0.0,0.0,0.0,0.0,0.0,0.0,0.0,0.0,0.0,0.0,0.0,0.0,0.0,0.0,0.0,0.0,0.0,0.0,0.0,0.0,0.0,0.0,0.0,0.0,0.0,0.0,0.0,0.0,0.0,0.0,0.0,0.0,0.0,0.0,0.0,0.0,0.0,0.0,0.0,0.0,0.0,0.0,0.0,0.0,0.0,0.0,0.0,0.0,0.0,0.0,0.0,0.0,0.0,0.0,0.0,0.0,0.0,0.0,0.0,0.0,0.0,0.0,0.0,0.0,0.0,0.0,0.0,0.0,0.0,0.0,0.0,0.0,0.0,0.0,0.0,0.0,0.0,0.0,0.0,0.0,0.0,0.0,0.0,0.0,0.0,0.0,0.0,0.0,0.0,0.0,0.0,0.0,0.0,0.0,0.0,0.0,0.0,0.0,0.0,0.0,0.0,0.0,0.0,0.0,0.0,0.0,0.0,0.0,0.0,0.0,0.0,0.0,0.0,0.0,0.0,0.0,0.0,0.0,0.0,0.0,0.0,0.0,0.0,0.0,0.0,0.0,0.0,0.0,0.0,0.0,0.0,0.0,0.0,0.0,0.0,0.0,0.0,0.0,0.0,0.0,0.0,0.0,0.0,0.0,0.0,0.0,0.0,0.0,0.0,0.0,0.0,0.0,0.0,0.0,0.0,0.0,0.0,0.0,0.0,0.0,0.0,0.0,0.0,0.0,0.0,0.0,0.0,0.0,0.0,0.0,0.0,0.0,0.0,0.0,0.0,0.0,0.0,0.0,0.0,0.0,0.0,0.0,0.0,0.0,0.0,0.0,0.0,0.0,0.0,0.0,0.0,0.0,0.0,0.0,0.0,0.0,0.0,0.0,0.0,0.0,0.0,0.0,0.0,0.0,0.0,0.0,0.0,0.0,0.0,0.0,0.0,0.0,0.0,0.0,0.0,0.0,0.0,0.0,0.0,0.0,0.0,0.0,0.0,0.0,0.0,0.0,0.0,0.0,0.0,0.0,0.0,0.0,0.0,0.0,0.0,0.0,0.0,0.0,0.0,0.0,0.0,0.0,0.0,0.0,0.0,0.0,0.0,0.0,0.0,0.0,0.0,0.0,0.0,0.0,0.0,0.0,0.0,0.0,0.0,0.0,0.0,0.0,0.0,0.0,0.0,0.0,0.0,0.0,0.0,0.0,0.0,0.0,0.0,0.0,0.0,0.0,0.0,0.0,0.0,0.0,0.0,0.0,0.0,0.0,0.0,0.0,0.0,0.0,0.0,0.0,0.0,0.0,0.0,0.0,0.0,0.0,0.0,0.0,0.0,0.0,0.0,0.0,0.0,0.0,0.0,0.0,0.0,0.0,0.0,0.0,0.0,0.0,0.0,0.0,0.0,0.0,0.0,0.0,0.0,0.0,0.0,0.0,0.0,0.0,0.0,0.0,0.0,0.0,0.0,0.0,0.0,0.0,0.0,0.0,0.0,0.0,0.0,0.0,0.0,0.0,0.0,0.0,0.0,0.0,0.0,0.0,0.0,0.0,0.0,0.0,0.0,0.0,0.0,0.0,0.0,0.0,0.0,0.0,0.0,0.0,0.0,0.0,0.0,0.0,0.0,0.0,0.0,0.0,0.0,0.0,0.0,0.0,0.0,0.0,0.0,0.0,0.0,0.0,0.0,0.0,0.0,0.0,0.0,0.0,0.0,0.0,0.0,0.0,0.0,0.0,0.0,0.0,0.0,0.0,0.0,0.0,0.0,0.0,0.0,0.0,0.0,0.0,0.0,0.0,0.0,0.0,0.0,0.0,0.0,0.0,0.0,0.0,0.0,0.0,0.0,0.0,0.0,0.0,0.0,0.0,0.0,0.0,0.0,0.0,0.0,0.0,0.0,0.0,0.0,0.0,0.0,0.0,0.0,0.0,0.0,0.0,0.0,0.0,0.0,0.0,0.0,0.0,0.0,0.0,0.0,0.0,0.0,0.0,0.0,0.0,0.0,0.0,0.0,0.0,0.0,0.0,0.0,0.0,0.0,0.0,0.0,0.0,0.0,0.0,0.0,0.0,0.0,0.0,0.0,0.0,0.0,0.0,0.0,0.0,0.0,0.0,0.0,0.0,0.0,0.0,0.0,0.0,0.0,0.0,0.0,0.0,0.0,0.0,0.0,0.0,0.0,0.0,0.0,0.0,0.0,0.0,0.0,0.0,0.0,0.0,0.0,0.0,0.0,0.0,0.0,0.0,0.0,0.0,0.0,0.0,0.0,0.0,0.0,0.0,0.0,0.0,0.0,0.0,0.0,0.0,0.0,0.0,0.0,0.0,0.0,0.0,0.0,0.0,0.0,0.0,0.0,0.0,0.0,0.0,0.0,0.0,0.0,0.0,0.0,0.0,0.0,0.0,0.0,0.0,0.0,0.0,0.0,0.0,0.0,0.0,0.0,0.0,0.0,0.0,0.0,0.0,0.0,0.0,0.0,0.0,0.0,0.0,0.0,0.0,0.0,0.0,0.0,0.0,0.0,0.0,0.0,0.0,0.0,0.0,0.0,0.0,0.0,0.0,0.0,0.0,0.0,0.0,0.0,0.0,0.0,0.0,0.0,0.0,0.0,0.0,0.0,0.0,0.0,0.0,0.0,0.0,0.0,0.0,0.0,0.0,0.0,0.0,0.0,0.0,0.0,0.0,0.0,0.0,0.0,0.0,0.0,0.0,0.0,0.0,0.0,0.0,0.0,0.0,0.0,0.0,0.0,0.0,0.0,0.0,0.0,0.0,0.0,0.0,0.0,0.0,0.0,0.0,0.0,0.0,0.0,0.0,0.0,0.0,0.0,0.0,0.0,0.0,0.0,0.0,0.0,0.0,0.0,0.0,0.0,0.0,0.0,0.0,0.0,0.0,0.0,0.0,0.0,0.0,0.0,0.0,0.0,0.0,0.0,0.0,0.0,0.0,0.0,0.0,0.0,0.0,0.0,0.0,0.0,0.0,0.0,0.0,0.0,0.0,0.0,0.0,0.0,0.0,0.0,0.0,0.0,0.0,0.0,0.0,0.0,0.0,0.0,0.0,0.0,0.0,0.0,0.0,0.0,0.0,0.0,0.0,0.0,0.0,0.0,0.0,0.0,0.0,0.0,0.0,0.0,0.0,0.0,0.0,0.0,0.0,0.0,0.0,0.0,0.0,0.0,0.0,0.0,0.0,0.0,0.0,0.0,0.0,0.0,0.0,0.0,0.0,0.0,0.0,0.0,0.0,0.0,0.0,0.0,0.0,0.0,0.0,0.0,0.0,0.0,0.0,0.0,0.0,0.0,0.0,0.0,0.0,0.0,0.0,0.0,0.0,0.0,0.0,0.0,0.0,0.0,0.0,0.0,0.0,0.0,0.0,0.0,0.0,0.0,0.0,0.0,0.0,0.0,0.0,0.0,0.0,0.0,0.0,0.0,0.0,0.0,0.0,0.0,0.0,0.0,0.0,0.0,0.0,0.0,0.0,0.0,0.0,0.0,0.0,0.0,0.0,0.0,0.0,0.0,0.0,0.0,0.0,0.0,0.0,0.0,0.0,0.0,0.0,0.0,0.0,0.0,0.0,0.0,0.0,0.0,0.0,0.0,0.0,0.0,0.0,0.0,0.0,0.0,0.0,0.0,0.0,0.0,0.0,0.0,0.0,0.0,0.0,0.0,0.0,0.0,0.0,0.0,0.0,0.0,0.0,0.0,0.0,0.0,0.0,0.0,0.0,0.0,0.0,0.0,0.0,0.0,0.0,0.0,0.0,0.0,0.0,0.0,0.0,0.0,0.0,0.0,0.0,0.0,0.0,0.0,0.0,0.0,0.0,0.0,0.0,0.0,0.0,0.0,0.0,0.0,0.0,0.0,0.0,0.0,0.0,0.0,0.0,0.0,0.0,0.0,0.0,0.0,0.0,0.0,0.0,0.0,0.0,0.0,0.0,0.0,0.0,0.0,0.0,0.0,0.0,0.0,0.0,0.0,0.0,0.0,0.0,0.0,0.0,0.0,0.0,0.0,0.0,0.0,0.0,0.0,0.0,0.0,0.0,0.0,0.0,0.0,0.0,0.0,0.0,0.0,0.0,0.0,0.0,0.0,0.0,0.0,0.0,0.0,0.0,0.0,0.0,0.0,0.0,-3.2135,0.0,0.0,0.0,0.0,0.0,0.0,0.0,0.0,0.0,0.0,0.0,0.0,0.0,0.0,0.0,0.0,0.0,0.0,0.0,0.0,0.0,0.0,0.0,0.0,0.0,0.0,0.0,-3.1299,-3.1299,-3.1299,-3.1299,0.0,0.0,0.0,0.0,0.0,0.0,-3.1485,-3.1299,-3.1337,-3.128,-3.1032,-3.0967,-3.0565,-2.9851,0.0,0.0,0.0,0.0,0.0,0.0,0.0,0.0,0.0,0.0,0.0,0.0,0.0,0.0,0.0,0.0,0.0,0.0,0.0,0.0,0.0,0.0,0.0,0.0,0.0,0.0,0.0,0.0,0.0,0.0,0.0,0.0,0.0,0.0,0.0,0.0,0.0,0.0,0.0,0.0,0.0,0.0,0.0,0.0,0.0,0.0,0.0,0.0,0.0,0.0,0.0,0.0,0.0,0.0,0.0,0.0,0.0,0.0,0.0,0.0,0.0,0.0,0.0,0.0,0.0,0.0,0.0,0.0,0.0,0.0,0.0,-3.1209,0.0,0.0,0.0,0.0,0.0,0.0,0.0,0.0,0.0,0.0,0.0,0.0,0.0,0.0,0.0,0.0,0.0,0.0,0.0,0.0,0.0,0.0,0.0,-3.122,-3.1347,-3.1187,-3.1187,-3.1187,-3.1198,-3.1123,-3.1149,-3.1198,-3.131,-3.1421,-3.1458,-3.1596,-3.1649,-3.1681,-3.1935,-3.1993,-3.1873,-3.1873,-3.1229,-3.008,-2.9835,0.0,0.0,0.0,0.0,0.0,0.0,0.0,0.0,0.0,0.0,0.0,0.0,0.0,0.0,0.0,0.0,0.0,0.0,0.0,0.0,0.0,0.0,0.0,0.0,0.0,0.0,0.0,0.0,0.0,0.0,0.0,0.0,0.0,0.0,0.0,0.0,0.0,0.0,0.0,0.0,0.0,0.0,0.0,0.0,0.0,0.0,0.0,0.0,0.0,0.0,0.0,0.0,0.0,0.0,0.0,0.0,0.0,0.0,0.0,0.0,0.0,0.0,0.0,-3.1306,-3.1368,-3.142,-3.142,-3.0933,-3.0077,-3.0896,-3.1463,-3.1785,-3.1475,0.0,0.0,0.0,0.0,0.0,0.0,0.0,0.0,0.0,0.0,0.0,0.0,0.0,0.0,0.0,0.0,0.0,0.0,0.0,0.0,0.0,-3.1386,-3.1817,-3.178,-3.178,-3.1853,-3.2036,-3.1706,-3.1669,-3.2036,-3.189,-3.189,-3.2073,-3.1927,-3.191,-3.2011,-3.1874,-3.1661,-3.1468,-3.1468,-3.1392,-3.1185,-3.1145,-3.0869,-3.0428,0.0,0.0,0.0,0.0,0.0,0.0,0.0,0.0,0.0,0.0,0.0,0.0,0.0,0.0,0.0,0.0,0.0,0.0,0.0,0.0,0.0,0.0,0.0,0.0,0.0,0.0,0.0,0.0,0.0,0.0,0.0,0.0,0.0,0.0,0.0,0.0,0.0,0.0,0.0,0.0,0.0,-3.0594,-3.1284,0.0,0.0,0.0,0.0,0.0,0.0,0.0,0.0,0.0,0.0,0.0,0.0,0.0,-3.083,-3.1001,-3.1309,-3.1723,-3.2284,-3.2466,-3.2764,-3.3156,-3.3156,-3.3096,-3.2886,-3.1892,0.0,-3.0732,-3.2126,0.0,0.0,0.0,0.0,0.0,0.0,0.0,0.0,0.0,0.0,0.0,0.0,0.0,0.0,0.0,0.0,0.0,0.0,0.0,0.0,0.0,-3.1405,-3.1988,-3.2198,-3.2546,-3.2637,-3.2364,-3.2214,-3.2017,-3.188,-3.189,-3.1927,-3.2036,-3.1827,-3.1834,-3.2031,-3.2239,-3.2304,-3.2382,-3.2382,-3.2382,-3.2382,-3.2382,-3.1863,-3.106,-3.106,0.0,0.0,0.0,0.0,0.0,0.0,0.0,0.0,0.0,0.0,0.0,0.0,0.0,0.0,0.0,0.0,0.0,0.0,0.0,0.0,0.0,0.0,0.0,0.0,0.0,0.0,0.0,0.0,0.0,0.0,0.0,0.0,0.0,0.0,0.0,0.0,0.0,0.0,0.0,-3.052,-3.1212,-3.1552,-3.175,-3.1519,0.0,0.0,0.0,0.0,0.0,0.0,0.0,0.0,0.0,-3.0656,-3.1426,-3.208,-3.2617,-3.3385,-3.389,-3.4203,-3.4282,-3.4431,-3.4622,-3.4622,-3.4412,-3.4054,-3.3425,-3.2765,-3.2146,-3.2106,-3.2203,-3.2342,0.0,0.0,0.0,0.0,-3.122,-3.1879,0.0,0.0,0.0,0.0,0.0,0.0,0.0,0.0,0.0,0.0,0.0,0.0,-3.0797,-3.1721,-3.2459,-3.2901,-3.3357,-3.3396,-3.2842,-3.2664,-3.2359,-3.1844,-3.189,-3.1927,-3.1963,-3.1899,-3.2042,-3.2386,-3.2705,-3.2963,-3.3111,-3.3111,-3.3111,-3.3111,-3.3111,-3.2516,-3.1612,-3.1571,-3.1229,-3.0728,0.0,0.0,0.0,0.0,0.0,0.0,0.0,0.0,0.0,0.0,0.0,0.0,0.0,0.0,0.0,0.0,0.0,0.0,0.0,0.0,0.0,0.0,0.0,0.0,0.0,0.0,0.0,0.0,0.0,0.0,0.0,0.0,0.0,0.0,0.0,0.0,0.0,-3.11,-3.1561,-3.1839,-3.1777,-3.1454,0.0,0.0,0.0,0.0,0.0,0.0,-3.11,-3.116,-3.1366,-3.175,-3.2877,-3.3774,-3.4439,-3.5359,-3.5899,-3.5998,-3.5965,-3.5965,-3.5998,-3.5998,-3.5699,-3.522,-3.522,-3.4771,-3.3904,-3.2682,-3.2207,-3.2289,-3.2493,-3.2513,-3.2392,-3.1871,-3.2108,-3.259,0.0,0.0,0.0,0.0,0.0,0.0,0.0,0.0,0.0,0.0,0.0,-3.0581,-3.1213,-3.2473,-3.354,-3.4142,-3.4224,-3.408,-3.3661,-3.3088,-3.2631,-3.2372,-3.2046,-3.2,-3.2182,-3.2431,-3.2828,-3.3427,-3.3208,-3.3086,-3.3111,-3.3111,-3.3111,-3.3111,-3.3111,-3.2742,-3.2123,-3.198,-3.1597,-3.1025,-3.0462,0.0,0.0,0.0,0.0,0.0,0.0,0.0,0.0,0.0,0.0,0.0,0.0,0.0,0.0,0.0,0.0,0.0,0.0,0.0,0.0,0.0,0.0,0.0,0.0,0.0,0.0,0.0,0.0,0.0,0.0,0.0,0.0,0.0,0.0,0.0,0.0,0.0,0.0,-3.2264,-3.3129,0.0,0.0,0.0,0.0,-3.1622,-3.1435,-3.2089,-3.3979,-3.3863,-3.4237,-3.5404,-3.5848,-3.6225,-3.6459,-3.6698,-3.6971,-3.7315,-3.7207,-3.7178,-3.7315,-3.7315,-3.7285,-3.7255,-3.7255,-3.6567,-3.5312,-3.4515,-3.3831,-3.3354,-3.375,-3.3508,-3.2853,-3.1923,-3.2486,-3.3601,0.0,0.0,0.0,0.0,0.0,0.0,0.0,0.0,-3.0018,-2.8893,-2.9471,-3.0275,-3.0952,-3.2398,-3.3669,-3.4413,-3.5107,-3.5272,-3.4896,-3.418,-3.3537,-3.3047,-3.2445,-3.2262,-3.2604,-3.3262,-3.3939,-3.4536,-3.422,-3.4425,-3.5063,-3.4608,-3.4369,-3.4369,-3.4237,-3.3822,-3.3269,-3.2832,-3.2254,-3.1605,-3.1381,-3.0844,0.0,0.0,0.0,0.0,0.0,0.0,0.0,0.0,0.0,0.0,0.0,0.0,0.0,0.0,0.0,0.0,0.0,0.0,0.0,0.0,0.0,0.0,0.0,0.0,0.0,0.0,0.0,0.0,0.0,0.0,0.0,0.0,0.0,0.0,0.0,0.0,0.0,-3.302,-3.3198,0.0,-3.2993,-3.3168,-3.3217,-3.2949,-3.4031,-3.5003,-3.5762,-3.6171,-3.6802,-3.7691,-3.7985,-3.846,-3.9237,-3.9312,-3.9572,-3.9948,-3.9941,-3.9702,-3.932,-3.932,-3.8871,-3.8033,-3.8033,-3.7554,-3.6656,-3.5987,-3.4971,-3.3897,-3.4135,-3.394,-3.3551,-3.3742,-3.3778,-3.3754,0.0,0.0,0.0,0.0,0.0,0.0,0.0,0.0,-3.0106,-2.9263,-2.9712,-3.0581,-3.1813,-3.309,-3.425,-3.5298,-3.6025,-3.6097,-3.537,-3.4737,-3.4046,-3.3184,-3.2855,-3.3018,-3.3723,-3.435,-3.4928,-3.5393,-3.5217,-3.5452,-3.5947,-3.5487,-3.5175,-3.5111,-3.4906,-3.457,-3.4148,-3.3596,-3.2914,-3.2152,-3.1978,-3.1315,-3.0391,0.0,0.0,0.0,0.0,0.0,0.0,0.0,0.0,0.0,0.0,0.0,0.0,0.0,0.0,0.0,0.0,0.0,0.0,0.0,0.0,0.0,0.0,0.0,0.0,0.0,0.0,0.0,0.0,0.0,0.0,0.0,0.0,0.0,0.0,-3.1547,-3.2625,-3.3698,-3.3917,-3.4094,-3.444,-3.471,-3.4945,-3.5135,-3.6372,-3.7244,-3.7471,-3.7986,-3.8425,-3.8814,-3.9236,-3.979,-4.051,-4.0781,-4.1118,-4.1422,-4.1422,-4.1145,-4.0726,-4.0487,-3.9798,-3.8751,-3.8751,-3.8242,-3.7404,-3.7195,-3.6375,-3.5153,-3.4849,-3.4409,-3.4079,-3.48,-3.4702,-3.4261,0.0,0.0,0.0,0.0,0.0,0.0,0.0,-3.0453,-3.0276,-2.9876,-3.0342,-3.155,-3.3748,-3.4566,-3.5469,-3.6866,-3.6978,-3.6396,-3.5041,-3.4742,-3.4039,-3.2786,-3.3375,-3.4288,-3.5515,-3.569,-3.5845,-3.5991,-3.6164,-3.6017,-3.5627,-3.5583,-3.5405,-3.5161,-3.5161,-3.5001,-3.47,-3.4173,-3.3489,-3.2723,-3.2152,-3.1479,-3.0794,0.0,0.0,0.0,0.0,0.0,0.0,0.0,0.0,0.0,0.0,0.0,0.0,0.0,0.0,0.0,0.0,0.0,0.0,0.0,0.0,0.0,0.0,0.0,0.0,0.0,0.0,0.0,0.0,0.0,0.0,0.0,0.0,0.0,-3.0853,-3.2303,-3.3571,-3.4217,-3.5377,-3.6174,-3.6202,-3.6736,-3.7366,-3.8156,-3.8241,-3.8592,-3.9215,-3.9272,-3.9191,-3.8986,-3.9699,-4.0108,-4.0147,-4.0994,-4.1444,-4.1482,-4.1482,-4.1482,-4.1384,-4.0756,-4.0098,-3.9439,-3.9439,-3.8691,-3.7524,-3.8123,-3.8003,-3.7323,-3.5949,-3.497,-3.4414,-3.5052,-3.525,-3.5177,0.0,0.0,0.0,0.0,0.0,0.0,-3.2059,-3.1455,-3.1054,-3.0654,-3.1178,-3.2062,-3.336,-3.4706,-3.5739,-3.6304,-3.6598,-3.6476,-3.5817,-3.518,-3.4381,-3.3458,-3.4011,-3.4972,-3.6348,-3.6709,-3.7455,-3.8713,-3.7741,-3.7626,-3.8229,-3.7332,-3.6902,-3.681,-3.6627,-3.6187,-3.5552,-3.54,-3.4886,-3.404,-3.2916,-3.2134,-3.1596,0.0,0.0,0.0,0.0,0.0,0.0,0.0,0.0,0.0,0.0,0.0,0.0,0.0,0.0,0.0,0.0,0.0,0.0,0.0,0.0,0.0,0.0,0.0,0.0,0.0,0.0,0.0,0.0,0.0,0.0,0.0,-3.1634,-3.2567,-3.2573,-3.3783,-3.5077,-3.6107,-3.6922,-3.7597,-3.8086,-3.8283,-3.8452,-3.8661,-3.9671,-4.0307,-4.0266,-4.0887,-4.1114,-4.0856,-4.0661,-4.0824,-4.1482,-4.1726,-4.2128,-4.2791,-4.2791,-4.2551,-4.2141,-4.1931,-4.1205,-4.0127,-4.0127,-3.9649,-3.8841,-3.8512,-3.8272,-3.8072,-3.7689,-3.6558,-3.5301,-3.6344,-3.6069,-3.5177,0.0,0.0,0.0,0.0,0.0,0.0,-3.2901,-3.2502,-3.2212,-3.208,-3.2444,-3.3142,-3.4292,-3.533,-3.6077,-3.6416,-3.6665,-3.6487,-3.5667,-3.491,-3.452,-3.4576,-3.5262,-3.6091,-3.7186,-3.796,-3.8727,-3.9536,-3.9191,-3.9274,-3.9671,-3.9031,-3.8673,-3.8507,-3.7898,-3.7334,-3.6769,-3.6146,-3.5603,-3.5113,-3.3965,-3.3034,-3.2226,-3.2003,-3.1514,-3.096,-3.096,-3.077,-3.0514,-3.0196,0.0,0.0,0.0,0.0,0.0,0.0,0.0,0.0,0.0,0.0,0.0,0.0,0.0,0.0,0.0,0.0,0.0,0.0,0.0,0.0,0.0,0.0,0.0,0.0,-3.2876,-3.4281,-3.4787,-3.5461,-3.6427,-3.7664,-3.8327,-3.8986,-3.973,-3.9957,-4.0168,-4.0548,-4.1297,-4.1677,-4.1474,-4.1972,-4.2028,-4.1615,-4.1705,-4.1853,-4.2119,-4.2328,-4.266,-4.3183,-4.2887,-4.2683,-4.2525,-4.2257,-4.165,-4.0816,-4.0816,-4.0427,-3.9828,-3.9709,-3.9469,0.0,0.0,0.0,0.0,0.0,-3.6631,-3.5687,0.0,0.0,0.0,0.0,0.0,0.0,-3.3587,-3.3507,-3.3609,-3.3882,-3.3979,-3.4571,-3.6043,-3.6285,-3.6503,-3.7039,-3.7,-3.635,-3.5013,-3.4278,-3.4492,-3.584,-3.6581,-3.7304,-3.8062,-3.9226,-3.9676,-3.9391,-4.0438,-4.0776,-4.045,-4.0489,-4.0378,-4.0087,-3.906,-3.842,-3.8005,-3.6718,-3.6116,-3.5923,-3.5163,-3.4109,-3.2959,-3.2343,-3.1695,-3.1082,-3.1033,-3.0842,-3.0608,-3.0493,0.0,0.0,0.0,0.0,0.0,0.0,0.0,0.0,0.0,0.0,0.0,0.0,0.0,0.0,0.0,0.0,0.0,0.0,0.0,0.0,0.0,0.0,0.0,0.0,-3.4289,-3.5864,-3.7119,-3.7344,-3.7861,-3.8986,-3.962,-4.0323,-4.1199,-4.1549,-4.204,-4.2826,-4.2761,-4.2728,-4.2683,0.0,0.0,0.0,0.0,-4.2908,-4.2409,-4.2724,-4.2992,-4.3076,-4.2337,-4.2252,-4.2688,-4.2019,-4.1636,-4.1398,-4.1398,-4.1077,-4.0546,-4.1145,-4.1025,-4.0307,-3.8302,-3.7524,-3.7494,-3.7413,-3.6995,-3.6505,0.0,0.0,0.0,0.0,0.0,0.0,-3.4925,-3.4515,-3.4513,-3.515,-3.5278,-3.5862,-3.7298,-3.7482,-3.7605,-3.772,-3.6835,-3.5939,-3.5208,-3.4351,-3.4687,-3.6443,-3.6649,-3.7498,-3.9103,-3.9564,-4.0224,-4.1119,-4.1221,-4.1507,-4.1934,-4.1382,-4.1083,-4.1008,-4.0112,-3.9326,-3.862,-3.8118,-3.7411,-3.6506,-3.5902,-3.5113,-3.4259,-3.3709,-3.3277,-3.2909,-3.2315,-3.2081,-3.192,-3.1284,-3.1028,-3.0986,-3.0986,-3.0592,0.0,0.0,0.0,0.0,0.0,0.0,0.0,0.0,0.0,0.0,0.0,0.0,0.0,0.0,0.0,0.0,0.0,0.0,0.0,-3.5152,-3.6117,-3.7271,-3.9002,-3.9676,-4.0069,-4.0322,-4.0884,-4.1502,-4.2237,-4.2362,-4.2474,-4.266,-4.3246,-4.3483,-4.3301,-4.3483,-4.3426,-4.3132,-4.2857,-4.2826,-4.3037,-4.261,-4.278,-4.3466,0.0,0.0,-4.2688,-4.2176,-4.1847,-4.1656,-4.1656,-4.1495,-4.1205,-4.1324,-4.1294,-4.0995,-3.899,-3.8212,-3.8132,-3.7555,-3.7246,-3.7195,0.0,0.0,0.0,0.0,0.0,0.0,-3.5653,-3.548,-3.5512,-3.5982,-3.6108,-3.6539,-3.759,-3.7445,-3.7441,-3.7827,-3.699,-3.6351,-3.6086,-3.5662,-3.5977,-3.7111,-3.7566,-3.8293,-3.9381,-3.9943,-4.0645,-4.1467,-4.1983,-4.2499,-4.2991,-4.2694,-4.2567,-4.2464,-4.1071,-4.0227,-3.9792,-3.8803,-3.8084,-3.7467,-3.6625,-3.6058,-3.5541,-3.4368,-3.372,-3.3424,-3.2791,-3.2376,-3.2133,-3.1753,-3.1525,-3.1482,-3.1569,-3.1269,-3.0826,0.0,0.0,0.0,0.0,0.0,0.0,0.0,0.0,0.0,0.0,0.0,0.0,0.0,0.0,-3.284,-3.3394,0.0,-3.5243,-3.6485,-3.7394,-3.8396,-3.962,-4.0575,-4.1165,-4.1165,-4.1699,-4.239,-4.3144,-4.311,-4.3206,-4.3652,-4.3963,-4.4086,-4.3947,-4.404,-4.3945,-4.3497,-4.3497,-4.342,-4.3336,-4.3024,-4.312,-4.3559,-4.2682,-4.2653,-4.3257,-4.2518,-4.2366,-4.2688,-4.2093,-4.181,-4.1686,-4.1596,-4.1671,-4.1782,-4.0397,-3.9679,-3.9356,-3.8983,-3.8461,-3.7957,0.0,0.0,0.0,0.0,0.0,0.0,0.0,-3.607,-3.6288,-3.6598,-3.6708,-3.7023,-3.7688,-3.7237,-3.7004,-3.7376,-3.7057,-3.6816,-3.6939,-3.7084,-3.7385,-3.7969,-3.8645,-3.9183,-3.9592,-4.0293,-4.0895,-4.1335,-4.2471,-4.3202,-4.3526,-4.3667,-4.367,-4.3565,-4.185,-4.0923,-4.0613,-3.921,-3.848,-3.8152,-3.7241,-3.6752,-3.6358,-3.469,-3.3915,-3.3662,-3.286,-3.2376,-3.2113,-3.2069,-3.1937,-3.1805,-3.1981,-3.1893,-3.1568,-3.0707,-3.0689,0.0,0.0,0.0,0.0,0.0,0.0,0.0,0.0,-3.3507,-3.3356,-3.3141,-3.35,-3.4105,-3.5032,-3.5756,-3.6665,-3.7735,-3.8625,-3.9476,-4.0126,-4.1196,-4.1884,-4.1952,-4.243,-4.3082,-4.3856,-4.3758,-4.3983,-4.4648,-4.4518,-4.4425,-4.4425,-4.4425,-4.42,-4.3694,-4.4144,-4.4172,-4.3666,-4.3554,-4.3543,-4.3607,-4.2924,-4.3016,-4.3748,-4.2782,-4.2811,-4.3558,-4.2594,-4.2121,-4.1988,-4.1928,-4.212,-4.2414,-4.1953,-4.1354,-4.0756,-4.0636,-3.9828,-3.8887,0.0,0.0,0.0,0.0,0.0,0.0,0.0,0.0,-3.641,-3.7053,-3.727,-3.7642,-3.8317,-3.7879,-3.7097,-3.6114,-3.6527,-3.6886,-3.7079,-3.747,-3.8209,-3.9349,-3.9348,-3.9605,-4.0203,-4.0336,-4.0808,-4.1571,-4.2379,-4.2893,-4.3259,-4.3365,-4.3308,-4.3049,-4.2035,-4.1026,-4.0044,-3.9663,-3.873,-3.7609,-3.7485,-3.6847,-3.5897,-3.4987,-3.46,-3.4365,-3.27,-3.2332,-3.2593,-3.2444,-3.2157,-3.1981,-3.2245,-3.2025,-3.1597,-3.0995,-3.0874,-3.0681,-2.9581,-2.9677,-3.0213,-3.093,-3.2729,-3.4195,0.0,-3.4834,-3.5719,-3.4761,-3.5764,-3.6883,-3.7187,-3.8253,-3.931,-4.0024,-4.0212,-4.0643,-4.1596,-4.2317,-4.2879,-4.3262,-4.3357,-4.3638,-4.4303,-4.4312,-4.434,-4.4443,-4.4425,-4.4425,-4.4425,-4.4425,-4.4369,-4.4312,-4.4369,-4.4369,-4.4312,-4.3778,-4.368,-4.4015,-4.3031,-4.2838,-4.3253,-4.2754,-4.2814,-4.3241,-4.2996,-4.2557,-4.2017,-4.2438,-4.264,-4.2691,-4.2991,-4.2701,-4.2111,-4.1542,-4.0816,-4.0187,0.0,0.0,0.0,0.0,0.0,0.0,0.0,0.0,0.0,-3.6561,-3.6687,-3.7026,-3.7829,-3.7665,-3.7195,-3.63,-3.6811,-3.7322,-3.7549,-3.8008,-3.868,-3.9547,-3.9556,-4.0002,-4.0868,-4.141,-4.2163,-4.3099,-4.3397,-4.3566,-4.3634,-4.2892,-4.2359,-4.1953,-4.1101,-4.0382,-3.9717,-3.9277,-3.8673,-3.7945,-3.7134,-3.6422,-3.575,-3.4505,-3.4268,-3.4338,-3.2277,-3.1582,0.0,-3.1563,-3.1477,-3.1438,-3.1972,-3.1719,-3.1342,-3.1759,-3.1546,-3.1158,-3.1297,-3.2136,-3.3061,-3.3444,-3.4849,-3.6023,-3.5665,-3.5985,-3.6475,-3.6749,-3.7241,-3.8083,-3.9409,-3.9646,-4.0026,-4.1031,-4.0834,-4.0881,-4.2024,-4.2722,-4.3304,-4.3868,-4.3789,-4.3719,-4.3863,-4.42,-4.4256,-4.3891,-4.42,-4.4425,-4.4425,-4.4425,-4.4425,-4.4425,-4.4425,-4.4425,-4.4425,-4.4144,-4.4124,-4.428,-4.3842,-4.3867,-4.4293,-4.35,-4.2998,-4.2855,-4.2776,-4.2553,-4.2207,-4.2376,-4.2395,-4.2333,-4.2769,-4.2632,-4.2147,-4.2037,-4.1572,-4.0965,0.0,0.0,0.0,0.0,0.0,0.0,0.0,0.0,0.0,0.0,-3.6223,-3.641,-3.7058,-3.7183,-3.703,-3.6538,-3.7123,-3.7672,-3.8119,-3.8588,-3.9189,-3.9905,-3.9884,-4.0258,-4.1096,-4.1705,-4.2338,-4.3027,-4.3358,-4.3328,-4.3054,-4.2385,-4.178,-4.1391,-4.053,-3.9998,-3.9596,-3.8908,-3.8293,-3.7697,-3.6687,-3.5947,-3.5249,-3.4262,-3.402,-3.3913,-3.2067,-3.1455,-3.1515,-3.1427,-3.1392,-3.1522,-3.2194,-3.1925,-3.1533,-3.2072,-3.1741,-3.1458,-3.2449,-3.3707,-3.4854,-3.5223,-3.6273,-3.713,-3.7175,-3.7044,-3.7158,-3.8111,-3.8409,-3.9021,-4.0602,-4.0602,-4.0637,-4.1558,-4.143,-4.1506,-4.2525,-4.3241,-4.377,-4.4138,-4.406,-4.3738,-4.3246,-4.3786,-4.4059,-4.3778,-4.4144,-4.4425,-4.4425,-4.4425,-4.4425,-4.4425,-4.4425,-4.4425,-4.4425,-4.4425,-4.4425,-4.4425,-4.4425,-4.4583,-4.4879,-4.4086,-4.3413,-4.2823,-4.2823,-4.2665,-4.235,-4.2309,-4.2195,-4.2113,-4.2421,-4.2374,-4.2193,-4.2277,-4.196,-4.1501,0.0,0.0,0.0,0.0,0.0,0.0,0.0,0.0,0.0,0.0,0.0,0.0,0.0,-3.6413,-3.6507,-3.6507,-3.7123,-3.7833,-3.8707,-3.919,-3.9865,-4.0715,-4.0414,-4.0337,-4.0611,-4.058,-4.0432,-4.0126,-4.129,-4.1466,-4.0699,-4.1653,-4.1937,-4.1663,-4.0896,-4.0294,-3.9738,-3.883,-3.7619,-3.6359,-3.6334,-3.5353,-3.4035,-3.4658,-3.4208,-3.3183,-3.2148,-3.2357,-3.3105,-3.2803,-3.2745,-3.2808,-3.3225,-3.3078,-3.2561,-3.1619,-3.1175,-3.1214,-3.2319,-3.3214,-3.4085,-3.4992,-3.5975,-3.6882,-3.7453,-3.7859,-3.8207,-3.8432,-3.9309,-4.012,-4.0355,-4.1117,-4.1645,-4.1673,-4.2402,-4.3081,-4.3488,-4.415,-4.4464,-4.424,-4.4195,-4.371,0.0,-4.3065,-4.375,-4.434,-4.4397,-4.4425,-4.4425,-4.4425,-4.4425,-4.4425,-4.4425,-4.4425,-4.4425,-4.4425,-4.4425,-4.4425,-4.4425,-4.4425,-4.4425,-4.4397,-4.4059,-4.3469,-4.3469,-4.3132,-4.2603,-4.2378,-4.231,-4.2267,-4.2071,-4.2293,-4.2648,-4.2181,-4.1854,-4.1765,0.0,0.0,0.0,0.0,0.0,0.0,0.0,0.0,0.0,0.0,0.0,0.0,0.0,0.0,0.0,0.0,-3.6692,-3.7217,-3.8088,-3.8575,-3.9221,-4.0101,-4.0305,-4.0568,-4.0873,-4.1294,-4.1534,-4.1596,-4.1695,-4.1378,-4.0681,-4.0294,-3.9787,-3.9204,-3.8988,-3.8733,-3.8353,-3.7475,-3.7149,-3.7144,-3.6009,-3.553,-3.5342,-3.4786,-3.4432,-3.4112,0.0,-3.2812,-3.2836,-3.2291,-3.2395,-3.2889,-3.3384,-3.3188,-3.2768,-3.2593,-3.3311,-3.4085,-3.4057,-3.478,-3.5677,-3.6406,-3.7134,-3.7887,-3.866,-3.8774,-3.8867,-3.9629,-3.9621,-3.9722,-4.0326,-4.0445,-4.0579,-4.1052,-4.1476,-4.2225,-4.3647,-4.3647,-4.3994,-4.5178,-4.4438,0.0,0.0,0.0,0.0,-4.3415,-4.404,-4.4425,-4.4425,-4.4425,-4.4472,-4.4658,-4.4658,-4.4723,-4.4862,-4.4862,-4.4862,-4.4862,-4.4862,-4.4769,-4.4658,-4.4658,-4.4452,-4.4116,-4.4116,-4.375,-4.316,-4.3144,-4.2685,-4.2137,-4.2308,-4.2202,-4.1868,-4.2322,-4.2216,-4.196,0.0,0.0,0.0,0.0,0.0,0.0,0.0,0.0,0.0,0.0,0.0,0.0,0.0,0.0,0.0,0.0,0.0,-3.7279,-3.7904,-3.8213,-3.8674,-3.9323,-3.9622,-3.9845,-4.0025,-4.0807,-4.1073,-4.0755,-4.1118,-4.0861,-4.0043,-3.943,-3.9013,-3.8708,-3.8043,-3.7756,-3.7772,-3.6895,-3.6634,-3.6685,-3.5615,-3.5266,-3.5248,-3.4592,-3.4442,0.0,-3.3799,-3.3648,-3.364,-3.2882,-3.3019,-3.3541,-3.3954,-3.355,-3.3064,-3.3724,-3.4497,-3.5216,-3.5593,-3.6248,-3.6968,-3.777,-3.8201,-3.8597,-3.9143,-3.9065,-3.9153,-4.0022,-3.9612,-3.9345,-4.0092,-3.9898,-3.9791,-4.0462,-4.0912,-4.1827,-4.3589,-4.3675,-4.4066,-4.5372,-4.466,-4.4282,0.0,0.0,0.0,-4.3401,-4.3976,-4.4337,-4.4337,-4.4337,-4.4496,-4.4908,-4.4908,-4.4954,-4.511,-4.511,-4.511,-4.511,-4.511,-4.5046,-4.4908,-4.4908,-4.4588,-4.4008,-4.4432,-4.415,-4.3387,-4.3658,-4.3381,-4.2763,-4.2539,-4.2266,-4.1977,-4.2162,-4.224,-4.2281,0.0,0.0,0.0,0.0,0.0,0.0,0.0,0.0,0.0,0.0,0.0,0.0,0.0,0.0,0.0,0.0,0.0,0.0,-3.8182,-3.8183,-3.831,-3.8513,-3.8477,-3.8442,-3.8341,-3.9221,-3.9059,-3.77,-3.9486,-3.9787,-3.8659,-3.888,-3.9247,-3.9741,-3.7862,-3.7392,-3.7862,-3.6877,-3.5981,-3.5157,-3.5103,-3.4607,-3.386,-3.4213,-3.4353,-3.4376,-3.4333,-3.4877,-3.5419,-3.4576,-3.4508,-3.4765,-3.4932,-3.4259,-3.36,-3.4848,-3.482,-3.4764,-3.6712,-3.7404,-3.7851,-3.8972,-3.9122,-3.8999,-3.8999,-3.9027,-3.9168,-3.9633,-3.9268,-3.9015,-3.9549,-3.9319,-3.9272,-3.9924,-4.0756,-4.1823,-4.3344,-4.4108,-4.4629,-4.4879,-4.4879,0.0,0.0,0.0,0.0,-4.424,0.0,-4.4253,-4.4253,-4.4253,-4.451,-4.511,-4.511,-4.511,-4.511,-4.511,-4.511,-4.511,-4.511,-4.511,-4.511,-4.511,-4.4436,-4.338,-4.455,-4.4407,-4.3351,-4.3995,-4.4224,-4.4126,-4.2896,-4.2639,-4.2892,-4.1864,-4.198,-4.2648,0.0,0.0,0.0,0.0,0.0,0.0,0.0,0.0,0.0,0.0,0.0,0.0,0.0,0.0,0.0,0.0,0.0,0.0,-3.7966,-3.8115,-3.8401,-3.8926,-3.8586,-3.8409,-3.8512,-3.833,-3.7605,-3.6374,-3.6842,-3.6615,-3.5694,-3.5549,-3.5741,-3.6172,-3.5328,-3.5235,-3.5625,-3.4175,-3.3909,-3.444,-3.4178,-3.4177,-3.4418,-3.556,-3.5733,-3.5482,-3.6019,-3.603,-3.5651,-3.4622,-3.4879,-3.5623,-3.5782,-3.5869,-3.5805,-3.5408,-3.6389,-3.7455,-3.6957,-3.7872,-3.9196,-3.9914,-4.0073,-4.0114,-4.0412,-4.0867,-4.0756,-3.9162,-3.8752,-3.8331,-3.7225,-3.7088,-3.7459,-3.8564,-3.9567,-4.0843,-4.2653,-4.3227,-4.3791,-4.4763,-4.4879,-4.5024,-4.5372,-4.5502,0.0,0.0,-4.4805,-4.4881,-4.4881,-4.4881,-4.5058,-4.5413,-4.5413,-4.5504,-4.5685,-4.5685,-4.5685,-4.5685,-4.5685,-4.5595,-4.5413,-4.5413,-4.5104,-4.4607,-4.4995,-4.4892,-4.4607,-4.4824,-4.4715,-4.448,-4.4164,-4.3618,-4.2963,-4.2691,-4.2469,-4.2228,0.0,0.0,0.0,0.0,0.0,0.0,0.0,0.0,0.0,0.0,0.0,0.0,0.0,0.0,0.0,0.0,0.0,0.0,0.0,-3.815,-3.8314,-3.8637,-3.8243,-3.806,-3.8246,-3.8118,-3.7473,-3.6417,-3.6153,-3.5672,-3.501,-3.4119,-3.4004,-3.4572,-3.3786,-3.3699,-3.4031,-3.3328,-3.3397,0.0,0.0,-3.4441,-3.5089,-3.5632,-3.6012,-3.6315,-3.6564,-3.6476,-3.6222,-3.5752,-3.5956,-3.6507,-3.6881,-3.6987,-3.6974,-3.7298,-3.796,-3.8514,-3.8477,-3.9161,-4.0053,-4.0529,-4.0417,-4.0174,-4.0256,-4.0147,-3.9646,-3.8339,-3.7682,-3.7054,-3.625,-3.5968,-3.6354,-3.7879,-3.8695,-3.9934,-4.2237,-4.2396,-4.2767,-4.4085,-4.3868,-4.4032,-4.5098,-4.5201,-4.524,0.0,-4.5133,-4.5027,-4.5027,-4.5027,-4.5216,-4.5685,-4.5685,-4.573,-4.5895,-4.5895,-4.5895,-4.5895,-4.5895,-4.585,-4.5685,-4.5685,-4.5306,-4.4653,0.0,-4.5142,-4.4681,-4.5228,-4.5347,-4.5136,-4.4847,-4.4124,-4.3241,-4.2981,-4.2489,-4.1897,0.0,0.0,0.0,0.0,0.0,0.0,0.0,0.0,0.0,0.0,0.0,0.0,0.0,0.0,0.0,0.0,0.0,0.0,0.0,0.0,-3.8173,-3.8173,-3.7825,-3.7677,-3.7879,-3.8076,-3.7748,-3.6868,-3.6217,-3.5651,-3.5156,-3.3581,-3.325,-3.4008,-3.2909,-3.2609,-3.2996,-3.3329,-3.3446,-3.3454,-3.3984,-3.4675,-3.5375,0.0,-3.5787,-3.681,-3.6652,-3.681,-3.7069,-3.7172,-3.7191,-3.7262,-3.7908,-3.7701,-3.7653,-3.9409,-3.9207,-3.8774,-4.0296,-4.067,-4.0694,-4.1028,-4.0547,-3.9911,-3.9739,-3.8742,-3.7768,-3.752,-3.6585,-3.5817,-3.5855,-3.5498,-3.578,-3.7484,-3.8116,-3.9126,-4.1426,-4.149,-4.1714,-4.2793,-4.2351,-4.2567,-4.3975,-4.4135,-4.4599,-4.564,-4.5299,-4.5024,-4.5024,-4.5024,-4.5285,-4.5866,-4.5895,-4.5895,-4.5895,-4.5895,-4.5895,-4.5895,-4.5895,-4.5895,-4.5895,-4.5895,-4.5285,-4.4298,-4.5401,-4.5256,-4.4327,-4.543,-4.5895,-4.5837,-4.5256,-4.4428,-4.356,-4.2998,-4.2336,-4.1619,0.0,0.0,0.0,0.0,0.0,0.0,0.0,0.0,0.0,0.0,-4.1555,-4.1143,0.0,0.0,0.0,0.0,0.0,0.0,0.0,0.0,0.0,-3.8511,-3.794,-3.7793,-3.8193,-3.7391,-3.6569,-3.5676,-3.4803,-3.3989,-3.3171,-3.2323,-3.2392,-3.3184,-3.2439,-3.2317,-3.2754,-3.2432,-3.236,-3.2475,-3.2954,-3.3264,-3.3636,-3.5764,0.0,0.0,-3.7682,-3.8216,-3.8311,-3.7499,-3.7303,-3.7484,-3.7825,-3.8082,-3.8348,-3.8737,-3.9273,-3.9857,-4.0205,-4.1007,-4.1736,-4.1811,-4.1348,-4.0937,-4.1251,-4.0305,-3.8998,-3.7629,-3.6773,-3.592,-3.4727,-3.4871,-3.5639,-3.6922,-3.7951,-3.8564,-3.8644,-4.026,-4.1202,-4.0514,-4.1346,-4.2283,-4.2978,-4.3417,0.0,0.0,-4.5298,-4.5721,-4.5721,-4.5721,-4.5779,-4.5895,-4.5895,-4.5895,-4.5895,-4.5895,-4.5895,-4.5895,-4.5895,-4.5895,-4.5895,-4.5895,-4.5779,-4.5576,-4.5779,0.0,-4.5576,-4.5808,-4.5895,-4.5866,-4.575,-4.4833,-4.3618,-4.3459,-4.2625,-4.1438,0.0,0.0,0.0,0.0,0.0,0.0,0.0,0.0,-4.1808,-4.1126,-4.0319,-3.9837,-3.9902,-3.928,0.0,0.0,0.0,0.0,0.0,0.0,0.0,0.0,-3.8282,-3.8197,-3.8925,-3.7501,-3.6597,-3.6254,0.0,-3.3459,-3.3203,-3.2176,-3.2033,-3.264,-3.2259,-3.213,-3.2195,-3.2256,-3.2266,-3.235,-3.2934,-3.325,-3.3636,0.0,0.0,0.0,-3.8453,-3.8713,-3.8442,-3.815,-3.8033,-3.8018,-3.7936,-3.8165,-3.8567,-3.8789,-3.9627,-4.0471,-4.0461,-4.1368,-4.2205,-4.161,-4.1279,-4.0858,-3.9921,-3.9202,-3.8186,-3.6189,-3.5566,-3.5033,-3.391,-3.4,-3.4702,-3.6286,-3.7423,-3.8467,-3.9369,-4.0209,-4.0685,-4.0695,-4.0526,-4.0683,-4.1484,-4.1773,-4.243,-4.376,-4.3909,-4.4464,-4.5821,-4.5895,-4.5895,-4.5895,-4.5895,-4.5895,-4.5895,-4.5895,-4.5895,-4.5895,-4.5895,-4.5895,-4.5895,-4.5895,-4.5895,-4.5895,-4.5895,-4.5518,-4.4937,-4.5605,-4.5488,-4.4966,-4.5634,-4.4905,-4.3472,-4.3472,-4.2496,-4.1156,0.0,0.0,0.0,0.0,0.0,0.0,0.0,-4.1397,-4.1074,-4.0202,-3.8947,-3.837,-3.9011,-3.8545,-3.8325,0.0,0.0,0.0,0.0,0.0,0.0,0.0,0.0,0.0,-3.9175,0.0,0.0,-3.6903,-3.4701,0.0,0.0,0.0,0.0,0.0,-3.2565,-3.2401,-3.2236,-3.2626,-3.2782,0.0,0.0,-3.3633,0.0,0.0,0.0,0.0,0.0,-3.8907,-3.8501,-3.8723,-3.8686,-3.8501,-3.8165,-3.8277,-3.8679,-3.9194,-3.9928,-4.0527,-4.0674,-4.147,-4.2107,-4.1336,-4.112,-4.0587,-3.9009,-3.82,-3.7275,-3.5398,-3.469,-3.422,-3.36,-3.3487,-3.404,-3.5701,-3.6787,-3.8047,-3.9886,-3.9891,-4.0056,-4.084,-3.9741,0.0,-4.0171,-4.0337,0.0,-4.286,-4.2512,-4.3155,-4.5429,-4.5549,-4.5685,-4.5895,-4.5895,-4.5895,-4.5895,-4.5895,-4.5895,-4.5895,-4.5895,-4.5895,-4.5895,-4.5895,-4.5895,-4.5895,-4.5895,-4.5169,-4.4095,-4.5372,-4.514,-4.4124,-4.5372,-4.4815,-4.3297,-4.3297,-4.2323,-4.0916,0.0,0.0,0.0,0.0,0.0,0.0,0.0,-4.0705,-4.0198,-3.8868,-3.7893,-3.7389,-3.7664,-3.7516,-3.7768,0.0,0.0,0.0,0.0,0.0,0.0,0.0,0.0,0.0,0.0,0.0,0.0,-3.6384,-3.5439,0.0,0.0,0.0,0.0,0.0,0.0,-3.3614,-3.3887,-3.3813,0.0,0.0,0.0,0.0,0.0,0.0,0.0,0.0,0.0,-3.9017,-3.9228,-3.8907,-3.8797,-3.8723,-3.8501,-3.8612,-3.8988,-3.998,-3.992,-3.9718,-4.0557,-4.086,-4.0989,-4.1518,-4.1234,-4.091,-4.1263,-3.9496,-3.7657,-3.7128,-3.5625,-3.4335,-3.4164,-3.4133,-3.4437,-3.5382,-3.6097,-3.6705,-3.7263,-3.8229,-3.8918,-3.911,-3.8991,0.0,-3.9726,-4.0151,-4.069,-4.1337,-4.2226,-4.3218,-4.4406,-4.4452,-4.4897,-4.5895,-4.5895,-4.5895,-4.5895,-4.5895,-4.5895,-4.5895,-4.5895,-4.5895,-4.5895,-4.5895,-4.5895,-4.5895,-4.5895,-4.5169,0.0,-4.5372,-4.514,-4.4124,-4.5372,-4.4815,-4.3297,-4.3297,-4.2193,-4.073,0.0,0.0,0.0,0.0,0.0,0.0,0.0,-4.0609,-4.0103,-3.8681,-3.7831,-3.7231,-3.688,-3.6765,-3.7146,0.0,0.0,0.0,0.0,0.0,0.0,0.0,0.0,0.0,0.0,0.0,-3.6538,-3.6011,-3.508,0.0,0.0,0.0,0.0,0.0,0.0,-3.3675,-3.3813,-3.3848,0.0,0.0,0.0,0.0,0.0,0.0,0.0,0.0,0.0,0.0,-3.8723,-3.9053,-3.898,-3.8782,-3.868,-3.8525,-3.8358,-3.8418,-3.899,-3.9549,-3.94,-4.0531,-4.1692,-4.1573,-4.193,-4.1882,-4.0279,-3.918,-3.8017,-3.6416,-3.501,-3.4014,-3.3959,-3.3769,-3.3884,-3.4602,-3.4954,-3.5735,-3.7487,-3.7746,-3.8241,-3.9642,-3.9398,-3.9167,-3.9195,0.0,-3.9572,-3.9802,-4.0772,-4.1688,-4.2425,-4.3626,-4.4499,-4.4897,-4.5549,-4.5895,-4.5895,-4.5895,-4.5895,-4.5895,-4.5247,-4.4943,-4.4943,-4.4943,-4.4943,-4.4943,-4.4943,-4.4145,0.0,-4.4371,-4.4117,-4.305,-4.5082,-4.4815,-4.3297,-4.3297,-4.2193,-4.0688,0.0,0.0,0.0,0.0,0.0,-4.1367,-4.0704,-4.0609,-4.0166,-3.8965,-3.8177,-3.7547,-3.7072,-3.676,-3.6787,-3.7422,0.0,0.0,0.0,0.0,0.0,0.0,0.0,0.0,0.0,0.0,-3.5983,-3.5674,-3.475,-3.4138,0.0,0.0,-3.3605,-3.3779,0.0,0.0,0.0,0.0,0.0,0.0,0.0,0.0,0.0,0.0,0.0,0.0,0.0,0.0,0.0,0.0,0.0,-3.8934,-3.8772,-3.8342,-3.7858,-3.7283,-3.8177,-3.9294,-3.868,-4.0114,-4.1811,-4.1722,-4.2222,-4.2175,-4.0062,-3.9091,-3.8017,-3.6038,-3.4669,-3.3687,-3.3374,-3.3094,-3.3052,-3.3281,-3.362,-3.4631,-3.6917,-3.6812,-3.7343,-3.9671,-3.9322,-3.8915,-3.912,-3.912,-3.912,-3.912,-3.9776,-4.038,-4.0718,-4.2425,-4.3531,-4.3843,-4.4851,-4.5293,-4.5018,-4.5293,-4.5429,-4.5429,-4.4666,-4.4116,-4.3825,-4.3864,-4.3667,-4.3361,-4.3723,-4.3041,0.0,-4.3607,-4.3285,-4.201,-4.4461,-4.4248,-4.2514,-4.2514,-4.1463,-4.0055,0.0,0.0,0.0,0.0,0.0,0.0,0.0,-4.0609,-4.0324,-3.9598,-3.881,-3.8339,-3.8461,-3.7588,-3.6837,-3.6443,0.0,0.0,0.0,0.0,0.0,0.0,0.0,0.0,0.0,0.0,-3.5397,-3.5399,-3.4664,-3.4295,-3.4279,-3.3618,-3.3396,-3.3605,0.0,0.0,0.0,0.0,0.0,0.0,0.0,0.0,0.0,0.0,0.0,0.0,0.0,0.0,0.0,0.0,0.0,0.0,0.0,-3.825,-3.7605,-3.7233,-3.7883,-3.8712,-3.8802,-3.9594,-4.0726,-4.2081,-4.1901,-4.1384,-4.1354,-3.9572,-3.7611,-3.661,-3.4992,-3.3479,-3.2326,-3.211,-3.1937,-3.1443,-3.2037,-3.3161,-3.4705,-3.499,-3.6009,-3.8614,-3.8237,-3.8241,-3.9572,-3.9697,-3.9697,-3.9697,-3.9672,0.0,-3.9749,-4.0693,-4.1716,-4.2792,-4.3796,-4.3843,-4.284,-4.3843,-4.4312,-4.4312,-4.4312,-4.3758,-4.2721,-4.2771,-4.2188,-4.1194,0.0,-4.2114,0.0,-4.3361,-4.2981,-4.1137,-4.3464,-4.286,-4.0749,-4.0749,-3.9811,-3.8496,0.0,0.0,0.0,0.0,0.0,0.0,0.0,-4.1272,-4.102,-4.0356,-4.004,-3.9503,-3.8587,-3.862,-3.8212,-3.705,0.0,0.0,0.0,0.0,0.0,0.0,0.0,0.0,0.0,0.0,-3.5661,-3.5399,-3.415,-3.3374,-3.2999,-3.2789,-3.2742,-3.2776,-3.3129,-3.3361,0.0,0.0,0.0,0.0,0.0,0.0,0.0,0.0,0.0,0.0,0.0,0.0,0.0,0.0,0.0,0.0,0.0,0.0,0.0,-3.6982,-3.6993,-3.7429,-3.7749,-3.8764,-3.9948,-4.0816,-4.1205,-4.1151,-4.0144,-3.8626,-3.7186,-3.6144,-3.4633,-3.3234,-3.255,-3.2227,-3.2085,-3.2121,-3.1596,-3.2101,-3.4756,-3.486,-3.5563,-3.8091,-3.8792,-3.9244,-3.9647,-3.9346,-3.9295,-3.9672,-3.9346,-3.9295,-3.9672,-4.0642,-4.1369,-4.1716,-4.2744,-4.3129,-4.2792,-4.3129,-4.3273,-4.3273,-4.2523,-4.1614,-4.0609,-4.1382,-4.113,0.0,0.0,-4.1394,-4.097,-4.1796,-4.1705,-4.1017,-4.2246,-4.1895,-4.0649,-4.0218,-3.939,-3.8496,0.0,0.0,0.0,0.0,0.0,0.0,0.0,-4.1588,-4.143,-4.102,-4.0988,-4.0546,-3.9439,-3.9598,-3.9251,-3.7803,0.0,0.0,0.0,0.0,0.0,0.0,0.0,0.0,0.0,-3.5779,-3.5476,-3.5239,-3.4091,-3.3363,-3.3024,-3.2598,-3.2402,-3.243,-3.2557,-3.2764,0.0,0.0,0.0,0.0,0.0,0.0,-3.3079,0.0,0.0,0.0,0.0,0.0,0.0,0.0,0.0,0.0,0.0,0.0,0.0,0.0,-3.6723,-3.673,-3.7259,-3.8392,-3.9493,-3.9735,-4.0293,-4.0469,-3.9186,-3.7759,-3.6533,-3.5869,-3.4589,-3.3302,-3.2173,-3.1981,-3.177,-3.1094,-3.0648,-3.1215,-3.3662,-3.3784,-3.4499,-3.7023,-3.8341,-3.922,-3.9647,-3.9371,-3.932,-3.9672,-3.9371,-3.932,-3.9672,-4.0262,-4.0642,-4.0642,-4.1667,-4.2012,-4.1617,-4.2012,-4.2208,-4.2208,-4.1518,-4.0618,-3.9594,-4.0327,-4.0024,0.0,-4.0153,-4.0556,0.0,-4.0981,-4.0769,-4.0223,-4.1048,-4.0558,-3.9344,-3.8976,-3.8385,-3.7704,0.0,0.0,0.0,0.0,0.0,0.0,0.0,0.0,0.0,-4.1456,-4.1456,-4.1204,-4.0573,-4.0381,-3.9847,0.0,0.0,0.0,0.0,0.0,0.0,0.0,0.0,0.0,0.0,-3.5286,-3.4943,-3.4971,-3.4295,-3.3997,-3.3997,-3.284,-3.233,-3.2359,-3.1796,-3.1893,0.0,0.0,0.0,0.0,-3.281,-3.281,0.0,0.0,0.0,0.0,0.0,0.0,0.0,0.0,0.0,0.0,0.0,0.0,0.0,0.0,0.0,0.0,0.0,-3.8237,-3.9182,-3.8855,-3.9217,-3.9429,-3.8402,-3.6901,0.0,-3.5796,-3.4949,-3.3505,-3.1352,-3.1458,-3.1151,-2.897,-2.9484,-3.0646,-3.1972,-3.2264,-3.3273,-3.573,-3.7266,-3.8492,-3.9471,-3.9647,-3.9697,-3.9697,-3.9697,-3.9697,-3.9697,-3.9697,-3.9697,-3.9697,-4.0592,-4.0642,-3.9697,-4.0642,-4.1043,-4.0965,-4.1043,-4.0494,-3.9394,-3.9575,-3.9069,0.0,-3.9195,-3.9697,-3.9775,-4.0641,-4.0182,-3.8944,-3.9863,-3.8923,-3.7186,-3.7136,-3.6857,-3.6405,0.0,0.0,0.0,0.0,0.0,0.0,0.0,0.0,0.0,0.0,-3.9854,-3.9793,-3.9642,-4.0128,-4.0093,0.0,0.0,0.0,0.0,0.0,0.0,0.0,0.0,0.0,0.0,-3.5765,-3.5453,-3.566,-3.3903,-3.3122,-3.324,-3.2038,-3.1766,-3.2256,-3.2212,-3.2539,-3.3066,0.0,0.0,0.0,-3.2561,-3.2489,0.0,0.0,0.0,0.0,-3.5691,-3.6876,0.0,0.0,0.0,0.0,0.0,0.0,0.0,0.0,-3.7704,-3.7037,-3.6408,0.0,-3.7779,-3.7464,-3.786,-3.8091,0.0,-3.602,-3.521,-3.5882,-3.4861,-3.336,-3.1882,-3.2151,-3.1989,-3.0036,-3.0254,-3.1158,-3.2443,-3.4416,-3.5831,-3.6241,-3.8066,-3.9069,-3.8467,-3.9195,-3.9697,-3.9697,-3.9697,-3.9697,-3.9697,-3.9697,-3.9697,-3.9697,-3.9929,-3.9929,-3.9697,-3.9929,-3.9576,-3.8789,-3.9652,-3.9043,-3.7238,-3.8944,-3.9069,-3.8065,-3.9195,-3.9697,-3.9724,-3.9525,-3.9222,-3.8844,-3.8184,-3.7655,-3.7136,-3.6757,-3.6531,-3.6405,0.0,0.0,0.0,0.0,0.0,0.0,0.0,0.0,0.0,0.0,0.0,0.0,0.0,0.0,0.0,0.0,0.0,0.0,0.0,0.0,0.0,0.0,0.0,0.0,-3.66,-3.6199,-3.589,-3.5701,-3.4602,-3.3963,-3.3746,-3.2522,-3.2201,-3.264,-3.2487,-3.2595,-3.2897,-3.2876,-3.2846,-3.281,-3.2453,0.0,0.0,0.0,0.0,0.0,-3.5215,-3.6368,0.0,-3.7587,-3.7863,-3.8202,0.0,0.0,0.0,0.0,-3.7907,-3.707,-3.6507,-3.6551,-3.6581,-3.6091,-3.6648,-3.7171,-3.657,-3.5654,-3.5131,-3.572,-3.4503,-3.3039,-3.1797,-3.1721,-3.1357,-2.9987,-2.9965,-3.0772,-3.2564,-3.4787,-3.623,-3.6196,-3.7291,-3.8016,-3.8015,-3.9019,-3.9697,-3.9697,-3.9697,-3.9697,-3.9697,-3.9697,-3.9697,-3.9697,-3.9697,-3.9697,-3.9697,-3.9697,-3.912,-3.8015,-3.9145,-3.8793,-3.7186,-3.8919,-3.9346,-3.8793,-3.8868,-3.9069,-3.9245,-3.8442,-3.809,-3.804,-3.7412,-3.7036,-3.6832,-3.6505,-3.6405,-3.6405,0.0,0.0,0.0,0.0,0.0,0.0,0.0,0.0,0.0,0.0,0.0,0.0,0.0,0.0,0.0,0.0,0.0,0.0,0.0,0.0,0.0,0.0,0.0,-3.663,-3.6507,-3.6507,-3.6168,-3.5521,-3.5518,-3.5175,-3.4465,-3.3396,-3.2994,-3.3197,-3.2763,-3.2539,-3.2533,-3.2624,-3.281,-3.2917,-3.2408,0.0,0.0,0.0,0.0,0.0,0.0,0.0,0.0,-3.732,-3.7548,-3.7625,-3.7625,0.0,0.0,0.0,0.0,0.0,-3.6775,-3.6182,-3.5453,-3.4938,-3.5625,-3.6379,-3.6137,-3.5396,-3.4891,-3.552,-3.4161,-3.2576,-3.163,-3.1238,-3.0728,-2.9487,-2.9622,-3.055,-3.2605,-3.4642,-3.5962,-3.6028,-3.6372,-3.6967,-3.789,-3.9019,-3.9697,-3.9697,-3.9697,-3.9697,-3.9697,-3.9697,-3.9697,-3.9697,-3.9697,-3.9697,-3.9697,-3.9697,-3.912,-3.8015,-3.9145,-3.9094,-3.804,-3.917,-3.9697,-3.9647,0.0,0.0,-3.8844,-3.7638,-3.7186,-3.7186,-3.7086,-3.6832,-3.6405,-3.6405,-3.6405,-3.6405,0.0,0.0,0.0,0.0,0.0,0.0,0.0,0.0,0.0,0.0,0.0,0.0,0.0,0.0,0.0,0.0,0.0,0.0,0.0,0.0,0.0,0.0,-3.8401,-3.725,-3.6538,-3.6507,-3.6168,-3.5521,-3.4966,-3.4318,-3.3581,-3.3001,-3.2879,-3.3194,-3.318,-3.315,-3.315,-3.2818,-3.2739,-3.2704,-3.2336,0.0,0.0,0.0,0.0,0.0,0.0,0.0,0.0,-3.6936,-3.7289,-3.7625,-3.7625,0.0,0.0,0.0,0.0,0.0,-3.6029,-3.5059,-3.4215,-3.4682,-3.4939,-3.5267,-3.5939,-3.4251,-3.3281,-3.5818,-3.4166,-3.2187,-3.2055,-3.2818,-3.2554,-2.9766,-3.0979,-3.2528,-3.3336,-3.566,-3.7047,-3.6436,-3.799,-3.8818,-3.809,-3.9019,-3.9697,-3.9697,-3.9697,-3.9697,-3.9697,-3.9697,-3.9697,-3.9697,-3.9697,-3.9697,-3.9697,-3.9697,-3.912,-3.8015,-3.9145,-3.9094,-3.804,-3.917,-3.9697,-3.9647,0.0,-3.8844,-3.8844,-3.7638,-3.7186,-3.7136,-3.6732,-3.648,-3.6405,-3.6405,-3.6405,-3.6405,0.0,0.0,0.0,0.0,0.0,0.0,0.0,0.0,0.0,0.0,0.0,0.0,0.0,0.0,0.0,0.0,0.0,0.0,0.0,0.0,0.0,-3.9137,-3.833,-3.7717,-3.7218,-3.6384,-3.5799,-3.5521,-3.4844,-3.432,-3.3983,-3.3848,-3.3678,-3.3532,-3.3676,-3.3514,-3.3122,-3.2952,-3.2739,-3.2525,0.0,0.0,0.0,0.0,0.0,0.0,0.0,0.0,0.0,0.0,-3.688,-3.725,-3.725,0.0,0.0,0.0,0.0,0.0,-3.6327,-3.5066,-3.4011,-3.4972,-3.4732,-3.4499,-3.5344,-3.3897,-3.2893,-3.4679,-3.2781,-3.0948,-3.141,-3.1496,-3.1332,-3.0901,-3.2686,-3.4379,-3.5071,-3.6503,-3.7345,-3.7094,-3.7967,-3.8442,-3.8065,-3.9019,-3.9697,-3.9697,-3.9697,-3.9697,-3.9697,-3.9697,-3.9697,-3.9697,-3.9697,-3.9697,-3.9697,-3.9697,-3.912,-3.8015,-3.9145,-3.9094,-3.804,-3.917,-3.9697,-3.9622,0.0,-3.8115,-3.8291,-3.6885,-3.6483,-3.6757,-3.6505,-3.6405,-3.6405,-3.6405,-3.6405,-3.6405,0.0,0.0,0.0,0.0,0.0,0.0,0.0,0.0,0.0,0.0,0.0,0.0,0.0,0.0,0.0,0.0,0.0,0.0,0.0,0.0,-3.9048,-3.8402,-3.8153,-3.788,-3.7623,-3.623,-3.5462,-3.5305,-3.4597,-3.4351,-3.4505,-3.4638,-3.4547,-3.424,-3.4104,-3.3728,-3.3171,-3.2952,-3.2668,-3.2417,0.0,0.0,0.0,0.0,0.0,0.0,0.0,0.0,0.0,0.0,0.0,0.0,0.0,0.0,0.0,-3.7471,-3.7016,-3.6532,-3.6278,-3.5017,-3.3954,-3.4526,-3.3993,-3.3619,-3.4832,-3.358,-3.2544,-3.382,-3.2056,-3.0546,-3.1191,-3.0362,-3.0205,-3.2299,-3.4037,-3.5574,-3.6677,-3.7369,-3.7864,-3.8066,-3.8116,-3.8216,-3.8391,-3.9195,-3.9697,-3.9697,-3.9697,-3.9697,-3.9697,-3.9697,-3.9697,-3.9697,-3.9697,-3.9697,-3.9697,-3.9697,-3.9245,-3.8417,-3.927,-3.9245,-3.8442,-3.9295,-3.9622,-3.9421,-3.799,-3.7538,-3.7713,-3.6307,-3.5981,-3.6405,-3.6405,-3.6405,-3.6405,-3.6405,-3.6405,-3.6405,0.0,0.0,0.0,0.0,0.0,0.0,0.0,0.0,0.0,0.0,0.0,0.0,0.0,0.0,0.0,0.0,0.0,0.0,0.0,0.0,-3.926,-3.9206,-3.8418,-3.7703,-3.7063,-3.6101,-3.5337,-3.4771,-3.3915,-3.3829,-3.4505,-3.4638,-3.5023,-3.5527,-3.4341,-3.3796,-3.3693,-3.2818,-3.2417,-3.2381,-3.2264,0.0,0.0,0.0,0.0,0.0,0.0,0.0,0.0,0.0,0.0,0.0,0.0,0.0,-3.7017,-3.7017,-3.6634,-3.5937,-3.5073,-3.4337,-3.3575,-3.2603,-3.2114,-3.2411,-3.4601,-3.2967,-3.1701,-3.4338,-3.3471,-3.2302,-3.2605,-3.1374,-3.1162,-3.3756,-3.4533,-3.5542,-3.7591,-3.8615,-3.9237,-3.952,-3.9572,-3.9572,-3.9572,-3.9647,-3.9697,-3.9697,-3.9697,-3.9697,-3.9697,-3.9697,-3.9697,-3.9697,-3.9697,-3.9697,-3.9697,-3.9697,-3.9647,-3.9572,-3.9647,-3.9647,-3.9572,-3.9647,-3.9421,-3.8944,-3.8241,-3.7688,-3.7186,-3.6606,-3.638,-3.6405,-3.6405,-3.6405,-3.6405,-3.6405,-3.6405,-3.6405,0.0,0.0,0.0,0.0,0.0,0.0,0.0,0.0,0.0,0.0,0.0,0.0,0.0,0.0,0.0,0.0,0.0,0.0,0.0,0.0,-3.7895,-3.793,-3.756,-3.7328,-3.7186,-3.6221,-3.5399,-3.4678,-3.3823,-3.3767,-3.4505,-3.4638,-3.4803,-3.4975,-3.4143,-3.3485,-3.2925,-3.2846,-3.2561,-3.23,-3.2444,-3.2372,0.0,0.0,0.0,0.0,0.0,0.0,0.0,0.0,-3.5835,-3.6511,-3.6866,-3.6978,-3.6978,-3.6978,-3.681,-3.6459,-3.5568,-3.4512,-3.3553,-3.3224,-3.1656,-3.0826,-3.3146,-3.2326,-3.1702,-3.3936,-3.2791,-3.1294,-3.1045,-3.1632,-3.2744,-3.4541,-3.5856,-3.7171,-3.8818,-3.9318,-3.9594,-3.9697,-3.9697,-3.9697,-3.9697,-3.9697,-3.9697,-3.9697,-3.9697,-3.9697,-3.9697,-3.9697,-3.9697,-3.9697,-3.9697,-3.9697,-3.9697,-3.9697,-3.9697,-3.9697,-3.9697,-3.9697,-3.9697,-3.9346,-3.9069,-3.8869,-3.7889,-3.7387,-3.7136,-3.6631,-3.6405,-3.6405,-3.6405,-3.6405,-3.6405,-3.6405,-3.6405,-3.6405,0.0,0.0,0.0,0.0,0.0,0.0,0.0,0.0,0.0,0.0,0.0,0.0,0.0,0.0,0.0,0.0,0.0,0.0,-3.6978,-3.6978,-3.7013,-3.7052,-3.7024,-3.7077,-3.7221,-3.657,-3.587,-3.5151,-3.4271,-3.4091,-3.4485,-3.4689,-3.4604,-3.4288,-3.3887,-3.3233,-3.2498,-3.2656,-3.2552,-3.2218,-3.2444,-3.2408,0.0,0.0,0.0,0.0,0.0,0.0,0.0,0.0,-3.5153,-3.592,-3.6539,-3.6736,-3.6764,-3.6922,-3.6682,-3.6108,-3.5087,-3.3832,-3.2782,-3.2454,-3.0856,-3.0011,-3.2381,-3.2152,-3.1871,-3.3498,-3.297,-3.1981,-3.1306,-3.2476,-3.4004,-3.5372,-3.6693,-3.8066,-3.9521,-3.9697,-3.9697,-3.9697,-3.9697,-3.9697,-3.9697,-3.9697,-3.9697,-3.9697,-3.9697,-3.9697,-3.9697,-3.9697,-3.9697,-3.9697,-3.9697,-3.9697,-3.9697,-3.9697,-3.9697,-3.9697,-3.9521,-3.9421,-3.9421,-3.9095,-3.8668,-3.8291,-3.7513,-3.7086,-3.6933,-3.6556,-3.6405,-3.6405,-3.6405,-3.6405,-3.6405,-3.6405,-3.6405,-3.6405,0.0,0.0,0.0,0.0,0.0,0.0,0.0,0.0,0.0,0.0,0.0,0.0,0.0,0.0,0.0,0.0,0.0,0.0,-3.6978,-3.6978,-3.6978,-3.6978,-3.6978,-3.7015,-3.7105,-3.7076,-3.6787,-3.6101,-3.5237,-3.471,-3.4514,-3.4776,-3.4486,-3.3674,-3.3579,-3.3152,-3.2574,-3.2313,-3.2218,-3.2218,-3.2218,-3.2218,-3.2218,0.0,0.0,0.0,0.0,0.0,0.0,0.0,-3.4472,-3.5302,-3.5892,-3.6089,-3.623,-3.6782,-3.5997,-3.4612,-3.3198,-3.2103,-3.1048,-2.9658,-2.9455,-3.0236,-3.2621,-3.2345,-3.1988,-3.3251,-3.4388,-3.4902,-3.4053,-3.4195,-3.4853,-3.6207,-3.6883,-3.7789,-3.9471,-3.9697,-3.9697,-3.9697,-3.9697,-3.9697,-3.9697,-3.9697,-3.9697,-3.9697,-3.9697,-3.9697,-3.9697,-3.9697,-3.9697,-3.9697,-3.9697,-3.9697,-3.9697,-3.9697,-3.9697,-3.9672,-3.912,-3.8919,-3.8919,-3.8919,-3.8241,-3.7186,-3.7186,-3.6908,-3.6405,-3.6405,-3.6405,-3.6405,-3.6405,-3.6405,-3.6405,-3.6405,-3.6405,-3.6405,0.0,0.0,0.0,0.0,0.0,0.0,0.0,0.0,0.0,0.0,0.0,0.0,0.0,0.0,0.0,0.0,0.0,0.0,-3.6978,-3.6978,-3.6978,-3.6978,-3.6978,-3.7015,-3.7105,-3.7076,-3.6775,-3.6022,-3.5182,-3.4882,-3.5117,-3.4578,-3.4185,-3.3937,-3.28,-3.2312,-3.2313,-3.2326,-3.23,-3.2218,-3.23,-3.23,-3.2218,0.0,0.0,0.0,0.0,0.0,0.0,0.0,0.0,0.0,-3.5236,-3.547,-3.5583,-3.6202,-3.5769,-3.483,-3.3622,-3.2333,-3.1113,-3.0278,-2.9659,-2.9542,-3.0795,-3.1794,-3.2698,-3.3614,-3.4059,-3.4059,-3.3445,-3.5006,-3.6511,-3.6885,-3.8065,-3.912,-3.9622,-3.9697,-3.9697,-3.9697,-3.9697,-3.9697,-3.9697,-3.9697,-3.9697,-3.9697,-3.9697,-3.9697,-3.9697,-3.9697,-3.9697,-3.9697,-3.9697,-3.9697,-3.9697,-3.932,-3.912,-3.912,-3.8542,-3.8467,-3.8894,-3.804,-3.7513,-3.7161,-3.6832,-3.6556,-3.6405,-3.6405,-3.6405,-3.6405,-3.6405,-3.6405,-3.6405,-3.6405,-3.6405,-3.6405,0.0,0.0,0.0,0.0,0.0,0.0,0.0,0.0,0.0,0.0,-3.6978,-3.6978,0.0,0.0,0.0,0.0,0.0,0.0,0.0,0.0,-3.6978,-3.6978,-3.6978,-3.7042,-3.7034,-3.6842,-3.6589,-3.6425,-3.5652,-3.536,-3.5417,-3.4561,-3.3868,-3.3381,-3.2553,-3.2093,-3.208,-3.2227,-3.23,-3.2264,-3.23,-3.2264,-3.2218,0.0,0.0,0.0,0.0,0.0,0.0,0.0,0.0,0.0,-3.4554,-3.4992,-3.5273,-3.5639,-3.503,-3.4034,-3.3106,-3.1746,-3.0609,-3.0449,-2.9968,-2.9806,-3.0792,-3.1805,-3.2839,-3.3746,-3.4248,-3.4449,-3.4123,-3.5956,-3.7588,-3.7814,-3.8894,-3.9697,-3.9697,-3.9697,-3.9697,-3.9697,-3.9697,-3.9697,-3.9697,-3.9697,-3.9697,-3.9697,-3.9697,-3.9697,-3.9697,-3.9697,-3.9697,-3.9697,-3.9471,-3.9371,-3.9371,-3.8818,-3.8517,-3.8517,-3.7939,-3.7864,-3.8165,-3.7487,-3.7061,-3.6835,-3.6556,-3.6405,-3.6405,-3.6405,-3.6405,-3.6405,-3.6405,-3.6405,-3.6405,-3.6405,-3.6405,-3.6405,0.0,0.0,-3.6978,-3.6978,0.0,0.0,0.0,0.0,0.0,0.0,-3.6978,-3.6978,0.0,0.0,0.0,0.0,0.0,0.0,0.0,0.0,-3.6978,-3.6978,-3.6978,-3.6978,-3.6978,-3.6483,-3.6455,-3.6978,-3.6427,-3.5955,-3.5598,-3.4678,-3.3695,-3.2691,-3.2679,-3.2392,-3.1978,-3.2145,-3.2264,-3.2381,-3.2228,-3.2218,-3.2218,-3.2218,0.0,0.0,0.0,0.0,0.0,0.0,0.0,0.0,-3.39,-3.4534,-3.5048,-3.5077,-3.4001,-3.2698,-3.2083,-3.0798,-2.9715,-3.026,-3.0351,-3.0642,-3.1997,-3.224,-3.2541,-3.3671,-3.47,-3.5382,-3.5533,-3.6935,-3.8216,-3.8894,-3.9371,-3.9697,-3.9697,-3.9697,-3.9697,-3.9697,-3.9697,-3.9697,-3.9697,-3.9697,-3.9697,-3.9697,-3.9697,-3.9697,-3.9697,-3.9647,-3.9622,-3.9622,-3.9069,-3.8844,-3.8844,-3.8216,-3.7939,-3.7914,-3.7362,-3.7111,-3.7111,-3.7111,-3.6835,-3.6405,-3.6405,-3.6405,-3.6405,-3.6405,-3.6405,-3.6405,-3.6405,-3.6405,-3.6405,-3.6405,-3.6405,-3.6405,0.0,0.0,-3.6978,-3.6978,0.0,0.0,0.0,0.0,0.0,0.0,0.0,0.0,0.0,0.0,0.0,0.0,0.0,0.0,0.0,0.0,-3.6978,-3.6978,-3.6978,-3.6978,-3.6978,-3.6866,-3.6866,-3.6978,-3.6427,-3.6217,-3.642,-3.5245,-3.4742,-3.4765,-3.3147,-3.2781,-3.3228,-3.25,-3.2264,-3.2381,-3.2228,-3.2218,-3.2218,-3.2218,-3.2218,0.0,0.0,0.0,0.0,0.0,0.0,0.0,-3.336,-3.3607,-3.3803,-3.4281,-3.3698,-3.2852,-3.2788,-3.1176,-2.9631,-3.0189,-3.0443,-3.0929,-3.2541,-3.2541,-3.2541,-3.3671,-3.4098,-3.465,-3.5956,-3.7186,-3.8341,-3.9346,-3.9622,-3.9697,-3.9697,-3.9697,-3.9697,-3.9697,-3.9697,-3.9697,-3.9697,-3.9697,-3.9697,-3.9697,-3.9697,-3.9697,-3.9697,-3.927,-3.9044,-3.9044,-3.8492,-3.8191,-3.8191,-3.7638,-3.7362,-3.7362,-3.6857,-3.6581,-3.6581,-3.6581,-3.6531,-3.6405,-3.6405,-3.6405,-3.6405,-3.6405,-3.6405,-3.6405,-3.6405,-3.6405,-3.6405,-3.6405,-3.6405,-3.6405,0.0,0.0,0.0,0.0,0.0,0.0,0.0,0.0,0.0,0.0,0.0,0.0,0.0,0.0,0.0,0.0,-3.6978,0.0,0.0,0.0,0.0,0.0,-3.6978,-3.6978,-3.6978,0.0,0.0,-3.6978,-3.6708,-3.6581,-3.6693,-3.5823,-3.5467,-3.5421,-3.4168,-3.3688,-3.3761,-3.3056,-3.2718,-3.2525,-3.23,-3.2218,-3.2218,-3.2218,-3.2218,-3.2218,-3.2218,0.0,0.0,0.0,0.0,0.0,0.0,0.0,-3.374,-3.374,-3.3394,-3.2863,-3.2614,-3.1629,-3.0777,-3.112,-3.1505,-3.1938,-3.2541,-3.2641,-3.2792,-3.3395,-3.3721,-3.4399,-3.6103,-3.7036,-3.8065,-3.9471,-3.9697,-3.9697,-3.9697,-3.9697,-3.9697,-3.9697,-3.9697,-3.9697,-3.9697,-3.9446,-3.9295,-3.9295,-3.9044,-3.8894,-3.8894,-3.8617,-3.8467,-3.8467,-3.7914,-3.7613,-3.7613,-3.7061,-3.6832,-3.6784,-3.6556,-3.6405,-3.6405,-3.6405,-3.6405,-3.6405,-3.6405,-3.6405,-3.6405,-3.6405,-3.6405,-3.6405,-3.6405,-3.6405,-3.6405,-3.6405,-3.6405,-3.6405,0.0,0.0,0.0,0.0,0.0,0.0,0.0,0.0,0.0,0.0,0.0,0.0,0.0,0.0,-3.6721,0.0,0.0,0.0,0.0,0.0,0.0,0.0,-3.6978,-3.6978,0.0,0.0,0.0,0.0,-3.6978,-3.6929,-3.6733,-3.6469,-3.6196,-3.5898,-3.5402,-3.4836,-3.425,-3.3652,-3.3193,-3.2806,-3.2391,-3.2218,-3.2218,-3.2255,-3.2218,-3.2218,-3.2255,-3.2218,-3.2218,-3.2345,0.0,0.0,0.0,0.0,-3.39,-3.3431,-3.3046,-3.267,-3.2129,-3.1914,-3.1879,-3.2047,-3.2441,-3.2717,-3.2416,-3.2641,-3.2943,-3.3068,-3.352,-3.4374,-3.5931,-3.6659,-3.7563,-3.9145,-3.9396,-3.9396,-3.9396,-3.9396,-3.9396,-3.9396,-3.9396,-3.9396,-3.9396,-3.8994,-3.8718,-3.8718,-3.8266,-3.8015,-3.8015,-3.7914,-3.7864,-3.7864,-3.7337,-3.7036,-3.7036,-3.6631,-3.6405,-3.6405,-3.6405,-3.6405,-3.6405,-3.6405,-3.6405,-3.6405,-3.6405,-3.6405,-3.6405,-3.6405,-3.6405,-3.6405,-3.6405,-3.6405,-3.6405,-3.6405,-3.6405,-3.6358,0.0,0.0,0.0,0.0,0.0,0.0,0.0,0.0,0.0,0.0,-3.6563,-3.6524,0.0,0.0,-3.6445,-3.6484,-3.6642,0.0,0.0,0.0,0.0,0.0,-3.6978,0.0,0.0,0.0,0.0,-3.6978,-3.6978,-3.6978,-3.6968,-3.7258,-3.7454,-3.7545,-3.6615,-3.6042,-3.5704,-3.4085,-3.3441,-3.3477,-3.2554,-3.2218,-3.2218,-3.2336,-3.23,-3.2218,-3.2309,-3.23,-3.2218,-3.2345,-3.2417,0.0,0.0,0.0,-3.317,-3.3255,-3.2608,-3.1911,-3.1976,-3.1638,-3.1272,-3.1446,-3.1562,-3.1838,-3.2742,-3.2641,-3.2466,-3.2968,-3.352,-3.4248,-3.5382,-3.6107,-3.6908,-3.804,-3.8241,-3.8241,-3.8241,-3.8241,-3.8241,-3.8241,-3.8241,-3.8241,-3.8241,-3.8165,-3.8115,-3.8115,-3.804,-3.8015,-3.8015,-3.7563,-3.7287,-3.7287,-3.6807,-3.6505,-3.6505,-3.6455,-3.6405,-3.6405,-3.6405,-3.6405,-3.6405,-3.6405,-3.6405,-3.6405,-3.6405,-3.6405,-3.6405,-3.6405,-3.6405,-3.6405,-3.6405,-3.6405,-3.6405,-3.6405,-3.6405,-3.6263,0.0,0.0,0.0,0.0,0.0,0.0,0.0,0.0,0.0,0.0,0.0,-3.6325,0.0,0.0,-3.6286,-3.6405,-3.6603,-3.6761,0.0,0.0,0.0,-3.6978,-3.6978,-3.6978,-3.6978,0.0,0.0,-3.6511,-3.6059,-3.6151,-3.6811,-3.6904,-3.6928,-3.6866,-3.6665,-3.593,-3.4827,-3.4657,-3.3945,-3.2973,-3.2901,-3.2627,-3.2218,-3.2264,-3.2228,-3.2218,-3.2345,-3.2336,-3.2218,-3.2345,-3.2417,-3.2417,-3.2596,0.0,0.0,0.0,-3.2897,-3.2607,-3.2638,-3.1678,-3.0941,-3.2072,-3.1637,-3.1336,-3.2742,-3.239,-3.2014,-3.2893,-3.3269,-3.3771,-3.4831,-3.5529,-3.6257,-3.7362,-3.7789,-3.8015,-3.8015,-3.8015,-3.8015,-3.8015,-3.8015,-3.8015,-3.8015,-3.7739,-3.7538,-3.7538,-3.7262,-3.7086,-3.7086,-3.6908,-3.6782,-3.6782,-3.6531,-3.6405,-3.6405,-3.6405,-3.6405,-3.6405,-3.6405,-3.6405,-3.6405,-3.6405,-3.6405,-3.6405,-3.6405,-3.6405,-3.6405,-3.6405,-3.6405,-3.6405,-3.6405,-3.6405,-3.6405,-3.6405,-3.5921,-3.5271,0.0,0.0,0.0,0.0,0.0,0.0,0.0,0.0,0.0,0.0,0.0,0.0,0.0,0.0,0.0,0.0,-3.6524,-3.6733,-3.6978,0.0,0.0,-3.6978,-3.6978,-3.6978,-3.6978,0.0,-3.6117,-3.6117,-3.5311,-3.5366,-3.6248,-3.6191,-3.5992,-3.5731,-3.6359,-3.5836,-3.4585,-3.5007,-3.4413,-3.3129,-3.3256,-3.2954,-3.2436,-3.2309,-3.2255,-3.2218,-3.2345,-3.2336,-3.2218,-3.2336,-3.2381,-3.2417,-3.2453,-3.2739,0.0,0.0,0.0,-3.27,-3.2679,-3.1442,-3.0505,-3.2273,-3.1471,-3.0678,-3.2139,-3.1888,-3.1662,-3.2641,-3.3194,-3.3746,-3.4575,-3.5006,-3.5658,-3.6784,-3.7312,-3.7588,-3.7588,-3.7588,-3.7588,-3.7588,-3.7588,-3.7588,-3.7588,-3.7211,-3.6985,-3.6985,-3.6631,-3.6405,-3.6405,-3.6405,-3.6405,-3.6405,-3.6405,-3.6405,-3.6405,-3.6405,-3.6405,-3.6405,-3.6405,-3.6405,-3.6405,-3.6405,-3.6329,-3.6157,-3.6355,-3.6405,-3.6405,-3.6405,-3.6405,-3.6405,-3.6405,-3.6329,-3.6157,-3.6157,-3.5385,-3.4236,0.0,0.0,0.0,0.0,0.0,0.0,0.0,0.0,0.0,0.0,0.0,0.0,0.0,-3.5898,-3.5858,-3.6086,-3.6286,-3.6575,-3.6978,-3.6978,0.0,-3.6978,-3.6978,0.0,-3.6978,-3.6427,-3.6117,-3.6117,-3.5311,-3.492,-3.5003,-3.537,-3.5228,-3.473,-3.5892,-3.6362,-3.6184,-3.4926,-3.4618,-3.4936,-3.3625,-3.3088,-3.2979,-3.2563,-3.2336,-3.2218,-3.2345,-3.2336,-3.2218,-3.2218,-3.23,-3.2417,-3.2632,-3.298,-3.329,0.0,0.0,0.0,-3.1255,-3.0503,-2.9943,-3.1173,-3.0473,-2.9681,-3.0568,-3.1085,-3.1562,-3.2139,-3.352,-3.4605,-3.468,-3.4705,-3.5127,-3.6279,-3.648,-3.648,-3.648,-3.648,-3.648,-3.648,-3.648,-3.648,-3.648,-3.6455,-3.6455,-3.6455,-3.643,-3.6405,-3.6405,-3.6405,-3.6405,-3.6405,-3.6405,-3.6405,-3.6405,-3.6405,-3.6405,-3.6405,-3.6405,-3.6405,-3.6405,-3.6405,-3.6081,-3.5583,-3.6132,-3.6405,-3.6405,-3.6405,-3.6405,-3.6405,-3.6405,-3.6031,-3.5533,-3.5533,-3.4743,-3.3514,0.0,0.0,0.0,0.0,0.0,0.0,0.0,0.0,0.0,0.0,0.0,0.0,0.0,-3.6178,-3.6178,-3.6286,-3.6484,-3.6693,-3.6978,-3.6978,0.0,-3.6978,-3.6978,-3.681,-3.6455,-3.5836,-3.5255,-3.4687,-3.3862,-3.3633,-3.3872,-3.3906,-3.4011,-3.4192,-3.5617,-3.5519,-3.4475,-3.5139,-3.492,-3.407,-3.435,-3.3984,-3.3246,-3.2954,-3.2799,-3.2735,-3.2482,-3.2627,-3.2864,-3.259,-3.2561,-3.2596,-3.2668,-3.2881,-3.3122,-3.3255,-3.2137,-3.1026,-3.155,-3.0517,-2.9582,-3.09,-2.9874,-2.8912,-3.0292,-3.0482,-3.0432,-3.0608,-3.2265,-3.3671,-3.3671,-3.4525,-3.5332,-3.578,-3.6132,-3.6405,-3.6405,-3.6405,-3.6405,-3.6405,-3.6056,-3.5981,-3.638,-3.6031,-3.5981,-3.638,-3.5705,-3.5629,-3.638,-3.568,-3.5629,-3.638,-3.6405,-3.6405,-3.6405,-3.6405,-3.6405,-3.6405,-3.6006,-3.583,-3.583,-3.5479,-3.5203,-3.4981,-3.5228,-3.5303,-3.5303,-3.5303,-3.5303,-3.5303,-3.5303,-3.5203,-3.4936,-3.4453,-3.3487,-3.2271,0.0,0.0,0.0,0.0,0.0,-3.6715,-3.6633,0.0,0.0,0.0,0.0,0.0,0.0,0.0,-3.6445,-3.6484,-3.6654,-3.685,-3.6978,-3.6978,-3.6978,-3.6978,-3.6978,-3.6736,-3.6117,-3.5302,-3.4545,-3.3879,-3.2957,-3.2696,-3.3019,-3.342,-3.3608,-3.3702,-3.5159,-3.5061,-3.3892,-3.512,-3.5104,-3.423,-3.4936,-3.4651,-3.3847,-3.3581,-3.3353,-3.3061,-3.2954,-3.3046,-3.3219,-3.3138,-3.3064,-3.2971,-3.2971,-3.3048,-3.3157,-3.3361,-3.2245,-3.1112,-3.1695,-3.0484,-2.9342,-3.0403,-2.9449,-2.855,-2.9515,-3.0055,-3.0281,-3.0105,-3.1964,-3.3621,-3.3621,-3.4525,-3.5332,-3.5755,-3.6132,-3.6405,-3.6405,-3.6405,-3.6405,-3.6405,-3.6031,-3.5881,-3.6081,-3.5755,-3.5583,-3.5805,-3.5303,-3.5328,-3.6056,-3.5579,-3.5529,-3.6081,-3.6081,-3.6006,-3.5805,-3.5805,-3.5805,-3.5805,-3.5408,-3.5232,-3.5207,-3.4831,-3.4625,-3.4449,-3.4449,-3.455,-3.468,-3.468,-3.468,-3.468,-3.468,-3.442,-3.402,-3.3497,-3.2359,-3.0996,0.0,-3.8546,-3.8615,-3.8861,-3.8861,-3.8779,-3.8518,-3.8476,0.0,0.0,0.0,0.0,0.0,0.0,0.0,-3.671,-3.6917,-3.7007,-3.6978,-3.6978,-3.6978,-3.6978,0.0,0.0,-3.6117,-3.4871,-3.4116,-3.3879,-3.2674,-3.2221,-3.2444,-3.3863,-3.4036,-3.3115,-3.4503,-3.501,-3.4748,-3.4775,-3.51,-3.5601,-3.535,-3.5038,-3.4733,-3.4432,-3.382,-3.3169,-3.3691,-3.3566,-3.3224,-3.3718,-3.3765,-3.3606,-3.3578,-3.3445,-3.3326,-3.3501,-3.2453,-3.122,0.0,0.0,0.0,-2.9638,-2.9149,-2.8487,-2.8186,-2.9779,-3.1185,-3.0658,-3.2717,-3.4625,-3.4605,-3.4675,-3.5052,-3.6179,-3.6355,-3.6355,-3.6355,-3.6355,-3.6355,-3.6355,-3.6355,-3.6081,-3.5533,-3.5458,-3.5232,-3.4731,-3.5132,-3.5433,-3.5483,-3.6031,-3.6081,-3.5483,-3.5483,-3.5232,-3.4726,-3.468,-3.468,-3.468,-3.4655,-3.47,-3.47,-3.4675,-3.4374,-3.3872,-3.3828,-3.4129,-3.463,-3.463,-3.4675,-3.4675,-3.4675,-3.3876,-3.2755,-3.2755,-3.1518,-2.9806,-3.9508,-3.9299,-3.9075,-3.8712,-3.8463,-3.8367,-3.8297,0.0,0.0,0.0,0.0,0.0,-3.8221,-3.8193,-3.8038,-3.763,-3.7613,-3.7456,-3.7007,-3.6978,-3.6978,-3.6978,-3.6978,-3.6736,-3.6117,-3.533,-3.4601,-3.3879,-3.2985,-3.2467,-3.2417,-3.2727,-3.2736,-3.249,-3.341,-3.3776,-3.3755,-3.45,-3.4512,-3.4121,-3.515,-3.4862,-3.3847,-3.4442,-3.4023,-3.3169,-3.3691,-3.3876,-3.3919,-3.4083,-3.3991,-3.377,-3.3469,-3.3332,-3.322,-3.2838,-3.1992,-3.1029,-3.0251,0.0,0.0,0.0,0.0,0.0,-2.811,-2.8875,-2.9578,-2.9389,-3.0959,-3.2441,-3.2842,-3.3571,-3.4349,-3.5052,-3.5177,-3.5177,-3.5177,-3.5177,-3.5177,-3.5177,-3.4826,-3.4675,-3.4881,-3.46,-3.4449,0.0,-3.4123,-3.4098,-3.4856,-3.5102,-3.5102,-3.4906,-3.4906,-3.4831,-3.468,-3.468,-3.468,-3.4726,-3.4324,-3.4123,-3.4123,-3.3721,-3.3445,-3.3294,-3.2747,-3.2602,-3.2793,-3.3302,-3.352,-3.352,-3.352,-3.2983,-3.2151,-3.1618,-3.0738,-2.9715,-4.0238,-4.0069,-3.9872,-3.9508,-3.9326,-3.9242,-3.9242,0.0,0.0,0.0,0.0,0.0,-3.8889,0.0,-3.8761,-3.8327,-3.8299,-3.8046,-3.74,-3.7372,-3.7259,-3.7007,-3.6978,-3.6736,-3.6117,-3.5386,-3.4771,-3.4334,-3.3218,-3.2734,-3.28,-3.3065,-3.2991,-3.2626,-3.3656,-3.3875,-3.3608,-3.4434,-3.4687,-3.4553,-3.5229,-3.5189,-3.4792,-3.5217,-3.4702,-3.3865,-3.4423,-3.4555,-3.4508,-3.4753,-3.4492,-3.4159,-3.4088,-3.3747,-3.3213,-3.2791,-3.1873,-3.0797,-2.9759,-2.8948,-2.8313,-2.8014,0.0,0.0,-2.7821,-2.8725,-2.954,-2.9327,-3.0783,-3.2039,-3.1888,-3.2416,-3.2968,-3.3269,-3.3319,-3.3671,-3.46,-3.468,-3.468,-3.468,-3.4449,-3.4274,-3.4374,-3.4098,-3.3947,-3.4022,-3.3646,-3.3796,-3.4675,-3.468,-3.4625,-3.4374,-3.4374,-3.4274,-3.4048,-3.4048,-3.4048,-3.4022,-3.3721,-3.3545,-3.3545,-3.3219,-3.2939,-3.2612,-3.222,-3.1845,-3.1581,-3.1977,-3.2176,-3.2176,-3.2176,-3.1713,-3.1024,-3.0576,-2.9988,-2.9279,0.0,-4.0688,-4.0688,-4.0688,-4.0688,-4.0688,0.0,0.0,0.0,0.0,0.0,0.0,0.0,0.0,0.0,0.0,-3.9015,-3.8733,-3.8046,-3.7894,0.0,-3.7119,-3.6889,-3.6609,-3.623,-3.5169,-3.4713,-3.4863,-3.3395,-3.2901,-3.3383,-3.4108,-3.3978,-3.3251,-3.453,-3.4656,-3.3973,-3.4516,-3.5165,-3.5774,-3.5499,-3.5816,-3.6469,-3.6333,-3.568,-3.4992,-3.5642,-3.5466,-3.4927,-3.5466,-3.5108,-3.4534,-3.4948,-3.4273,-3.3211,-3.29,-3.1763,-3.0428,-2.9608,-2.8757,-2.806,-2.8021,-2.8021,0.0,-2.7394,-2.8825,-3.0131,-2.9779,-3.121,-3.2265,-3.1386,-3.121,-3.121,-3.121,-3.121,-3.1938,-3.4048,-3.4449,-3.45,-3.4374,-3.4474,-3.4349,-3.3847,-3.3796,-3.3596,-3.3162,-3.352,-3.4022,-3.4525,-3.455,-3.4299,-3.3822,-3.3796,-3.3571,-3.3093,-3.3111,-3.3111,-3.3111,-3.3111,-3.3068,-3.2982,-3.3068,-3.2655,-3.1889,-3.1889,-3.1448,-3.0756,-3.0711,-3.0756,-3.089,-3.089,-3.0441,-2.9806,-2.9806,-2.9325,-2.8653,-4.0688,-4.0688,-4.0688,-4.0688,-4.0688,-4.0688,0.0,0.0,0.0,0.0,0.0,0.0,-4.035,0.0,0.0,0.0,0.0,-3.9339,0.0,0.0,-3.769,-3.7737,-3.6398,-3.6056,-3.681,-3.4777,-3.4019,-3.4726,-3.3091,-3.2632,-3.3257,-3.3221,-3.3415,-3.3745,-3.4219,-3.4285,-3.4137,-3.4246,-3.4423,-3.466,-3.5846,-3.6157,-3.5981,-3.6891,-3.6497,-3.5683,-3.6754,-3.6392,-3.5372,-3.533,-3.4902,-3.4423,-3.4372,-3.3761,-3.2836,-3.1856,-3.0884,-2.9922,-2.9001,-2.8338,-2.7802,-2.7509,-2.7444,0.0,-2.7293,-2.762,-2.8147,-2.8925,-2.9076,-2.9277,-2.998,-3.0105,-3.0105,-3.0105,-3.0105,-3.0557,-3.1863,-3.2817,-3.3068,-3.2139,-3.2842,-3.3345,-3.3244,-3.3244,-3.3194,-3.3136,-3.3212,-3.3294,-3.3395,-3.3395,-3.3345,-3.3244,-3.3244,-3.3237,-3.3111,-3.3111,-3.3111,-3.3111,-3.3111,-3.281,-3.222,-3.2853,-3.2351,-3.1113,-3.1113,-3.0711,-2.9943,-2.9417,-2.9875,-3.089,-3.089,-3.0441,-2.9806,-2.9806,-2.9095,-2.8139,-4.0688,-4.0688,-4.0688,-4.0688,0.0,0.0,0.0,0.0,0.0,-4.0688,-4.0688,-4.0688,-4.0688,-4.0688,0.0,0.0,0.0,0.0,0.0,0.0,-3.7932,-3.7274,-3.6171,-3.5602,-3.5628,-3.4386,-3.4146,-3.5062,-3.3326,-3.2904,-3.3621,-3.3423,-3.3212,-3.2988,-3.4347,-3.4651,-3.4224,-3.4535,-3.479,-3.51,-3.5435,-3.5402,-3.5231,-3.6085,-3.6016,-3.5568,-3.6217,-3.5957,-3.5358,-3.5057,-3.4895,-3.4714,-3.4359,-3.3664,-3.2701,-3.1303,-3.0305,-2.9416,-2.8521,-2.7964,-2.7607,-2.7553,-2.7351,0.0,0.0,-2.7494,-2.7846,-2.8398,-2.875,-2.895,-2.895,-2.895,-2.895,-2.895,-2.895,-2.9151,-2.9679,-3.1185,-3.224,-3.224,-3.2742,-3.3111,-3.3111,-3.3111,-3.3111,-3.3111,-3.3111,-3.3111,-3.3111,-3.3111,-3.3111,-3.3111,-3.3111,-3.3111,-3.3111,-3.3111,-3.3111,-3.3111,-3.2723,-3.2351,-3.1977,-3.1977,-3.1403,-3.0351,-3.0351,-2.9943,-2.9279,-2.8932,-2.9209,-2.9829,-2.9829,-2.9646,-2.9279,-2.9279,-2.8724,-2.7951,-4.0688,-4.0688,-4.0688,-4.0688,-4.0688,0.0,0.0,0.0,-4.0659,-4.0547,-4.0519,-4.0575,-4.0688,-4.0688,-4.0645,-4.0473,0.0,0.0,0.0,0.0,-3.8242,-3.6824,-3.598,-3.5127,-3.4319,-3.3801,-3.3995,-3.4936,-3.3363,-3.3024,-3.3843,-3.3855,-3.3309,-3.2408,-3.4499,-3.4982,-3.4297,-3.4674,-3.5075,-3.5378,-3.4888,-3.4684,-3.4666,-3.5372,-3.5552,-3.5328,-3.5423,-3.5378,-3.5245,-3.4904,-3.4829,-3.485,-3.4297,-3.3397,-3.2266,-3.0981,-2.9793,-2.8775,-2.8264,-2.7922,-2.7717,-2.7903,-2.758,-2.7229,0.0,0.0,0.0,-2.7821,-2.8524,-2.8875,0.0,0.0,0.0,-2.7645,0.0,0.0,0.0,-2.9578,0.0,-3.2014,-3.2315,-3.2441,-3.2441,-3.2641,-3.2842,-3.3068,-3.3111,-3.3111,-3.3111,-3.3111,-3.3111,-3.3111,-3.3111,-3.3111,-3.3111,-3.2896,-3.281,-3.281,-3.2021,-3.1581,-3.1448,-3.0979,-3.0351,-2.9555,-2.9715,-2.9417,-2.8792,-2.8792,-2.8792,-2.8792,-2.8606,-2.8653,-2.8792,-2.8606,-2.8326,-2.7904,-4.0688,-4.0688,-4.0688,-4.0688,0.0,0.0,0.0,0.0,-4.0491,-3.9957,-3.9873,-4.0097,-4.0631,-4.0688,-4.0386,-3.9618,-3.9878,-3.967,-3.8612,-3.8688,0.0,-3.7434,-3.586,-3.48,-3.4319,-3.2735,-3.237,-3.3292,-3.2321,-3.2166,-3.2857,-3.3623,-3.3824,-3.3537,-3.4096,-3.4383,-3.4444,-3.404,-3.3811,-3.3859,-3.4694,-3.49,-3.4855,-3.6308,-3.6308,-3.5519,-3.578,-3.5597,-3.5144,-3.4776,-3.4357,-3.3918,-3.3586,-3.2286,-3.0823,-3.0586,-2.9273,-2.8019,-2.8533,-2.8484,-2.8259,-2.8449,-2.8213,-2.786,-2.7394,0.0,-2.7278,-2.6776,0.0,-2.6826,-2.67,0.0,0.0,0.0,0.0,0.0,-2.7293,-2.8021,-2.8524,-2.8649,-2.9553,-3.0156,-3.0156,-3.1009,-3.1989,-3.2993,-3.3111,-3.3111,-3.3111,-3.3111,-3.3111,-3.3111,-3.3111,-3.3111,-3.3111,-3.222,-3.1757,-3.1757,-3.0845,-3.0079,-2.9441,-3.0215,-2.9829,-2.8628,-2.9463,-2.9417,-2.8792,-2.8792,-2.8792,-2.8746,-2.8023,-2.8164,-2.8699,-2.7977,-2.7835,-2.7904,-4.0473,-4.0688,-4.0575,-4.0238,0.0,0.0,0.0,0.0,-3.9577,-3.9324,-3.9296,-3.9521,-4.0097,-4.0182,-4.0167,-4.0158,-4.032,-4.0221,-3.9738,-3.8667,0.0,-3.72,-3.4995,-3.3629,-3.3277,-3.2235,-3.2089,-3.2803,-3.2089,-3.2069,-3.2723,-3.3086,-3.2825,-3.2116,-3.3065,-3.3498,-3.3622,-3.3402,-3.3674,-3.41,-3.3881,-3.3643,-3.3558,-3.5192,-3.5466,-3.5048,-3.489,-3.4988,-3.5032,-3.3945,-3.4185,-3.4665,-3.3075,-3.2114,-3.1446,-3.0893,-2.9586,-2.844,-2.8972,-2.9212,-2.9318,-2.9396,-2.8883,-2.835,-2.8261,-2.7745,-2.7153,-2.66,0.0,0.0,0.0,0.0,0.0,0.0,-2.6323,-2.6575,0.0,0.0,-2.7645,-2.8925,0.0,0.0,-2.9754,-2.9603,-2.9804,-3.0608,-3.1286,-3.1512,-3.1185,-3.239,-3.3111,-3.3111,-3.3111,-3.3111,-3.3111,-3.268,-3.2176,-3.1581,-3.0756,-2.9988,-2.9325,-2.9279,-2.9024,-2.8675,-2.9071,-2.9071,-2.8792,-2.8792,-2.8792,-2.8699,-2.793,-2.7835,-2.8023,-2.741,-2.7098,-2.686,-3.9618,-4.0099,-4.0191,-3.9859,-3.9788,-3.9522,-3.8657,-3.8504,-3.8504,-3.8504,-3.8738,-3.9045,-3.9382,-3.9257,-3.924,-3.9492,-3.9666,-3.9704,-3.9704,-3.8246,-3.7289,-3.7059,-3.4615,-3.3058,-3.2753,-3.2078,-3.1937,-3.2419,-3.1937,-3.1981,-3.2438,-3.2655,-3.2198,-3.1182,-3.2223,-3.2659,-3.2649,-3.2852,-3.3445,-3.4198,-3.3657,-3.3399,-3.3428,-3.415,-3.4583,-3.4727,-3.4342,-3.4607,-3.4872,-3.3564,-3.4099,-3.4956,-3.3057,-3.2326,-3.2102,-3.1631,-3.0493,-2.9431,-2.9828,-3.0122,-3.0235,-2.9899,-2.9365,-2.8887,-2.8737,-2.8072,-2.7394,-2.7027,-2.7153,0.0,0.0,0.0,0.0,0.0,0.0,-2.6449,0.0,-2.6399,0.0,0.0,0.0,0.0,0.0,-2.8499,-2.8273,-2.8637,-2.9754,-3.0206,-2.9804,-3.1738,-3.2842,-3.2842,-3.2993,-3.3111,-3.3111,-3.2853,-3.222,-3.1226,-3.0441,-2.9738,-2.8978,-2.8581,-2.8488,-2.8721,-2.8746,-2.8792,-2.8792,-2.8792,-2.8792,-2.8699,-2.7694,-2.7315,-2.7268,-2.6982,-2.6668,-2.6284,-3.7887,-3.863,-3.9328,-3.9746,-3.9788,-3.9313,-3.7781,-3.7573,-3.7573,-3.7573,-3.8339,-3.8769,-3.8476,-3.7927,-3.7287,-3.6582,-3.6953,-3.7207,-3.7207,-3.7134,-3.7109,-3.7086,-3.4997,-3.3672,-3.3282,-3.2247,-3.1717,-3.1761,-3.1717,-3.1717,-3.1761,-3.2587,-3.2519,-3.1689,-3.2035,-3.2024,-3.1785,-3.2316,-3.2871,-3.3427,-3.4342,-3.504,-3.5352,-3.3885,-3.3958,-3.4775,-3.4751,-3.4775,-3.4751,-3.4126,-3.4006,-3.3981,-3.3659,-3.2897,-3.223,-3.2897,-3.2001,-3.0844,-3.1385,-3.1289,-3.081,-2.9677,-2.9599,-2.9478,-2.8373,-2.8097,-2.8072,-2.8047,-2.7645,-2.7268,0.0,0.0,0.0,0.0,0.0,0.0,0.0,0.0,0.0,0.0,0.0,0.0,0.0,-2.7821,-2.8122,0.0,-2.9176,-2.9804,-2.9804,-3.1336,-3.224,-3.224,-3.2792,-3.3111,-3.3111,-3.2133,-3.1181,-3.026,-2.9486,-2.8631,-2.7689,-2.816,-2.8395,-2.8441,-2.8721,-2.8792,-2.8792,-2.8792,-2.8792,-2.8653,-2.7125,-2.6552,-2.6552,-2.6812,-2.6907,-2.686,-3.676,-3.6796,-3.6903,-3.7294,-3.708,-3.6496,-3.552,-3.5398,-3.5489,-3.587,-3.6178,-3.6754,-3.7775,-3.7704,-3.7644,-3.7826,-3.799,-3.7938,-3.7598,-3.6633,-3.6383,-3.7063,-3.5075,-3.39,-3.3789,-3.3092,-3.244,-3.1717,-3.1717,-3.1717,-3.1717,-3.2001,-3.2001,-3.1693,-3.1442,-3.1447,-3.1741,-3.2274,-3.2803,-3.3356,-3.3982,-3.4583,-3.5064,-3.4895,-3.504,-3.5352,-3.5352,-3.5234,-3.4945,-3.4049,-3.4313,-3.4893,-3.4108,-3.3637,-3.3486,-3.4096,-3.3247,-3.2141,-3.2118,-3.2258,-3.2214,-3.1299,-3.0423,-2.9704,-2.9302,-2.8348,-2.7444,-2.7128,-2.7203,-2.7203,0.0,0.0,0.0,0.0,0.0,0.0,0.0,0.0,-2.6499,-2.6499,0.0,0.0,0.0,0.0,0.0,0.0,-2.6389,0.0,-2.6515,-2.9126,-3.0783,-3.1135,-3.2039,-3.2692,-3.3111,-3.2133,-3.1137,-3.017,-2.9257,-2.8398,-2.7594,-2.7783,-2.7972,-2.8139,-2.8441,-2.8535,-2.8535,-2.8699,-2.8792,-2.8699,-2.7647,-2.6935,-2.6408,-2.58,-2.5557,-2.5606,-3.5248,-3.4796,-3.4785,-3.5921,-3.5176,-3.4392,-3.4152,-3.4169,-3.4504,-3.5421,-3.5634,-3.6119,-3.7325,-3.7206,-3.7318,-3.7797,-3.7622,-3.7622,-3.7851,-3.6043,-3.5614,-3.7072,-3.4944,-3.3982,-3.4534,-3.3741,-3.302,-3.2515,-3.1982,-3.1813,-3.1961,-3.1789,-3.1717,-3.1693,-3.1356,-3.1187,-3.1235,-3.2491,-3.3044,-3.3092,-3.3958,-3.4799,-3.5665,-3.5641,-3.5737,-3.5905,-3.5905,-3.5668,-3.526,-3.4557,-3.4822,-3.5354,-3.4644,-3.4563,-3.4752,-3.5147,-3.4541,-3.3707,-3.3548,-3.3576,-3.3376,-3.2297,-3.1313,-3.0557,-3.0181,-2.9252,-2.8423,-2.8284,-2.8385,-2.8222,0.0,0.0,0.0,0.0,0.0,0.0,0.0,-2.6499,-2.6499,-2.6499,-2.6348,0.0,0.0,0.0,0.0,0.0,0.0,0.0,0.0,-2.7795,-2.9754,-3.0306,-3.1562,-3.2491,-3.3111,-3.2438,-3.1492,-3.017,-2.9624,-2.8724,-2.7594,-2.7689,-2.7904,-2.8139,-2.8301,-2.8441,-2.8581,-2.8699,-2.8792,-2.8699,-2.7647,-2.6935,-2.6408,-2.5606,-2.5284,-2.5235,-3.3573,-3.2947,-3.3273,-3.5572,-3.4313,-3.3133,-3.369,-3.3878,-3.45,-3.6013,-3.6555,-3.6913,-3.7063,-3.6618,-3.6356,-3.6413,-3.5978,-3.6314,-3.7805,-3.5545,-3.5015,-3.7108,-3.4823,-3.4174,-3.5593,-3.4198,-3.3645,-3.403,-3.2515,-3.2054,-3.2539,-3.1982,-3.1717,-3.1717,-3.1717,-3.1139,-3.0302,-3.2877,-3.3501,-3.2779,-3.4222,-3.5737,-3.7036,-3.6026,-3.6002,-3.6483,-3.6459,-3.6098,-3.5641,-3.5617,-3.5428,-3.526,-3.5235,-3.5572,-3.6003,-3.6003,-3.5771,-3.5533,-3.5508,-3.5107,-3.4374,-3.2742,-3.2265,-3.1938,-3.0934,-3.0633,-3.0708,-3.121,-3.0909,-3.0256,0.0,0.0,0.0,0.0,0.0,0.0,0.0,0.0,-2.6499,-2.6499,-2.6927,0.0,0.0,0.0,0.0,0.0,0.0,0.0,0.0,-2.7258,-2.9026,-2.9729,-3.1185,-3.2315,-3.3061,-3.2882,-3.1948,-3.0215,-3.0306,-2.9349,-2.7594,-2.7857,-2.8092,-2.8348,-2.8395,-2.8535,-2.8792,-2.8792,-2.8792,-2.8653,-2.7125,-2.6504,-2.6456,-2.6139,-2.5917,-2.5693,-3.4559,-3.3958,-3.3689,-3.3977,-3.3252,-3.2804,-3.3363,-3.4092,-3.4725,-3.5138,-3.6308,-3.7117,-3.7156,-3.7737,-3.7827,-3.7036,-3.6867,-3.6795,-3.6819,-3.617,-3.6218,-3.7156,-3.6916,-3.6411,-3.5641,-3.5617,-3.528,-3.4583,-3.3452,-3.2947,-3.3068,-3.2151,-3.1717,-3.1717,-3.1717,-3.1332,-3.0807,-3.3092,-3.4294,-3.4775,-3.4342,-3.5184,-3.6579,-3.6314,-3.6771,-3.7517,-3.7132,-3.6651,-3.6146,-3.5737,-3.5669,-3.5746,-3.555,-3.5716,-3.6051,-3.6241,-3.621,-3.6056,-3.5608,-3.5382,-3.5082,-3.4299,-3.3144,-3.2139,-3.1863,-3.0859,-3.003,-3.0181,-3.0105,-2.9905,-2.9628,-2.8775,0.0,0.0,0.0,0.0,0.0,0.0,0.0,-2.6499,-2.6248,-2.5862,0.0,0.0,0.0,0.0,0.0,0.0,-2.475,-2.5452,-2.6857,-2.9076,-2.875,-2.9804,-3.2416,-3.0212,-2.9459,-3.017,-2.8817,-2.7857,-2.7404,-2.7452,-2.7594,-2.7831,-2.7998,-2.8233,-2.8535,-2.8721,-2.8792,-2.8699,-2.7694,-2.6839,-2.6139,-2.546,-2.543,-2.5693,-3.4294,-3.3909,-3.3621,-3.3332,-3.3621,-3.3958,-3.427,-3.4799,-3.5521,-3.6459,-3.7132,-3.7709,-3.819,-3.8791,-3.8912,-3.831,-3.7589,-3.7372,-3.7781,-3.6699,-3.6603,-3.7853,-3.7733,-3.7228,-3.6314,-3.6362,-3.6122,-3.5521,-3.403,-3.3404,-3.3597,-3.2274,-3.1717,-3.1717,-3.1717,-3.1404,-3.1067,-3.314,-3.4727,-3.5905,-3.5255,-3.5881,0.0,-3.6579,-3.706,-3.795,-3.7637,-3.7204,-3.6699,-3.6411,-3.6152,-3.5965,-3.5673,-3.5769,-3.6003,-3.6051,-3.6216,-3.6355,-3.5981,-3.5906,-3.578,-3.5182,-3.4329,-3.3552,-3.337,-3.2416,-3.1587,-3.1587,-3.1411,-3.1085,-3.0583,-2.9578,-2.8524,0.0,0.0,0.0,0.0,0.0,0.0,0.0,-2.6424,-2.6138,-2.5636,-2.4908,-2.423,0.0,0.0,0.0,-2.4023,-2.5008,-2.6138,-2.7419,-2.8072,-2.9026,-3.0407,-2.8979,-2.8505,-2.9095,-2.8003,-2.7429,-2.7309,-2.7309,-2.7404,-2.7641,-2.7762,-2.8066,-2.8395,-2.8581,-2.8721,-2.8699,-2.7552,-2.6696,-2.5994,-2.5186,-2.5235,-2.5693,-3.3693,-3.3501,-3.3525,-3.3669,-3.4775,-3.5737,-3.6074,-3.6146,-3.6771,-3.8575,-3.8575,-3.8719,-3.9513,-3.9729,-3.9753,-3.9609,-3.831,-3.8094,-3.9513,-3.7421,-3.6964,-3.8839,-3.807,-3.7517,-3.73,-3.6916,-3.6675,-3.6603,-3.4511,-3.3717,-3.4054,-3.2442,-3.1717,-3.1717,-3.1717,-3.1597,-3.1504,-3.3212,-3.4895,-3.6411,-3.6411,-3.6964,-3.7685,-3.6916,-3.718,-3.7974,-3.7974,-3.7685,-3.7276,-3.7204,-3.6732,-3.6109,-3.5887,-3.5917,-3.6031,-3.5863,-3.61,-3.6405,-3.6405,-3.6405,-3.6279,-3.578,-3.5558,-3.5382,-3.4881,-3.4399,-3.3997,-3.3922,-3.352,-3.2867,-3.1813,-3.0608,-2.9076,0.0,0.0,0.0,0.0,0.0,0.0,0.0,0.0,0.0,-2.5485,-2.4607,-2.3879,-2.3271,-2.3145,-2.317,-2.3321,-2.5059,-2.5971,-2.5711,-2.7996,-2.895,-2.8323,-2.8488,-2.84,-2.8006,-2.7676,-2.7446,-2.7309,-2.7309,-2.7404,-2.7594,-2.7641,-2.7925,-2.8395,-2.8441,-2.8581,-2.8653,-2.722,-2.6456,-2.6139,-2.5362,-2.5333,-2.5693,-3.4775,-3.4559,-3.4847,-3.5713,-3.5713,-3.6362,-3.8575,-3.8912,-3.8888,-3.8815,-3.9874,-4.0355,-3.9681,-4.0379,-4.0547,-3.9681,-3.9345,-3.9296,-3.9585,-3.9176,-3.908,-3.9441,-3.9705,-3.92,-3.7878,-3.8214,-3.8166,-3.7709,-3.5593,-3.4607,-3.4607,-3.2611,-3.1717,-3.1717,-3.1717,-3.2587,-3.4102,-3.3621,-3.4583,-3.6411,-3.6411,-3.6507,-3.6771,-3.7445,-3.7829,-3.7974,-3.7974,-3.7926,-3.7781,-3.7348,-3.7112,-3.6998,-3.6917,-3.6677,-3.6431,-3.6794,-3.6661,-3.6405,-3.6405,-3.6405,-3.638,-3.6279,-3.5881,-3.5483,-3.5382,-3.4931,-3.4449,-3.3997,-3.3822,-3.3545,-3.2893,-3.1135,-2.9202,-2.7454,-2.6364,-2.5578,-2.502,0.0,0.0,0.0,0.0,-2.546,-2.4381,-2.4531,-2.4424,-2.3879,-2.3371,-2.3521,-2.4449,-2.3973,-2.4506,-2.6298,-2.6314,-2.7344,-2.9478,-2.7828,-2.7911,-2.9712,-2.7519,-2.6739,-2.7309,-2.7309,-2.7404,-2.7641,-2.7809,-2.8092,-2.8395,-2.8628,-2.8746,-2.8699,-2.7788,-2.722,-2.6907,-2.6187,-2.582,-2.5693,-3.6146,-3.5833,-3.5809,-3.6314,-3.6892,-3.7709,-3.9008,-3.9898,-4.0331,-4.009,-4.0715,-4.098,-4.0475,-4.0884,-4.098,-4.0475,-3.9922,-3.985,-4.0379,-3.9922,-3.985,-4.0403,-4.0403,-3.9953,-3.9032,-3.887,-3.8605,-3.8262,-3.5932,-3.4775,-3.4727,-3.2659,-3.1717,-3.1741,-3.2295,-3.3068,-3.4078,-3.4655,-3.5497,-3.6459,-3.7012,-3.7228,-3.7276,-3.7781,-3.8104,-3.821,-3.8027,-3.808,-3.8161,-3.7738,-3.7421,-3.7208,-3.72,-3.7016,-3.6776,-3.68,-3.6818,-3.6782,-3.648,-3.6405,-3.6405,-3.6405,-3.6157,-3.5981,-3.5981,-3.5508,-3.5031,-3.4756,-3.4299,-3.3545,-3.2416,-3.1336,-3.0181,-2.88,-2.7322,-2.6127,-2.5502,0.0,-2.5403,0.0,0.0,0.0,0.0,-2.5059,-2.4757,-2.3627,-2.3271,-2.3346,-2.3898,-2.3948,-2.4474,-2.5561,-2.644,-2.7144,-2.7702,-2.7231,-2.7405,-2.8099,-2.6813,-2.6601,-2.7309,-2.7309,-2.7357,-2.7452,-2.7668,-2.7951,-2.8186,-2.8164,-2.793,-2.7552,-2.7173,-2.6887,-2.6572,-2.6235,-2.5917,-2.5693,-3.7348,-3.7036,-3.6819,-3.7036,-3.795,-3.8791,-3.9248,-4.0186,-4.0932,-4.1148,-4.1172,-4.1172,-4.1172,-4.1172,-4.11,-4.086,-4.0282,-4.0114,-4.0475,-4.0162,-4.021,-4.0812,-4.0667,-4.0419,-4.0086,-3.9454,-3.8948,-3.8562,-3.6367,-3.5112,-3.4679,-3.2897,-3.2054,-3.2102,-3.314,-3.3741,-3.4054,-3.5713,-3.6531,-3.6819,-3.7637,-3.7974,-3.7974,-3.7974,-3.8133,-3.8291,-3.8133,-3.8185,-3.8368,-3.8185,-3.7867,-3.7477,-3.7633,-3.7578,-3.7367,-3.7048,-3.7046,-3.7086,-3.6707,-3.6505,-3.6405,-3.6405,-3.6405,-3.6405,-3.6405,-3.6031,-3.5633,-3.5533,-3.4675,-3.3495,-3.2164,-3.1637,-3.1009,-2.9804,-2.8187,-2.6731,-2.58,0.0,-2.4912,0.0,0.0,0.0,-2.531,-2.5134,-2.4481,-2.3045,-2.292,-2.3095,-2.3446,-2.3973,-2.4424,-2.4775,-2.6577,-2.7066,-2.6004,-2.6806,-2.7076,-2.6714,-2.6375,-2.6601,-2.7309,-2.7309,-2.7309,-2.7309,-2.7499,-2.7762,-2.7998,-2.7647,-2.7173,-2.6648,-2.66,-2.638,-2.6091,-2.6139,-2.5965,-2.5693,-3.7902,-3.7878,-3.8142,-3.9128,-3.8623,-3.8719,-4.0667,-4.0282,-4.009,-4.1052,-4.1172,-4.1172,-4.1172,-4.1172,-4.0787,-3.9826,-4.0547,-4.0258,-3.8407,-4.0018,-4.0643,-3.9801,-4.0619,-4.086,-4.0387,-4.0282,-3.9753,-3.8743,-3.7565,-3.6102,-3.4434,-3.3546,-3.314,-3.3188,-3.4222,-3.5208,-3.6122,-3.6314,-3.6964,-3.7829,-3.795,-3.7974,-3.7974,-3.7974,-3.8027,-3.808,-3.8315,-3.8368,-3.8421,-3.8631,-3.8554,-3.84,-3.8923,-3.8734,-3.8339,-3.8567,-3.799,-3.7186,-3.7111,-3.6782,-3.6405,-3.6405,-3.6405,-3.6405,-3.6405,-3.638,-3.6132,-3.5608,-3.4675,-3.3847,-3.3696,-3.2416,-3.0859,-2.9239,-2.801,-2.6496,-2.425,0.0,-2.5319,-2.473,0.0,0.0,-2.4205,-2.3647,-2.307,-2.2418,-2.2368,-2.302,-2.455,-2.3296,-2.3221,-2.475,-2.5453,-2.6081,-2.659,-2.6634,-2.7253,-2.846,-2.6907,-2.6576,-2.7309,-2.7309,-2.7309,-2.7309,-2.7499,-2.7762,-2.7951,-2.7458,-2.7194,-2.7146,-2.6955,-2.6572,-2.6139,-2.6352,-2.6159,-2.5693,-3.9441,-3.9176,-3.9104,-3.9537,-3.9513,-3.9729,-4.0571,-4.0619,-4.0691,-4.1124,-4.1172,-4.1172,-4.1172,-4.1172,-4.1004,-4.0595,-4.0932,-4.0812,-3.997,-4.0715,-4.1004,-4.0571,-4.0956,-4.1191,-4.1144,-4.066,-4.0298,-4.0006,-3.7449,-3.5859,-3.5114,-3.386,-3.3621,-3.427,-3.5304,-3.6002,-3.6435,-3.7084,-3.7589,-3.7974,-3.7974,-3.7974,-3.7974,-3.7974,-3.808,-3.8238,-3.8368,-3.8307,-3.8243,-3.8899,-3.8893,-3.8684,-3.8945,-3.8953,-3.8912,-3.869,-3.8442,-3.804,-3.7362,-3.701,-3.6832,-3.648,-3.6405,-3.6405,-3.6405,-3.6405,-3.6355,-3.6081,-3.5429,-3.4675,-3.4022,-3.3345,-3.234,-3.0683,-2.9677,-2.845,-2.6472,0.0,0.0,-2.6582,0.0,-2.5586,-2.6389,-2.4757,-2.3672,-2.3772,-2.317,-2.307,-2.3747,-2.343,-2.4023,-2.5762,-2.5923,-2.6585,-2.7766,-2.7454,-2.7436,-2.7857,-2.717,-2.7004,-2.7309,-2.7309,-2.7214,-2.7051,-2.7431,-2.7336,-2.686,-2.662,-2.6284,-2.5849,-2.5926,-2.5703,-2.546,-2.6042,-2.6014,-2.5693,-4.0619,-4.0331,-4.0066,-4.0066,-4.0379,-4.0523,-4.021,-4.0739,-4.1076,-4.0763,-4.098,-4.1172,-4.1172,-4.1172,-4.1052,-4.0739,-4.1004,-4.0908,-4.0282,-4.0836,-4.1052,-4.0739,-4.1028,-4.1287,-4.1492,-4.0925,-4.066,-4.0692,-3.8224,-3.6627,-3.5883,-3.4655,-3.4487,-3.5352,-3.6386,-3.6867,-3.6916,-3.7661,-3.7974,-3.7974,-3.7974,-3.8027,-3.8133,-3.8133,-3.8315,-3.8526,-3.8631,-3.8445,-3.8232,-3.8937,-3.891,-3.863,-3.8951,-3.9206,-3.9339,-3.894,-3.8817,-3.8743,-3.7889,-3.7437,-3.7086,-3.6757,-3.6531,-3.6405,-3.6405,-3.6405,-3.6405,-3.6405,-3.5931,-3.5257,-3.4525,-3.4123,-3.3395,-3.1888,-3.1079,-3.0074,0.0,-2.7839,0.0,-2.795,-2.6546,-2.6138,-2.7494,-2.5561,-2.433,-2.4525,-2.3948,-2.3535,-2.3356,-2.322,-2.3961,-2.5719,-2.5373,-2.5885,-2.7522,-2.7125,-2.7076,-2.7309,-2.7309,-2.7309,-2.7309,-2.7309,-2.7119,-2.6812,-2.7119,-2.6764,-2.5945,-2.58,-2.5411,-2.4922,-2.502,-2.502,-2.499,-2.5606,-2.5771,-2.5693,-4.1172,-4.1172,-4.1172,-4.1172,-4.1172,-4.0812,-3.9777,-4.0499,-4.0812,-3.9753,-4.0547,-4.1172,-4.1172,-4.1172,-4.0763,-3.9705,-4.0595,-4.0282,-3.8166,-3.9994,-4.0715,-3.9681,-4.0619,-4.1172,-4.1172,-4.1172,-4.0908,-4.0403,-4.0355,-3.9093,-3.6664,-3.6107,-3.6032,-3.6435,-3.7493,-3.7974,-3.7974,-3.7974,-3.7974,-3.7974,-3.7974,-3.8133,-3.8421,-3.8421,-3.8579,-3.8841,-3.9154,-3.8885,-3.8464,-3.8818,-3.8492,-3.8216,-3.9346,-3.9697,-3.9697,-3.9697,-3.9295,-3.8919,-3.8894,-3.804,-3.7186,-3.7186,-3.6807,-3.6405,-3.6405,-3.6405,-3.6405,-3.6405,-3.5931,-3.5508,-3.5483,-3.4625,-3.352,-3.239,-3.1738,-3.0809,0.0,-2.8863,0.0,-2.8172,-2.6615,-2.5837,-2.6449,-2.546,-2.455,-2.4054,-2.4506,-2.4556,-2.4018,-2.2493,-2.2366,-2.4001,-2.2937,-2.3265,-2.5201,-2.5144,-2.586,-2.7309,-2.7309,-2.7309,-2.7309,-2.7309,-2.7023,-2.6496,-2.6496,-2.6207,-2.5635,-2.5118,-2.4922,-2.4873,-2.4627,-2.4677,-2.4941,-2.5235,-2.5479,-2.5693,-4.0186,-4.0691,-4.1076,-4.0715,-4.0956,-4.1076,-4.0739,-4.098,-4.1076,-4.0739,-4.098,-4.1172,-4.1172,-4.1172,-4.1052,-4.0715,-4.0331,-4.0114,-4.0162,-4.0138,-4.0282,-4.0667,-4.0306,-4.0114,-4.0114,-4.0114,-4.0018,-3.985,-3.9489,-3.8749,-3.7597,-3.7404,-3.7569,-3.807,-3.8407,-3.8334,-3.8027,-3.8185,-3.8262,-3.8291,-3.8473,-3.8579,-3.8684,-3.8684,-3.8736,-3.8841,-3.9154,-3.8885,-3.8464,-3.8818,-3.8492,-3.8065,-3.8442,-3.8818,-3.912,-3.912,-3.927,-3.9346,-3.902,-3.8668,-3.814,-3.7387,-3.7061,-3.6883,-3.648,-3.6405,-3.6405,-3.6405,-3.6279,-3.5981,-3.5583,-3.4906,-3.3972,-3.2466,-3.239,-3.2089,-3.0783,0.0,-3.0407,-2.988,-2.8323,-2.7695,-2.8649,-2.7369,-2.659,-2.6791,-2.6264,-2.5695,-2.5104,-2.4424,-2.5242,-2.7878,-2.666,-2.6631,-2.7996,-2.7258,-2.701,-2.7309,-2.7309,-2.7309,-2.7309,-2.7309,-2.6812,-2.5994,-2.6352,-2.6014,-2.5118,-2.499,-2.4892,-2.4873,-2.4578,-2.4677,-2.4941,-2.5186,-2.5479,-2.5693,-4.0258,-4.0739,-4.1076,-4.0739,-4.0956,-4.1052,-4.0643,-4.0932,-4.1052,-4.0643,-4.0932,-4.1172,-4.1172,-4.1172,-4.1172,-4.1172,-4.0571,-4.0475,-4.1148,-4.0571,-4.0499,-4.1148,-4.0547,-4.0186,-4.0186,-4.0186,-4.0186,-4.0186,-3.9657,-3.9224,-3.8888,-3.8695,-3.8767,-3.9128,-3.9128,-3.8912,-3.8599,-3.876,-3.8922,-3.9004,-3.9165,-3.9402,-3.9615,-3.9615,-3.9668,-3.9749,-3.976,-3.9364,-3.8916,-3.8893,-3.8341,-3.7688,-3.7688,-3.7939,-3.8366,-3.8793,-3.912,-3.9346,-3.922,-3.9019,-3.8743,-3.8039,-3.7487,-3.7036,-3.6531,-3.6405,-3.6405,-3.6405,-3.6405,-3.6304,-3.5906,-3.5403,-3.458,-3.337,-3.3294,-3.3068,-3.2139,-3.1662,-3.126,0.0,-2.9428,-2.885,-3.0005,-2.8724,-2.8089,-2.8662,-2.7478,-2.6777,-2.705,-2.6009,-2.6476,-2.8786,-2.8018,-2.792,-2.8675,-2.8053,-2.756,-2.7309,-2.7309,-2.7309,-2.7309,-2.7309,-2.6716,-2.5752,-2.6042,-2.5606,-2.4646,-2.4646,-2.4646,-2.4646,-2.4529,-2.4677,-2.4941,-2.5186,-2.5479,-2.5693,-4.1076,-4.1124,-4.1172,-4.1124,-4.1172,-4.086,-3.9874,-4.0547,-4.0836,-3.985,-4.0571,-4.1172,-4.1172,-4.1172,-4.1172,-4.1172,-4.1124,-4.11,-4.1172,-4.1124,-4.11,-4.1172,-4.1124,-4.1076,-4.1076,-4.1076,-4.1124,-4.1172,-4.0691,-4.0451,-4.0451,-3.9946,-3.9705,-3.9657,-3.9657,-3.9633,-3.9609,-3.9609,-3.9751,-4.0001,-4.0056,-4.0384,-4.0898,-4.0952,-4.106,-4.1225,-4.0752,-4.0249,-3.9722,-3.912,-3.8216,-3.7337,-3.7211,-3.7186,-3.7387,-3.8492,-3.8818,-3.8944,-3.9496,-3.927,-3.8919,-3.8919,-3.8015,-3.7061,-3.6581,-3.643,-3.6405,-3.6405,-3.6405,-3.6405,-3.6405,-3.5906,-3.5307,-3.471,-3.4204,-3.3671,-3.3,-3.1997,-3.132,-3.1245,-2.9863,-2.9349,-3.0478,-2.9518,-2.9129,-2.9788,-2.818,-2.783,-2.9407,-2.7246,-2.6431,-2.7506,-2.7514,-2.7591,-2.7789,-2.7789,-2.7625,-2.7309,-2.7309,-2.7309,-2.7309,-2.7309,-2.6716,-2.5703,-2.5703,-2.5118,-2.4202,-2.4202,-2.4202,-2.4202,-2.443,-2.4677,-2.4941,-2.5235,-2.5499,-2.5693,-4.0066,-4.0643,-4.1052,-4.0643,-4.0908,-4.11,-4.086,-4.1028,-4.11,-4.0836,-4.1028,-4.1172,-4.1172,-4.1172,-4.1172,-4.1172,-4.0451,-4.0331,-4.1124,-4.0427,-4.0331,-4.1148,-4.0403,-3.997,-3.997,-3.997,-4.0379,-4.1172,-4.1052,-4.1004,-4.1004,-4.086,-4.0595,-4.021,-4.021,-3.9994,-3.9609,-3.9806,-3.9946,-4.0056,-4.0493,-4.0789,-4.0952,-4.1114,-4.1222,-4.1275,-4.115,-4.1,-4.0802,-3.9823,-3.932,-3.8868,-3.7588,-3.7186,-3.7236,-3.7513,-3.7889,-3.8341,-3.8919,-3.902,-3.8919,-3.8919,-3.8015,-3.7161,-3.701,-3.6707,-3.6405,-3.6405,-3.6405,-3.6405,-3.6405,-3.5906,-3.5123,-3.4047,-3.3891,-3.3221,-3.1227,-3.0727,-3.0286,-2.9438,-2.9244,-2.9522,-3.0277,-3.0385,-3.0305,-3.0179,-2.9295,-2.8946,-2.9324,-2.8799,-2.8946,-2.9993,-2.9494,-2.9059,-2.8786,-2.8786,-2.8275,-2.7309,-2.7309,-2.7309,-2.7309,-2.7309,-2.6716,-2.5703,-2.5703,-2.5118,-2.4202,-2.4202,-2.4202,-2.4251,-2.4646,-2.4843,-2.499,-2.543,-2.5645,-2.5693,-4.0379,-4.0787,-4.11,-4.0812,-4.1004,-4.1172,-4.1172,-4.1172,-4.1172,-4.1172,-4.1172,-4.1172,-4.1172,-4.1172,-4.1172,-4.1172,-4.0667,-4.0571,-4.1148,-4.0643,-4.0595,-4.1148,-4.0643,-4.0331,-4.0331,-4.0331,-4.0619,-4.1172,-4.1172,-4.1172,-4.1172,-4.1172,-4.1028,-4.0763,-4.091,-4.0708,-4.0387,-4.0755,-4.0978,-4.0978,-4.1478,-4.1753,-4.1863,-4.2028,-4.2082,-4.2057,-4.1806,-4.1706,-4.158,-4.0727,-4.0124,-3.9546,-3.8617,-3.7814,-3.7186,-3.7186,-3.7387,-3.7764,-3.8316,-3.8467,-3.8467,-3.8467,-3.8216,-3.7889,-3.7613,-3.7136,-3.6782,-3.6782,-3.6581,-3.6405,-3.6405,-3.6107,-3.545,-3.4019,-3.3412,-3.24,-3.0372,-2.9832,-2.9537,-2.9097,-2.9451,-2.9976,-3.0515,-3.0472,-3.0433,-3.0568,-2.9773,-2.9382,-2.9542,-2.9386,-2.9769,-3.0866,-3.0486,-2.9943,-2.9279,-2.8724,-2.8045,-2.7309,-2.7309,-2.7309,-2.7309,-2.7309,-2.6716,-2.5703,-2.5703,-2.5118,-2.4202,-2.4202,-2.4202,-2.4251,-2.4745,-2.4892,-2.499,-2.5479,-2.5693,-2.5693,-4.1172,-4.1172,-4.1172,-4.1172,-4.1172,-4.1172,-4.1172,-4.1172,-4.1172,-4.1172,-4.1172,-4.1172,-4.1172,-4.1172,-4.1172,-4.1172,-4.1172,-4.1172,-4.1172,-4.1172,-4.1172,-4.1172,-4.1172,-4.1172,-4.1172,-4.1172,-4.1172,-4.1172,-4.1172,-4.1172,-4.1172,-4.1172,-4.1172,-4.1172,-4.1435,-4.1402,-4.123,-4.1802,-4.2054,-4.2029,-4.2369,-4.2681,-4.293,-4.2986,-4.2986,-4.2911,-4.2514,-4.2338,-4.2263,-4.1656,-4.0852,-4.0023,-3.9772,-3.8668,-3.7412,-3.7236,-3.7136,-3.7186,-3.7739,-3.7939,-3.8015,-3.8115,-3.8442,-3.8642,-3.8241,-3.7713,-3.7287,-3.7211,-3.6857,-3.6505,-3.643,-3.6405,-3.5799,-3.4,-3.2856,-3.1583,-2.9823,-2.9184,-2.9073,-2.946,-2.9996,-3.0466,-3.0919,-3.0262,-3.0171,-3.0899,-2.9997,-2.9571,-2.9873,-2.9574,-2.986,-3.074,-3.0669,-3.0147,-2.9301,-2.8139,-2.7499,-2.7309,-2.7309,-2.7309,-2.7309,-2.7309,-2.6716,-2.5703,-2.5703,-2.5118,-2.4202,-2.4202,-2.4202,-2.4251,-2.4745,-2.4892,-2.499,-2.5479,-2.5693,-2.5693,-4.1172,-4.1172,-4.1172,-4.1172,-4.1172,-4.1172,-4.1172,-4.1172,-4.1172,-4.1172,-4.1172,-4.1172,-4.1172,-4.1172,-4.1172,-4.1172,-4.1172,-4.1172,-4.1172,-4.1172,-4.1172,-4.1172,-4.1172,-4.1172,-4.1172,-4.1172,-4.1172,-4.1172,-4.1172,-4.1172,-4.1172,-4.1172,-4.1172,-4.1172,-4.123,-4.123,-4.123,-4.1549,-4.1663,-4.172,-4.2287,-4.2513,-4.2625,-4.2874,-4.2986,-4.2961,-4.2942,-4.2916,-4.276,-4.2263,-4.1961,-4.1584,-4.0124,-3.9195,-3.8466,-3.7462,-3.6908,-3.6656,-3.7161,-3.7638,-3.8115,-3.8617,-3.8442,-3.8241,-3.8642,-3.8291,-3.7739,-3.7287,-3.7111,-3.6958,-3.648,-3.6405,-3.5519,-3.2747,-3.2259,-3.1317,-2.8864,-2.883,-2.9188,-2.9534,-2.9932,-3.0466,-3.1147,-3.0548,-3.0452,-3.117,-3.051,-3.0057,-3.0114,-3.0079,-3.0127,-3.0308,-2.9559,-2.8839,-2.8233,-2.7809,-2.7499,-2.7309,-2.7309,-2.7309,-2.7309,-2.7309,-2.6716,-2.5703,-2.5703,-2.5118,-2.4202,-2.4202,-2.4202,-2.4251,-2.4745,-2.4892,-2.499,-2.5479,-2.5693,-2.5693,-4.1244,-4.1172,-4.1172,-4.1172,-4.1172,-4.1172,-4.1172,-4.1172,-4.1172,-4.1172,-4.1172,-4.1172,-4.1172,-4.1172,-4.1172,-4.1172,-4.1172,-4.1172,-4.1172,-4.1172,-4.1172,-4.1172,-4.1172,-4.1172,-4.1172,-4.1172,-4.1172,-4.1172,-4.1172,-4.1172,-4.1172,-4.1172,-4.1172,-4.1172,-4.1344,-4.1344,-4.123,-4.1834,-4.2004,-4.1915,-4.2538,-4.2737,-4.2818,-4.293,-4.2986,-4.2986,-4.2986,-4.2986,-4.2936,-4.274,-4.2464,-4.2062,-4.1307,-4.045,-3.9546,-3.8417,-3.731,-3.6455,-3.6732,-3.7136,-3.7638,-3.7889,-3.799,-3.8165,-3.8743,-3.8417,-3.8015,-3.809,-3.7613,-3.7111,-3.6908,-3.6606,-3.5771,-3.3803,-3.2656,-3.1416,-2.962,-2.942,-2.9398,-2.9187,-3.0144,-3.0793,-3.0696,-3.0405,-3.0356,-3.0696,-3.0793,-3.0648,-3.0209,-3.0599,-3.0599,-3.0209,-2.9773,-2.9293,-2.8764,-2.8619,-2.8376,-2.7986,-2.7693,-2.7545,-2.7545,-2.7545,-2.6863,-2.5591,-2.5937,-2.5377,-2.4202,-2.4202,-2.4202,-2.4251,-2.4745,-2.4892,-2.499,-2.5479,-2.5693,-2.5693,-4.1437,-4.1268,-4.1172,-4.1172,-4.1172,-4.1172,-4.1172,-4.1172,-4.1172,-4.1172,-4.1172,-4.1172,-4.1172,-4.1172,-4.1172,-4.1172,-4.1172,-4.1172,-4.1172,-4.1172,-4.1172,-4.1172,-4.1172,-4.1172,-4.1172,-4.1172,-4.1172,-4.1172,-4.1172,-4.1172,-4.1172,-4.1172,-4.1172,-4.1172,-4.1492,-4.1492,-4.1344,-4.2142,-4.2369,-4.2256,-4.2762,-4.2986,-4.2986,-4.2986,-4.2986,-4.2986,-4.2986,-4.2986,-4.2986,-4.2986,-4.2766,-4.2389,-4.2263,-4.148,-4.0526,-3.9546,-3.8065,-3.6732,-3.648,-3.6732,-3.701,-3.7161,-3.7513,-3.7965,-3.8542,-3.8316,-3.814,-3.8567,-3.7864,-3.7186,-3.7186,-3.6782,-3.5996,-3.4771,-3.3212,-3.1781,-3.0718,-3.0237,-2.9869,-2.9518,-3.0585,-3.1176,-3.0586,-3.0537,-3.0537,-3.0537,-3.1078,-3.1105,-3.0537,-3.1078,-3.1127,-3.0537,-3.0319,-2.9965,-2.9501,-2.9402,-2.9155,-2.8707,-2.8106,-2.7824,-2.7824,-2.7652,-2.6867,-2.568,-2.6133,-2.561,-2.4477,-2.4477,-2.4477,-2.4546,-2.5026,-2.5225,-2.5256,-2.5722,-2.5849,-2.583,-4.1918,-4.1533,-4.1172,-4.1172,-4.1172,-4.1172,-4.1172,-4.1172,-4.1172,-4.1172,-4.1172,-4.1172,-4.1172,-4.1172,-4.1172,-4.1172,-4.1172,-4.1172,-4.1172,-4.1172,-4.1172,-4.1172,-4.1172,-4.1172,-4.1172,-4.1172,-4.1172,-4.1172,-4.1172,-4.1172,-4.1172,-4.1172,-4.1172,-4.1172,-4.1492,-4.1606,-4.1606,-4.2231,-4.2457,-4.2513,-4.2874,-4.2986,-4.2986,-4.2986,-4.2986,-4.2986,-4.2986,-4.2986,-4.2986,-4.2986,-4.2961,-4.2836,-4.2363,-4.1756,-4.11,-4.0576,-3.9195,-3.7663,-3.6681,-3.643,-3.6581,-3.7109,-3.7211,-3.7387,-3.7939,-3.804,-3.8015,-3.8065,-3.7588,-3.7186,-3.7186,-3.6782,-3.5855,-3.4234,-3.337,-3.2599,-3.1551,-3.0974,-3.0816,-3.1359,-3.1476,-3.1571,-3.152,-3.152,-3.152,-3.152,-3.1571,-3.1571,-3.152,-3.1571,-3.1571,-3.152,-3.0668,-3.0063,-2.9796,-2.9501,-2.9254,-2.8935,-2.8156,-2.7824,-2.7753,-2.7196,-2.6596,-2.6045,-2.6096,-2.5788,-2.5341,-2.5341,-2.5341,-2.5374,-2.5891,-2.6077,-2.6142,-2.6284,-2.6348,-2.6289,-4.2097,-4.1557,-4.1172,-4.1172,-4.1172,-4.1172,-4.1172,-4.1172,-4.1172,-4.1172,-4.1172,-4.1172,-4.1172,-4.1172,-4.1172,-4.1172,-4.1172,-4.1172,-4.1172,-4.1172,-4.1172,-4.1172,-4.1172,-4.1172,-4.1172,-4.1172,-4.1172,-4.1172,-4.1172,-4.1172,-4.1172,-4.1172,-4.1172,-4.1172,-4.1492,-4.1606,-4.1663,-4.2231,-4.2513,-4.2513,-4.2874,-4.2986,-4.2986,-4.2986,-4.2986,-4.2986,-4.2986,-4.2986,-4.2986,-4.2986,-4.2986,-4.2936,-4.2791,-4.2509,-4.2183,-4.1225,-3.9848,-3.8366,-3.7588,-3.6933,-3.6455,-3.6681,-3.6732,-3.681,-3.7362,-3.7487,-3.7588,-3.7939,-3.7563,-3.7186,-3.7186,-3.6782,-3.6204,-3.5529,-3.4848,-3.4074,-3.3171,-3.2448,-3.1892,-3.1615,-3.1629,-3.1629,-3.1629,-3.1629,-3.1629,-3.1629,-3.1629,-3.1629,-3.1629,-3.1629,-3.1629,-3.1629,-3.128,-3.0932,-3.068,-3.0579,-3.0274,-2.9866,-2.8816,-2.8264,-2.8075,-2.7477,-2.6797,-2.6079,-2.6394,-2.6087,-2.5414,-2.5414,-2.5414,-2.5466,-2.5966,-2.6224,-2.6256,-2.6633,-2.6602,-2.6367,-4.2338,-4.1653,-4.1172,-4.1172,-4.1172,-4.1172,-4.1172,-4.1172,-4.1172,-4.1172,-4.1172,-4.1172,-4.1172,-4.1172,-4.1172,-4.1172,-4.1172,-4.1172,-4.1172,-4.1172,-4.1172,-4.1172,-4.1172,-4.1172,-4.1172,-4.1172,-4.1172,-4.1172,-4.1172,-4.1172,-4.1172,-4.1172,-4.1172,-4.1254,-4.1573,-4.1745,-4.1777,-4.24,-4.2625,-4.2706,-4.293,-4.2986,-4.2986,-4.2986,-4.2986,-4.2986,-4.2986,-4.2986,-4.2986,-4.2986,-4.2986,-4.2986,-4.2986,-4.2986,-4.276,-4.1601,-4.04,-3.922,-3.8492,-3.7462,-3.6631,-3.6455,-3.6405,-3.6505,-3.6835,-3.6935,-3.7086,-3.7638,-3.7044,-3.6478,-3.6651,-3.6278,-3.5906,-3.5906,-3.5715,-3.521,-3.4141,-3.3499,-3.275,-3.1732,-3.1629,-3.1629,-3.1629,-3.1629,-3.1629,-3.1629,-3.1629,-3.1629,-3.1629,-3.1629,-3.1629,-3.1629,-3.1629,-3.1373,-3.0961,-3.0858,-3.0495,-2.9869,-2.9006,-2.8388,-2.8014,-2.7603,-2.6948,-2.6205,-2.6561,-2.6358,-2.58,-2.58,-2.58,-2.58,-2.636,-2.657,-2.6603,-2.7059,-2.7031,-2.6758,-4.2819,-4.1976,-4.1172,-4.1172,-4.1172,-4.1172,-4.1172,-4.1172,-4.1172,-4.1172,-4.1172,-4.1172,-4.1172,-4.1172,-4.1172,-4.1172,-4.1172,-4.1172,-4.1172,-4.1172,-4.1172,-4.1172,-4.1172,-4.1172,-4.1172,-4.1172,-4.1172,-4.1172,-4.1172,-4.1172,-4.1172,-4.1172,-4.1172,-4.1254,-4.1826,-4.211,-4.2167,-4.2762,-4.2986,-4.2986,-4.2986,-4.2986,-4.2986,-4.2986,-4.2986,-4.2986,-4.2986,-4.2986,-4.2986,-4.2986,-4.2986,-4.2986,-4.2986,-4.2986,-4.276,-4.1681,-4.0899,-4.03,-3.917,-3.8065,-3.7061,-3.6556,-3.6405,-3.6405,-3.6405,-3.6405,-3.6556,-3.7061,-3.594,-3.4944,-3.5522,-3.5136,-3.4775,-3.4775,-3.5667,-3.581,-3.419,-3.3993,-3.34,-3.1761,-3.1629,-3.1629,-3.1629,-3.1629,-3.1629,-3.1629,-3.1629,-3.1629,-3.1629,-3.1629,-3.1629,-3.1629,-3.1629,-3.1219,-3.0391,-3.0109,-2.9586,-2.8688,-2.8441,-2.7979,-2.7368,-2.7368,-2.7116,-2.6591,-2.6591,-2.6591,-2.6591,-2.6591,-2.6591,-2.6646,-2.7171,-2.7368,-2.7438,-2.7602,-2.7728,-2.7591,-4.2819,-4.1976,-4.1172,-4.1172,-4.1172,-4.1172,-4.1172,-4.1172,-4.1172,-4.1172,-4.1172,-4.1172,-4.1172,-4.1172,-4.1172,-4.1172,-4.1172,-4.1172,-4.1172,-4.1172,-4.1172,-4.1172,-4.1172,-4.1172,-4.1172,-4.1172,-4.1172,-4.1172,-4.1172,-4.1172,-4.1172,-4.1172,-4.1172,-4.1254,-4.1573,-4.1859,-4.211,-4.2481,-4.2793,-4.2986,-4.2986,-4.2986,-4.2986,-4.2986,-4.2986,-4.2986,-4.2986,-4.2986,-4.2986,-4.2986,-4.2986,-4.2986,-4.2986,-4.2986,-4.2911,-4.2585,-4.2108,-4.143,-4.0325,-3.9496,-3.8617,-3.7335,-3.6707,-3.6405,-3.6405,-3.6405,-3.6455,-3.6631,-3.567,-3.4823,-3.504,-3.4284,-3.3697,-3.3697,-3.4091,-3.4091,-3.3001,-3.3051,-3.275,-3.1732,-3.1629,-3.1629,-3.1629,-3.1629,-3.1629,-3.1629,-3.1629,-3.1629,-3.1629,-3.1629,-3.1629,-3.1629,-3.1629,-3.1094,-3.0109,-3.0235,-2.9743,-2.8688,-2.8208,-2.7745,-2.7368,-2.7008,-2.6755,-2.6591,-2.6591,-2.6591,-2.6591,-2.6591,-2.6591,-2.6646,-2.7171,-2.7368,-2.7476,-2.7931,-2.791,-2.7689,-4.2867,-4.2145,-4.1437,-4.122,-4.1172,-4.1172,-4.1172,-4.1172,-4.1172,-4.1172,-4.1172,-4.1172,-4.1172,-4.1172,-4.1172,-4.1172,-4.1172,-4.1172,-4.1172,-4.1172,-4.1172,-4.1172,-4.1172,-4.1172,-4.1172,-4.1172,-4.1172,-4.1172,-4.1172,-4.1172,-4.1172,-4.1172,-4.123,-4.1402,-4.1688,-4.1972,-4.2256,-4.2594,-4.2793,-4.2986,-4.2986,-4.2986,-4.2986,-4.2986,-4.2986,-4.2986,-4.2986,-4.2986,-4.2986,-4.2986,-4.2986,-4.2986,-4.2986,-4.2986,-4.2986,-4.2986,-4.264,-4.2062,-4.1354,-4.045,-3.9446,-3.8442,-3.7486,-3.6681,-3.6455,-3.6405,-3.6405,-3.6405,-3.5571,-3.4678,-3.4239,-3.3648,-3.3051,-3.265,-3.3051,-3.3151,-3.237,-3.237,-3.2234,-3.1611,-3.1551,-3.1616,-3.181,-3.1832,-3.1798,-3.1728,-3.1706,-3.1671,-3.1578,-3.1629,-3.1629,-3.1629,-3.1476,-3.0991,-3.0005,-2.9796,-2.9217,-2.8155,-2.7833,-2.7476,-2.7062,-2.6954,-2.6791,-2.6591,-2.6591,-2.6591,-2.6591,-2.6591,-2.6591,-2.6646,-2.7171,-2.7368,-2.7476,-2.8067,-2.8125,-2.7891,-4.2916,-4.2386,-4.1798,-4.1268,-4.1172,-4.1172,-4.1172,-4.1172,-4.1172,-4.1172,-4.1172,-4.1172,-4.1172,-4.1172,-4.1172,-4.1172,-4.1172,-4.1172,-4.1172,-4.1172,-4.1172,-4.1172,-4.1172,-4.1172,-4.1172,-4.1172,-4.1172,-4.1172,-4.123,-4.123,-4.123,-4.1254,-4.1402,-4.1663,-4.1972,-4.2256,-4.2513,-4.2818,-4.2986,-4.2986,-4.2986,-4.2986,-4.2986,-4.2986,-4.2986,-4.2986,-4.2986,-4.2986,-4.2986,-4.2986,-4.2986,-4.2986,-4.2986,-4.2986,-4.2986,-4.2986,-4.2665,-4.2263,-4.2213,-4.1106,-3.9873,-3.9722,-3.8542,-3.7236,-3.6631,-3.6335,-3.6263,-3.6263,-3.5427,-3.4337,-3.325,-3.3051,-3.27,-3.1637,-3.2297,-3.27,-3.1964,-3.1863,-3.1782,-3.1486,-3.1466,-3.1657,-3.2104,-3.2189,-3.2148,-3.1932,-3.1911,-3.1875,-3.1679,-3.1665,-3.1644,-3.1592,-3.1343,-3.0806,-2.9953,-2.9112,-2.8262,-2.7368,-2.7368,-2.7062,-2.6646,-2.7116,-2.7062,-2.6591,-2.6591,-2.6591,-2.6591,-2.6591,-2.6591,-2.6646,-2.7171,-2.7368,-2.7476,-2.8067,-2.8301,-2.8223,-4.2916,-4.2386,-4.1798,-4.1268,-4.1172,-4.1172,-4.1172,-4.1172,-4.1172,-4.1172,-4.1172,-4.1172,-4.1172,-4.1172,-4.1172,-4.1172,-4.1172,-4.1172,-4.1172,-4.1172,-4.1172,-4.1172,-4.1172,-4.1172,-4.1172,-4.1172,-4.1172,-4.1172,-4.1402,-4.1492,-4.1492,-4.1802,-4.194,-4.1972,-4.2054,-4.2256,-4.2513,-4.2569,-4.2737,-4.2986,-4.2986,-4.2986,-4.2986,-4.2986,-4.2986,-4.2986,-4.2986,-4.2986,-4.2986,-4.2986,-4.2986,-4.2986,-4.2986,-4.2986,-4.2986,-4.2986,-4.2886,-4.271,-4.2313,-4.1936,-4.1358,-4.0023,-3.9421,-3.8768,-3.7337,-3.6059,-3.5138,-3.5138,-3.4288,-3.325,-3.2123,-3.1942,-3.1586,-3.0547,-3.0754,-3.094,-3.0754,-3.0909,-3.1025,-3.0955,-3.1295,-3.1529,-3.1636,-3.1997,-3.2168,-3.2115,-3.2115,-3.2126,-3.2073,-3.1942,-3.1727,-3.1496,-3.1309,-3.0703,-2.9638,-2.9006,-2.8262,-2.7368,-2.6954,-2.67,-2.6591,-2.6755,-2.67,-2.6591,-2.6591,-2.6591,-2.6591,-2.6591,-2.6591,-2.6646,-2.7171,-2.7368,-2.7476,-2.8067,-2.8301,-2.8223,-4.3216,-4.2711,-4.2182,-4.1653,-4.1341,-4.1172,-4.1172,-4.1172,-4.1172,-4.1172,-4.1172,-4.1172,-4.1172,-4.1172,-4.1172,-4.1172,-4.1172,-4.1172,-4.1172,-4.1172,-4.1172,-4.1172,-4.1172,-4.1172,-4.1172,-4.1172,-4.1172,-4.1172,-4.1344,-4.1402,-4.1402,-4.1745,-4.1972,-4.211,-4.2199,-4.2481,-4.2762,-4.2762,-4.2874,-4.2986,-4.2986,-4.2986,-4.2986,-4.2986,-4.2986,-4.2986,-4.2986,-4.2986,-4.2986,-4.2986,-4.2986,-4.2986,-4.2986,-4.2986,-4.2986,-4.2986,-4.2986,-4.2911,-4.269,-4.2414,-4.2011,-4.1078,-4.0275,-3.9245,-3.7563,-3.6161,-3.5088,-3.4823,-3.3944,-3.2851,-3.179,-3.1586,-3.1227,-3.0203,-3.0151,-3.0183,-3.0183,-3.036,-3.0496,-3.0727,-3.0958,-3.1251,-3.1713,-3.1965,-3.2167,-3.2277,-3.2332,-3.2281,-3.221,-3.2084,-3.2009,-3.1827,-3.138,-3.0727,-2.986,-2.8967,-2.8121,-2.7368,-2.6845,-2.6591,-2.6591,-2.6591,-2.6591,-2.6591,-2.6591,-2.6591,-2.6591,-2.6591,-2.6591,-2.6646,-2.7171,-2.7368,-2.7476,-2.8067,-2.8301,-2.8223,-4.3625,-4.3168,-4.2747,-4.2086,-4.1605,-4.1293,-4.1196,-4.1172,-4.1172,-4.1172,-4.1172,-4.1172,-4.1172,-4.1172,-4.1172,-4.1172,-4.1172,-4.1172,-4.1172,-4.1172,-4.1172,-4.1172,-4.1172,-4.1172,-4.1172,-4.1172,-4.1172,-4.1172,-4.123,-4.1287,-4.1287,-4.1606,-4.1891,-4.2142,-4.2481,-4.2762,-4.2986,-4.2986,-4.2986,-4.2986,-4.2986,-4.2986,-4.2986,-4.2986,-4.2986,-4.2986,-4.2986,-4.2986,-4.2986,-4.2986,-4.2986,-4.2986,-4.2986,-4.2986,-4.2986,-4.2986,-4.2986,-4.2986,-4.2986,-4.269,-4.2313,-4.2238,-4.1182,-3.9697,-3.8115,-3.648,-3.5201,-3.4747,-3.3744,-3.26,-3.1534,-3.1483,-3.1227,-3.0203,-2.9994,-2.9994,-2.9994,-2.9994,-3.0139,-3.0512,-3.0636,-3.1008,-3.1836,-3.1919,-3.1975,-3.2197,-3.2204,-3.2148,-3.2069,-3.1993,-3.1993,-3.2048,-3.1335,-3.0657,-2.9992,-2.8844,-2.793,-2.7279,-2.6791,-2.6591,-2.6591,-2.6591,-2.6591,-2.6591,-2.6591,-2.6591,-2.6591,-2.6591,-2.6591,-2.6646,-2.7171,-2.7368,-2.7476,-2.8067,-2.8301,-2.8242,-4.3625,-4.3457,-4.3096,-4.2134,-4.1918,-4.1701,-4.1244,-4.1172,-4.1172,-4.1172,-4.1172,-4.1172,-4.1172,-4.1172,-4.1172,-4.1172,-4.1172,-4.1172,-4.1172,-4.1172,-4.1172,-4.1172,-4.1172,-4.1172,-4.1172,-4.1172,-4.1172,-4.1172,-4.1435,-4.1549,-4.1549,-4.2118,-4.24,-4.2457,-4.2818,-4.2986,-4.2986,-4.2986,-4.2986,-4.2986,-4.2986,-4.2986,-4.2986,-4.2986,-4.2986,-4.2986,-4.2986,-4.2986,-4.2986,-4.2986,-4.2986,-4.2986,-4.2986,-4.2986,-4.2986,-4.2986,-4.2986,-4.2986,-4.2986,-4.2911,-4.276,-4.2338,-4.2037,-4.1559,-4.0325,-3.7046,-3.419,-3.412,-3.2893,-3.1483,-3.0391,-3.0991,-3.1227,-3.0203,-2.9994,-2.9994,-2.9994,-2.9994,-3.0015,-3.0077,-3.045,-3.0884,-3.1422,-3.1464,-3.1519,-3.1519,-3.137,-3.1314,-3.1511,-3.1155,-3.1155,-3.147,-3.0764,-2.9924,-2.9164,-2.843,-2.7563,-2.67,-2.6646,-2.6591,-2.6591,-2.6591,-2.6591,-2.6591,-2.6591,-2.6591,-2.6591,-2.6591,-2.6591,-2.6646,-2.7171,-2.7368,-2.7476,-2.8067,-2.8301,-2.8281,-4.3973,-4.3721,-4.3361,-4.2904,-4.2351,-4.1894,-4.1653,-4.1365,-4.1172,-4.1172,-4.1172,-4.1172,-4.1172,-4.1172,-4.1172,-4.1172,-4.1172,-4.1172,-4.1172,-4.1172,-4.1172,-4.1172,-4.1172,-4.1172,-4.1172,-4.1172,-4.1172,-4.1172,-4.1344,-4.1402,-4.1402,-4.1972,-4.2256,-4.2312,-4.2762,-4.2986,-4.2986,-4.2986,-4.2986,-4.2986,-4.2986,-4.2986,-4.2986,-4.2986,-4.2986,-4.2986,-4.2986,-4.2986,-4.2986,-4.2986,-4.2986,-4.2986,-4.2986,-4.2986,-4.2986,-4.2986,-4.2986,-4.2986,-4.2986,-4.2986,-4.2911,-4.274,-4.2439,-4.2087,-4.153,-3.8243,-3.5212,-3.4883,-3.2818,-3.0927,-3.0494,-3.0559,-3.0547,-3.0099,-2.9994,-2.9994,-2.9994,-2.9994,-2.9994,-2.9994,-3.018,-3.0491,-3.0946,-3.0988,-3.1086,-3.1192,-3.1115,-3.1087,-3.1071,-3.088,-3.088,-3.1071,-3.0482,-2.9872,-2.918,-2.8385,-2.7622,-2.6921,-2.6701,-2.6591,-2.6591,-2.6591,-2.6591,-2.6591,-2.6591,-2.6591,-2.6591,-2.6591,-2.6591,-2.6646,-2.7171,-2.7603,-2.7906,-2.8174,-2.8301,-2.8301]},{"header":{"parameterUnit":"m.s-1","parameterCategory":1,"la1":30.6,"la2":28.766,"lo1":-90.7593,"lo2":-88.6598,"dy":0.0162,"dx":0.0183,"nx":116,"ny":114,"refTime":"2024-03-20T00:00:00:Z","depth":0,"parameterNumber":3,"parameterNumberName":"V-component_of_WINDS"},"data":[0.0,0.0,0.0,0.0,0.0,0.0,0.0,0.0,0.0,0.0,0.0,0.0,0.0,0.0,0.0,0.0,0.0,0.0,0.0,0.0,0.0,0.0,0.0,0.0,0.0,0.0,0.0,0.0,0.0,0.0,0.0,0.0,0.0,0.0,0.0,0.0,0.0,0.0,0.0,0.0,0.0,0.0,0.0,0.0,0.0,0.0,0.0,0.0,0.0,0.0,0.0,0.0,0.0,0.0,0.0,0.0,0.0,0.0,0.0,0.0,0.0,0.0,0.0,0.0,0.0,0.0,0.0,0.0,0.0,0.0,0.0,0.0,0.0,0.0,0.0,0.0,0.0,0.0,0.0,0.0,0.0,0.0,0.0,0.0,0.0,0.0,0.0,0.0,0.0,0.0,0.0,0.0,0.0,0.0,0.0,0.0,0.0,0.0,0.0,0.0,0.0,0.0,0.0,0.0,0.0,0.0,0.0,0.0,0.0,0.0,0.0,0.0,0.0,0.0,0.0,0.0,0.0,0.0,0.0,0.0,0.0,0.0,0.0,0.0,0.0,0.0,0.0,0.0,0.0,0.0,0.0,0.0,0.0,0.0,0.0,0.0,0.0,0.0,0.0,0.0,0.0,0.0,0.0,0.0,0.0,0.0,0.0,0.0,0.0,0.0,0.0,0.0,0.0,0.0,0.0,0.0,0.0,0.0,0.0,0.0,0.0,0.0,0.0,0.0,0.0,0.0,0.0,0.0,0.0,0.0,0.0,0.0,0.0,0.0,0.0,0.0,0.0,0.0,0.0,0.0,0.0,0.0,0.0,0.0,0.0,0.0,0.0,0.0,0.0,0.0,0.0,0.0,0.0,0.0,0.0,0.0,0.0,0.0,0.0,0.0,0.0,0.0,0.0,0.0,0.0,0.0,0.0,0.0,0.0,0.0,0.0,0.0,0.0,0.0,0.0,0.0,0.0,0.0,0.0,0.0,0.0,0.0,0.0,0.0,0.0,0.0,0.0,0.0,0.0,0.0,0.0,0.0,0.0,0.0,0.0,0.0,0.0,0.0,0.0,0.0,0.0,0.0,0.0,0.0,0.0,0.0,0.0,0.0,0.0,0.0,0.0,0.0,0.0,0.0,0.0,0.0,0.0,0.0,0.0,0.0,0.0,0.0,0.0,0.0,0.0,0.0,0.0,0.0,0.0,0.0,0.0,0.0,0.0,0.0,0.0,0.0,0.0,0.0,0.0,0.0,0.0,0.0,0.0,0.0,0.0,0.0,0.0,0.0,0.0,0.0,0.0,0.0,0.0,0.0,0.0,0.0,0.0,0.0,0.0,0.0,0.0,0.0,0.0,0.0,0.0,0.0,0.0,0.0,0.0,0.0,0.0,0.0,0.0,0.0,0.0,0.0,0.0,0.0,0.0,0.0,0.0,0.0,0.0,0.0,0.0,0.0,0.0,0.0,0.0,0.0,0.0,0.0,0.0,0.0,0.0,0.0,0.0,0.0,0.0,0.0,0.0,0.0,0.0,0.0,0.0,0.0,0.0,0.0,0.0,0.0,0.0,0.0,0.0,0.0,0.0,0.0,0.0,0.0,0.0,0.0,0.0,0.0,0.0,0.0,0.0,0.0,0.0,0.0,0.0,0.0,0.0,0.0,0.0,0.0,0.0,0.0,0.0,0.0,0.0,0.0,0.0,0.0,0.0,0.0,0.0,0.0,0.0,0.0,0.0,0.0,0.0,0.0,0.0,0.0,0.0,0.0,0.0,0.0,0.0,0.0,0.0,0.0,0.0,0.0,0.0,0.0,0.0,0.0,0.0,0.0,0.0,0.0,0.0,0.0,0.0,0.0,0.0,0.0,0.0,0.0,0.0,0.0,0.0,0.0,0.0,0.0,0.0,0.0,0.0,0.0,0.0,0.0,0.0,0.0,0.0,0.0,0.0,0.0,0.0,0.0,0.0,0.0,0.0,0.0,0.0,0.0,0.0,0.0,0.0,0.0,0.0,0.0,0.0,0.0,0.0,0.0,0.0,0.0,0.0,0.0,0.0,0.0,0.0,0.0,0.0,0.0,0.0,0.0,0.0,0.0,0.0,0.0,0.0,0.0,0.0,0.0,0.0,0.0,0.0,0.0,0.0,0.0,0.0,0.0,0.0,0.0,0.0,0.0,0.0,0.0,0.0,0.0,0.0,0.0,0.0,0.0,0.0,0.0,0.0,0.0,0.0,0.0,0.0,0.0,0.0,0.0,0.0,0.0,0.0,0.0,0.0,0.0,0.0,0.0,0.0,0.0,0.0,0.0,0.0,0.0,0.0,0.0,0.0,0.0,0.0,0.0,0.0,0.0,0.0,0.0,0.0,0.0,0.0,0.0,0.0,0.0,0.0,0.0,0.0,0.0,0.0,0.0,0.0,0.0,0.0,0.0,0.0,0.0,0.0,0.0,0.0,0.0,0.0,0.0,0.0,0.0,0.0,0.0,0.0,0.0,0.0,0.0,0.0,0.0,0.0,0.0,0.0,0.0,0.0,0.0,0.0,0.0,0.0,0.0,0.0,0.0,0.0,0.0,0.0,0.0,0.0,0.0,0.0,0.0,0.0,0.0,0.0,0.0,0.0,0.0,0.0,0.0,0.0,0.0,0.0,0.0,0.0,0.0,0.0,0.0,0.0,0.0,0.0,0.0,0.0,0.0,0.0,0.0,0.0,0.0,0.0,0.0,0.0,0.0,0.0,0.0,0.0,0.0,0.0,0.0,0.0,0.0,0.0,0.0,0.0,0.0,0.0,0.0,0.0,0.0,0.0,0.0,0.0,0.0,0.0,0.0,0.0,0.0,0.0,0.0,0.0,0.0,0.0,0.0,0.0,0.0,0.0,0.0,0.0,0.0,0.0,0.0,0.0,0.0,0.0,0.0,0.0,0.0,0.0,0.0,0.0,0.0,0.0,0.0,0.0,0.0,0.0,0.0,0.0,0.0,0.0,0.0,0.0,0.0,0.0,0.0,0.0,0.0,0.0,0.0,0.0,0.0,0.0,0.0,0.0,0.0,0.0,0.0,0.0,0.0,0.0,0.0,0.0,0.0,0.0,0.0,0.0,0.0,0.0,0.0,0.0,0.0,0.0,0.0,0.0,0.0,0.0,0.0,0.0,0.0,0.0,0.0,0.0,0.0,0.0,0.0,0.0,0.0,0.0,0.0,0.0,0.0,0.0,0.0,0.0,0.0,0.0,0.0,0.0,0.0,0.0,0.0,0.0,0.0,0.0,0.0,0.0,0.0,0.0,0.0,0.0,0.0,0.0,0.0,0.0,0.0,0.0,0.0,0.0,0.0,0.0,0.0,0.0,0.0,0.0,0.0,0.0,0.0,0.0,0.0,0.0,0.0,0.0,0.0,0.0,0.0,0.0,0.0,0.0,0.0,0.0,0.0,0.0,0.0,0.0,0.0,0.0,0.0,0.0,0.0,0.0,0.0,0.0,0.0,0.0,0.0,0.0,0.0,0.0,0.0,0.0,0.0,0.0,0.0,0.0,0.0,0.0,0.0,0.0,0.0,0.0,0.0,0.0,0.0,0.0,0.0,0.0,0.0,0.0,0.0,0.0,0.0,0.0,0.0,0.0,0.0,0.0,0.0,0.0,0.0,0.0,0.0,0.0,0.0,0.0,0.0,0.0,0.0,0.0,0.0,0.0,0.0,0.0,0.0,0.0,0.0,0.0,0.0,0.0,0.0,0.0,0.0,0.0,0.0,0.0,0.0,0.0,0.0,0.0,0.0,0.0,0.0,0.0,0.0,0.0,0.0,0.0,0.0,0.0,0.0,0.0,0.0,0.0,0.0,0.0,0.0,0.0,0.0,0.0,0.0,0.0,0.0,0.0,0.0,0.0,0.0,0.0,0.0,0.0,0.0,0.0,0.0,0.0,0.0,0.0,0.0,0.0,0.0,0.0,0.0,0.0,0.0,0.0,0.0,0.0,0.0,0.0,0.0,0.0,0.0,0.0,0.0,0.0,0.0,0.0,0.0,0.0,0.0,0.0,0.0,0.0,0.0,0.0,0.0,0.0,0.0,0.0,0.0,0.0,0.0,0.0,0.0,0.0,0.0,0.0,0.0,0.0,0.0,0.0,0.0,0.0,0.0,0.0,0.0,0.0,0.0,0.0,0.0,0.0,0.0,0.0,0.0,0.0,0.0,0.0,0.0,0.0,0.0,0.0,0.0,0.0,0.0,0.0,0.0,0.0,0.0,0.0,0.0,0.0,0.0,0.0,0.0,0.0,0.0,0.0,0.0,0.0,0.0,0.0,0.0,0.0,0.0,0.0,0.0,0.0,0.0,0.0,0.0,0.0,0.0,0.0,0.0,0.0,0.0,0.0,0.0,0.0,0.0,0.0,0.0,0.0,0.0,0.0,0.0,0.0,0.0,0.0,0.0,0.0,0.0,0.0,0.0,0.0,0.0,0.0,0.0,0.0,0.0,0.0,0.0,0.0,0.0,0.0,0.0,0.0,0.0,0.0,0.0,0.0,0.0,0.0,0.0,0.0,0.0,0.0,0.0,0.0,0.0,0.0,0.0,0.0,0.0,0.0,0.0,0.0,0.0,0.0,0.0,0.0,0.0,0.0,0.0,0.0,0.0,0.0,0.0,0.0,0.0,0.0,0.0,0.0,0.0,0.0,0.0,0.0,0.0,0.0,0.0,0.0,0.0,0.0,0.0,0.0,0.0,0.0,0.0,0.0,0.0,0.0,0.0,0.0,0.0,0.0,0.0,0.0,0.0,0.0,0.0,0.0,0.0,0.0,0.0,0.0,0.0,0.0,0.0,0.0,0.0,0.0,0.0,0.0,0.0,0.0,0.0,0.0,0.0,0.0,0.0,0.0,0.0,0.0,0.0,0.0,0.0,0.0,0.0,0.0,0.0,0.0,0.0,0.0,0.0,0.0,0.0,0.0,0.0,0.0,0.0,0.0,0.0,0.0,0.0,0.0,0.0,0.0,0.0,0.0,0.0,0.0,0.0,0.0,0.0,0.0,0.0,0.0,0.0,0.0,0.0,0.0,0.0,0.0,0.0,0.0,0.0,0.0,0.0,0.0,0.0,0.0,0.0,0.0,0.0,0.0,0.0,0.0,0.0,0.0,0.0,0.0,0.0,0.0,0.0,0.0,0.0,0.0,0.0,0.0,0.0,0.0,0.0,0.0,0.0,0.0,0.0,0.0,0.0,0.0,0.0,0.0,0.0,0.0,0.0,0.0,0.0,0.0,0.0,0.0,0.0,0.0,0.0,0.0,0.0,0.0,0.0,0.0,0.0,0.0,0.0,0.0,0.0,0.0,0.0,0.0,0.0,0.0,0.0,0.0,0.0,0.0,0.0,0.0,0.0,0.0,0.0,0.0,0.0,0.0,0.0,0.0,0.0,0.0,0.0,0.0,0.0,0.0,0.0,0.0,0.0,0.0,0.0,0.0,0.0,0.0,0.0,0.0,0.0,0.0,0.0,0.0,0.0,0.0,0.0,0.0,0.0,0.0,0.0,0.0,0.0,0.0,0.0,0.0,0.0,0.0,0.0,0.0,0.0,0.0,0.0,0.0,0.0,0.0,0.0,0.0,0.0,0.0,0.0,0.0,0.0,0.0,0.0,0.0,0.0,0.0,0.0,0.0,0.0,0.0,0.0,0.0,0.0,0.0,0.0,0.0,0.0,0.0,0.0,0.0,0.0,0.0,0.0,0.0,0.0,0.0,0.0,0.0,0.0,0.0,0.0,0.0,0.0,0.0,0.0,0.0,0.0,0.0,0.0,0.0,0.0,0.0,0.0,0.0,0.0,0.0,0.0,0.0,0.0,0.0,0.0,0.0,0.0,0.0,0.0,0.0,0.0,0.0,0.0,0.0,0.0,0.0,0.0,0.0,0.0,0.0,0.0,0.0,0.0,0.0,0.0,0.0,0.0,0.0,0.0,0.0,0.0,0.0,0.0,0.0,0.0,0.0,0.0,0.0,0.0,0.0,0.0,0.0,0.0,0.0,0.0,0.0,0.0,0.0,0.0,0.0,0.0,0.0,0.0,0.0,0.0,0.0,0.0,0.0,0.0,0.0,0.0,0.0,0.0,0.0,0.0,0.0,0.0,2.1019,0.0,0.0,0.0,0.0,0.0,0.0,0.0,0.0,0.0,0.0,0.0,0.0,0.0,0.0,0.0,0.0,0.0,0.0,0.0,0.0,0.0,0.0,0.0,0.0,0.0,0.0,0.0,3.4157,3.4157,3.4157,3.4157,0.0,0.0,0.0,0.0,0.0,0.0,3.3985,3.4157,3.465,3.5278,3.6014,3.6018,3.6104,3.6293,0.0,0.0,0.0,0.0,0.0,0.0,0.0,0.0,0.0,0.0,0.0,0.0,0.0,0.0,0.0,0.0,0.0,0.0,0.0,0.0,0.0,0.0,0.0,0.0,0.0,0.0,0.0,0.0,0.0,0.0,0.0,0.0,0.0,0.0,0.0,0.0,0.0,0.0,0.0,0.0,0.0,0.0,0.0,0.0,0.0,0.0,0.0,0.0,0.0,0.0,0.0,0.0,0.0,0.0,0.0,0.0,0.0,0.0,0.0,0.0,0.0,0.0,0.0,0.0,0.0,0.0,0.0,0.0,0.0,0.0,0.0,2.1349,0.0,0.0,0.0,0.0,0.0,0.0,0.0,0.0,0.0,0.0,0.0,0.0,0.0,0.0,0.0,0.0,0.0,0.0,0.0,0.0,0.0,0.0,0.0,3.407,3.4059,3.4259,3.4259,3.4259,3.4196,3.4264,3.4293,3.4196,3.4094,3.3991,3.3957,3.3882,3.3939,3.4123,3.5004,3.6003,3.699,3.699,3.6565,3.5848,3.5952,0.0,0.0,0.0,0.0,0.0,0.0,0.0,0.0,0.0,0.0,0.0,0.0,0.0,0.0,0.0,0.0,0.0,0.0,0.0,0.0,0.0,0.0,0.0,0.0,0.0,0.0,0.0,0.0,0.0,0.0,0.0,0.0,0.0,0.0,0.0,0.0,0.0,0.0,0.0,0.0,0.0,0.0,0.0,0.0,0.0,0.0,0.0,0.0,0.0,0.0,0.0,0.0,0.0,0.0,0.0,0.0,0.0,0.0,0.0,0.0,0.0,0.0,0.0,2.3752,2.3799,2.3731,2.3731,2.379,2.3871,2.3388,2.3282,2.3306,2.1582,0.0,0.0,0.0,0.0,0.0,0.0,0.0,0.0,0.0,0.0,0.0,0.0,0.0,0.0,0.0,0.0,0.0,0.0,0.0,0.0,0.0,3.3437,3.3675,3.3709,3.3709,3.364,3.3466,3.3779,3.3813,3.3466,3.3605,3.3605,3.3431,3.357,3.407,3.4934,3.6265,3.707,3.7336,3.7336,3.7246,3.7165,3.7199,3.687,3.6424,0.0,0.0,0.0,0.0,0.0,0.0,0.0,0.0,0.0,0.0,0.0,0.0,0.0,0.0,0.0,0.0,0.0,0.0,0.0,0.0,0.0,0.0,0.0,0.0,0.0,0.0,0.0,0.0,0.0,0.0,0.0,0.0,0.0,0.0,0.0,0.0,0.0,0.0,0.0,0.0,0.0,2.8592,3.0079,0.0,0.0,0.0,0.0,0.0,0.0,0.0,0.0,0.0,0.0,0.0,0.0,0.0,2.6215,2.6013,2.7097,2.7334,2.6731,2.7668,2.786,2.7392,2.7392,2.7404,2.7351,2.6407,0.0,2.3475,2.2495,0.0,0.0,0.0,0.0,0.0,0.0,0.0,0.0,0.0,0.0,0.0,0.0,0.0,0.0,0.0,0.0,0.0,0.0,0.0,0.0,0.0,3.3311,3.3782,3.4228,3.4598,3.4619,3.4179,3.432,3.4184,3.3668,3.3605,3.357,3.3466,3.3612,3.4513,3.6126,3.7087,3.7907,3.8506,3.8506,3.8506,3.8506,3.8506,3.7973,3.7015,3.7015,0.0,0.0,0.0,0.0,0.0,0.0,0.0,0.0,0.0,0.0,0.0,0.0,0.0,0.0,0.0,0.0,0.0,0.0,0.0,0.0,0.0,0.0,0.0,0.0,0.0,0.0,0.0,0.0,0.0,0.0,0.0,0.0,0.0,0.0,0.0,0.0,0.0,0.0,0.0,2.8899,2.9361,3.0138,2.9414,2.8567,0.0,0.0,0.0,0.0,0.0,0.0,0.0,0.0,0.0,2.6298,2.69,2.7278,2.7429,2.8577,2.9008,2.8699,2.915,2.9277,2.9051,2.9051,2.8875,2.8512,2.8047,2.719,2.5974,2.4249,2.3397,2.3069,0.0,0.0,0.0,0.0,2.042,2.0407,0.0,0.0,0.0,0.0,0.0,0.0,0.0,0.0,0.0,0.0,0.0,0.0,3.2596,3.3281,3.3981,3.4746,3.5228,3.5192,3.4533,3.4647,3.4398,3.3703,3.3605,3.357,3.3536,3.4133,3.5276,3.7011,3.7872,3.868,3.9373,3.9373,3.9373,3.9373,3.9373,3.8751,3.7674,3.7708,3.7383,3.6783,0.0,0.0,0.0,0.0,0.0,0.0,0.0,0.0,0.0,0.0,0.0,0.0,0.0,0.0,0.0,0.0,0.0,0.0,0.0,0.0,0.0,0.0,0.0,0.0,0.0,0.0,0.0,0.0,0.0,0.0,0.0,0.0,0.0,0.0,0.0,0.0,0.0,2.9706,3.0015,3.0346,2.9958,2.9331,0.0,0.0,0.0,0.0,0.0,0.0,2.7454,2.7386,2.7447,2.7661,2.8329,2.8782,2.9026,2.9934,3.0324,3.0206,3.0245,3.0245,3.0206,3.0206,2.9955,2.9553,2.9553,2.9176,2.8386,2.6055,2.4825,2.4331,2.3662,2.2555,2.1338,2.1346,2.1202,2.0963,0.0,0.0,0.0,0.0,0.0,0.0,0.0,0.0,0.0,0.0,0.0,3.1668,3.2252,3.3261,3.413,3.4743,3.4827,3.4529,3.3735,3.4189,3.4086,3.3086,3.3403,3.3501,3.3326,3.5238,3.6619,3.7288,3.8625,3.9343,3.9373,3.9373,3.9373,3.9373,3.9373,3.902,3.8367,3.8537,3.8245,3.7553,3.6953,0.0,0.0,0.0,0.0,0.0,0.0,0.0,0.0,0.0,0.0,0.0,0.0,0.0,0.0,0.0,0.0,0.0,0.0,0.0,0.0,0.0,0.0,0.0,0.0,0.0,0.0,0.0,0.0,0.0,0.0,0.0,0.0,0.0,0.0,0.0,0.0,0.0,0.0,3.1089,3.137,0.0,0.0,0.0,0.0,2.8161,2.8428,2.9276,3.0797,3.1098,3.1787,3.2942,3.2633,3.2332,3.2185,3.1972,3.1716,3.1311,3.1498,3.1473,3.1311,3.1311,3.1286,3.126,3.126,3.0683,2.9565,2.7578,2.6491,2.5768,2.3852,2.2761,2.2056,2.0484,2.0398,2.1047,0.0,0.0,0.0,0.0,0.0,0.0,0.0,0.0,3.1017,2.9659,3.0187,3.0875,3.136,3.2897,3.4112,3.4639,3.5492,3.5659,3.482,3.4706,3.4351,3.3629,3.3452,3.3628,3.4058,3.5747,3.6876,3.7442,3.8935,3.9689,3.9806,4.0254,4.0509,4.0509,4.0621,4.0307,3.9649,3.9301,3.8868,3.834,3.8069,3.75,0.0,0.0,0.0,0.0,0.0,0.0,0.0,0.0,0.0,0.0,0.0,0.0,0.0,0.0,0.0,0.0,0.0,0.0,0.0,0.0,0.0,0.0,0.0,0.0,0.0,0.0,0.0,0.0,0.0,0.0,0.0,0.0,0.0,0.0,0.0,0.0,0.0,3.1541,3.1298,0.0,3.1173,3.093,3.0705,3.0591,3.1665,3.257,3.313,3.3436,3.402,3.4841,3.4579,3.4402,3.441,3.4324,3.4023,3.352,3.3589,3.3388,3.2993,3.2993,3.2616,3.1913,3.1913,3.1512,3.0758,2.9731,2.8319,2.6723,2.584,2.5057,2.4265,2.2974,2.257,2.2607,0.0,0.0,0.0,0.0,0.0,0.0,0.0,0.0,3.104,2.9844,3.0169,3.0849,3.1605,3.309,3.425,3.4915,3.579,3.594,3.5063,3.4813,3.4344,3.3548,3.3434,3.382,3.4769,3.6118,3.713,3.7872,3.9199,3.9984,4.0275,4.0733,4.1003,4.1109,4.1232,4.1107,4.0696,4.0038,3.9487,3.9003,3.8792,3.8073,3.7113,0.0,0.0,0.0,0.0,0.0,0.0,0.0,0.0,0.0,0.0,0.0,0.0,0.0,0.0,0.0,0.0,0.0,0.0,0.0,0.0,0.0,0.0,0.0,0.0,0.0,0.0,0.0,0.0,0.0,0.0,0.0,0.0,0.0,0.0,3.02,3.1163,3.2189,3.2186,3.2283,3.2826,3.2939,3.3089,3.3342,3.4365,3.5035,3.5249,3.55,3.5831,3.6273,3.5874,3.567,3.5683,3.5372,3.5041,3.468,3.468,3.4525,3.4173,3.3972,3.3395,3.2516,3.2516,3.2089,3.1386,3.121,3.0119,2.853,2.7534,2.6702,2.5914,2.4937,2.4468,2.4213,0.0,0.0,0.0,0.0,0.0,0.0,0.0,3.1466,3.1147,3.0336,3.0809,3.1757,3.3092,3.382,3.4628,3.5601,3.571,3.5301,3.4285,3.4365,3.3965,3.2786,3.3303,3.4213,3.5361,3.6398,3.7444,3.8596,3.9553,4.0265,4.0715,4.0753,4.0908,4.1169,4.1169,4.1254,4.1354,4.0726,4.0177,3.9696,3.9003,3.8443,3.7943,0.0,0.0,0.0,0.0,0.0,0.0,0.0,0.0,0.0,0.0,0.0,0.0,0.0,0.0,0.0,0.0,0.0,0.0,0.0,0.0,0.0,0.0,0.0,0.0,0.0,0.0,0.0,0.0,0.0,0.0,0.0,0.0,0.0,2.9342,3.0991,3.249,3.3115,3.4163,3.4856,3.4883,3.5398,3.5927,3.6288,3.6368,3.6623,3.7214,3.7268,3.7353,3.7567,3.6698,3.6192,3.6149,3.5245,3.4776,3.4731,3.4731,3.4731,3.4726,3.4198,3.3646,3.3093,3.3093,3.2466,3.1486,3.1989,3.1888,3.1179,2.8787,2.7507,2.6887,2.6115,2.5847,2.5616,0.0,0.0,0.0,0.0,0.0,0.0,3.1299,3.0911,3.065,3.0721,3.1246,3.1853,3.2427,3.3957,3.4967,3.5058,3.5653,3.5611,3.4663,3.4421,3.4008,3.3385,3.3937,3.4744,3.5797,3.6709,3.7619,3.846,3.9684,4.0437,4.0728,4.1552,4.1986,4.2067,4.2227,4.209,4.1811,4.1632,4.13,4.0838,3.9841,3.9068,3.8499,0.0,0.0,0.0,0.0,0.0,0.0,0.0,0.0,0.0,0.0,0.0,0.0,0.0,0.0,0.0,0.0,0.0,0.0,0.0,0.0,0.0,0.0,0.0,0.0,0.0,0.0,0.0,0.0,0.0,0.0,0.0,3.0616,3.145,3.1387,3.2552,3.3799,3.4869,3.5655,3.6307,3.6699,3.6889,3.7052,3.7172,3.7812,3.8334,3.8715,3.897,3.9186,3.9454,3.8755,3.8069,3.7351,3.7079,3.6621,3.5906,3.5906,3.5705,3.5282,3.5107,3.4575,3.3671,3.3671,3.3269,3.2591,3.2315,3.2114,3.1805,3.0114,2.9276,2.8842,2.7387,2.6447,2.5616,0.0,0.0,0.0,0.0,0.0,0.0,3.0815,3.0441,3.0236,3.0376,3.1126,3.1866,3.2471,3.4043,3.5068,3.5167,3.564,3.5544,3.4594,3.4083,3.3923,3.42,3.4728,3.5389,3.6225,3.7222,3.8057,3.8683,3.9968,4.0759,4.1081,4.2223,4.2763,4.286,4.2931,4.2854,4.2672,4.2228,4.187,4.1569,4.0748,3.9896,3.9094,3.8822,3.8314,3.7809,3.7809,3.7913,3.8019,3.7623,0.0,0.0,0.0,0.0,0.0,0.0,0.0,0.0,0.0,0.0,0.0,0.0,0.0,0.0,0.0,0.0,0.0,0.0,0.0,0.0,0.0,0.0,0.0,0.0,3.1748,3.3105,3.3593,3.4244,3.51,3.6293,3.7012,3.7567,3.8033,3.8418,3.8705,3.8816,3.9447,3.9897,4.0051,4.0267,4.0321,4.0187,3.9924,3.9371,3.851,3.828,3.7909,3.7373,3.7117,3.6697,3.616,3.5932,3.5259,3.4248,3.4248,3.3922,3.342,3.3319,3.3119,0.0,0.0,0.0,0.0,0.0,2.8171,2.6831,0.0,0.0,0.0,0.0,0.0,0.0,3.0241,3.0038,2.9865,2.991,3.0797,3.1887,3.2883,3.4059,3.5021,3.5534,3.5575,3.518,3.4257,3.3612,3.3895,3.5143,3.5558,3.6103,3.6837,3.7881,3.8651,3.9219,4.0438,4.1313,4.1796,4.2947,4.3585,4.3747,4.3571,4.3617,4.372,4.2613,4.21,4.206,4.1628,4.083,3.9805,3.9149,3.862,3.8213,3.8152,3.8257,3.8394,3.8335,0.0,0.0,0.0,0.0,0.0,0.0,0.0,0.0,0.0,0.0,0.0,0.0,0.0,0.0,0.0,0.0,0.0,0.0,0.0,0.0,0.0,0.0,0.0,0.0,3.304,3.4558,3.5845,3.6062,3.6482,3.7567,3.826,3.8769,3.9096,3.9861,4.0421,4.0729,4.1024,4.1172,4.1218,0.0,0.0,0.0,0.0,4.0188,3.9634,3.9064,3.871,3.8616,3.8037,3.7546,3.7108,3.6687,3.5876,3.4891,3.4891,3.4544,3.4022,3.4525,3.4424,3.3822,3.2139,3.1486,3.1461,3.1254,3.0226,2.8778,0.0,0.0,0.0,0.0,0.0,0.0,2.9961,2.9479,2.9542,3.0894,3.128,3.1798,3.271,3.3971,3.4762,3.4868,3.4955,3.4706,3.4,3.3537,3.4087,3.5812,3.5936,3.6689,3.8343,3.8374,3.8928,3.9969,4.1311,4.2238,4.2859,4.4571,4.5428,4.5444,4.504,4.4744,4.4428,4.3466,4.2942,4.2743,4.2129,4.1569,4.101,4.0351,4.01,4.01,3.9728,3.9616,3.9595,3.9154,3.9008,3.9042,3.9042,3.8806,0.0,0.0,0.0,0.0,0.0,0.0,0.0,0.0,0.0,0.0,0.0,0.0,0.0,0.0,0.0,0.0,0.0,0.0,0.0,3.3946,3.4802,3.5913,3.7663,3.8315,3.8695,3.8939,3.9481,4.0078,4.061,4.0819,4.0928,4.1017,4.1308,4.1626,4.1815,4.1626,4.1572,4.1652,4.1206,4.0729,4.0221,3.9648,3.8944,3.8118,0.0,0.0,3.7108,3.7396,3.6942,3.5973,3.5973,3.544,3.4575,3.4675,3.465,3.4399,3.2717,3.2064,3.1855,3.0343,3.0228,3.0661,0.0,0.0,0.0,0.0,0.0,0.0,2.9521,2.9118,2.9079,2.9859,3.05,3.1139,3.1893,3.2838,3.3491,3.3762,3.3525,3.3529,3.3872,3.3695,3.4441,3.6469,3.6675,3.7384,3.8785,3.8825,3.9336,4.0395,4.1709,4.2685,4.3462,4.5484,4.6454,4.6443,4.6016,4.5669,4.5375,4.3956,4.3236,4.3101,4.2693,4.2406,4.2076,4.0868,4.0544,4.0637,4.0045,3.998,4.0126,3.9829,3.9811,3.9845,3.9776,3.9665,3.9367,0.0,0.0,0.0,0.0,0.0,0.0,0.0,0.0,0.0,0.0,0.0,0.0,0.0,0.0,3.1164,3.1829,0.0,3.3738,3.4927,3.5954,3.6997,3.826,3.9183,3.9753,3.9753,4.0268,4.0846,4.1302,4.145,4.1632,4.1788,4.2085,4.2295,4.2439,4.2343,4.216,4.2005,4.2005,4.1748,4.1214,4.0918,4.0475,4.0002,3.9628,3.9084,3.8355,3.8536,3.8063,3.7108,3.7077,3.6747,3.6237,3.5684,3.5355,3.4981,3.3897,3.3294,3.295,3.1992,3.1704,3.1639,0.0,0.0,0.0,0.0,0.0,0.0,0.0,2.8949,2.88,2.8723,2.9527,3.0316,3.0861,3.1524,3.2096,3.2562,3.2213,3.2429,3.3406,3.3537,3.4483,3.6427,3.7076,3.7756,3.8569,3.9081,3.9751,4.0531,4.1827,4.292,4.3812,4.6016,4.7138,4.7128,4.6683,4.6357,4.6006,4.4222,4.3303,4.3123,4.2935,4.2841,4.2664,4.1159,4.0688,4.0745,4.0039,3.998,4.0191,4.0226,4.0331,4.0436,4.0296,4.0366,4.0224,3.8864,3.8928,0.0,0.0,0.0,0.0,0.0,0.0,0.0,0.0,3.1936,3.1585,3.1244,3.1376,3.1873,3.2883,3.3709,3.4567,3.5653,3.6814,3.779,3.858,3.9609,4.0358,4.0513,4.0974,4.1423,4.18,4.2072,4.2289,4.2555,4.2803,4.29,4.29,4.29,4.2683,4.2195,4.2629,4.2656,4.2168,4.2059,4.1958,4.1835,4.1361,4.0643,3.9738,3.9808,3.9315,3.8368,3.81,3.7926,3.7723,3.6851,3.6213,3.5747,3.5203,3.47,3.4198,3.4098,3.342,3.2414,0.0,0.0,0.0,0.0,0.0,0.0,0.0,0.0,2.8961,2.9407,2.9448,2.9608,3.0139,3.0811,3.1266,3.1393,3.1752,3.1994,3.1949,3.2572,3.3508,3.4813,3.6214,3.7257,3.7819,3.9037,3.984,4.0232,4.192,4.3175,4.4021,4.6301,4.747,4.7706,4.7303,4.6474,4.5361,4.4341,4.3394,4.2509,4.2462,4.2294,4.203,4.142,4.1235,4.1228,4.0471,4.0016,3.9803,3.9975,4.0156,4.0296,4.0086,4.0261,4.0351,3.9582,3.9428,3.9182,3.7861,3.6485,3.5532,3.5895,3.5175,3.4195,0.0,3.3713,3.3748,3.2486,3.3643,3.4848,3.4753,3.5672,3.6657,3.7323,3.758,3.8149,3.9473,4.0245,4.0958,4.1687,4.1869,4.2141,4.2689,4.2792,4.2819,4.2825,4.29,4.29,4.29,4.29,4.2846,4.2792,4.2846,4.2846,4.2792,4.2276,4.1815,4.1405,4.1194,4.083,4.0334,4.0749,4.0629,4.0059,3.9055,3.8318,3.775,3.7217,3.6985,3.6866,3.6395,3.583,3.5257,3.4781,3.4248,3.3721,0.0,0.0,0.0,0.0,0.0,0.0,0.0,0.0,0.0,2.9147,2.9052,2.9189,2.9622,2.9893,2.9919,2.9658,3.0143,3.0629,3.1091,3.1822,3.2963,3.4529,3.5228,3.6018,3.7041,3.778,3.8635,3.958,4.1093,4.244,4.3539,4.5298,4.6328,4.6695,4.6252,4.5845,4.5389,4.4006,4.3235,4.2889,4.225,4.1991,4.195,4.1212,4.0748,4.0382,3.9859,3.9616,0.0,3.9681,3.9749,3.9879,4.0104,4.0056,3.9757,3.8871,3.8439,3.805,3.6969,3.6085,3.5453,3.563,3.5308,3.4787,3.3919,3.4149,3.4313,3.3674,3.435,3.5281,3.6032,3.6409,3.6919,3.7846,3.7829,3.8123,3.936,4.0101,4.0736,4.1448,4.1645,4.1944,4.2358,4.2683,4.2738,4.2385,4.2683,4.29,4.29,4.29,4.29,4.29,4.29,4.29,4.29,4.2629,4.2424,4.2205,4.2154,4.1902,4.1394,4.1551,4.1341,4.0756,4.0328,3.9595,3.876,3.8576,3.8089,3.7453,3.7015,3.6815,3.6719,3.5587,3.4806,3.4374,0.0,0.0,0.0,0.0,0.0,0.0,0.0,0.0,0.0,0.0,2.9007,2.8961,2.9149,2.9116,2.8931,2.8546,2.9003,2.9632,3.0389,3.1178,3.2233,3.3633,3.4139,3.4842,3.5724,3.6334,3.7212,3.8319,3.9644,4.0938,4.2125,4.351,4.4413,4.4776,4.4717,4.4618,4.4558,4.3497,4.2998,4.2796,4.2019,4.1627,4.1454,4.0651,3.9832,3.9099,3.9073,3.9017,3.8918,3.8637,3.8766,3.9013,3.8968,3.8987,3.8853,3.8053,3.7411,3.6832,3.6277,3.5597,3.5083,3.5377,3.5259,3.4928,3.4364,3.462,3.4955,3.4846,3.5273,3.5992,3.7042,3.7042,3.7237,3.8081,3.8047,3.8368,3.9396,4.0059,4.0638,4.116,4.1357,4.1415,4.1308,4.21,4.2548,4.2276,4.2629,4.29,4.29,4.29,4.29,4.29,4.29,4.29,4.29,4.29,4.29,4.29,4.29,4.2679,4.2311,4.2295,4.1924,4.1354,4.1354,4.0842,3.9926,3.9627,3.9004,3.8169,3.7531,3.7407,3.7494,3.6509,3.5679,3.5133,0.0,0.0,0.0,0.0,0.0,0.0,0.0,0.0,0.0,0.0,0.0,0.0,0.0,2.8642,2.8522,2.8522,2.9003,2.9426,2.9701,3.0481,3.1076,3.1383,3.3019,3.3847,3.3701,3.4889,3.5771,3.6289,3.7505,3.8584,3.9561,4.0932,4.1755,4.2028,4.2721,4.2647,4.2151,4.2936,4.2708,4.1735,4.1705,4.1211,4.0382,3.9694,3.8581,3.7506,3.8397,3.8221,3.7418,3.6431,3.685,3.7575,3.61,3.6657,3.7789,3.7515,3.6663,3.5908,3.6131,3.4772,3.3641,3.5221,3.4893,3.4393,3.4926,3.5692,3.6178,3.5995,3.7059,3.7906,3.7714,3.7925,3.816,3.8187,3.8431,3.8961,3.9849,4.0456,4.0923,4.1165,4.1213,4.076,0.0,4.1046,4.2249,4.2819,4.2873,4.29,4.29,4.29,4.29,4.29,4.29,4.29,4.29,4.29,4.29,4.29,4.29,4.29,4.29,4.2873,4.2548,4.1978,4.1978,4.1652,4.0962,3.9953,3.9455,3.9329,3.8215,3.75,3.7155,3.7566,3.7111,3.6146,0.0,0.0,0.0,0.0,0.0,0.0,0.0,0.0,0.0,0.0,0.0,0.0,0.0,0.0,0.0,0.0,2.8667,2.8882,2.916,2.9935,3.0505,3.0771,3.1845,3.2705,3.3321,3.404,3.4851,3.5684,3.6405,3.7175,3.7936,3.8405,3.8929,3.9461,3.9674,3.976,3.9802,4.0629,4.0452,3.9658,3.9905,3.9547,3.8823,3.7796,3.7005,3.6342,0.0,3.5418,3.5289,3.5472,3.543,3.5346,3.5257,3.528,3.5139,3.4122,3.3971,3.4085,3.3835,3.3881,3.4302,3.5234,3.5548,3.5719,3.6209,3.6715,3.7126,3.7117,3.7354,3.7531,3.7687,3.7387,3.7184,3.7535,3.7591,3.8103,3.9559,3.9559,3.9874,4.1127,4.072,0.0,0.0,0.0,0.0,4.147,4.2343,4.29,4.29,4.29,4.2852,4.2658,4.2658,4.2533,4.2387,4.2387,4.2387,4.2387,4.2387,4.2484,4.2658,4.2658,4.2647,4.2602,4.2602,4.2249,4.1679,4.1302,4.0595,3.9639,3.8939,3.8418,3.8031,3.7526,3.735,3.7286,0.0,0.0,0.0,0.0,0.0,0.0,0.0,0.0,0.0,0.0,0.0,0.0,0.0,0.0,0.0,0.0,0.0,2.8028,2.8628,2.9189,2.9743,3.031,3.0817,3.1482,3.2196,3.2532,3.326,3.4502,3.5041,3.5756,3.6612,3.6528,3.686,3.7461,3.7304,3.7428,3.7855,3.871,3.8689,3.8154,3.8359,3.815,3.7634,3.6373,3.5433,0.0,3.3873,3.3138,3.2699,3.3461,3.3601,3.3468,3.344,3.3404,3.3282,3.2781,3.288,3.32,3.3483,3.4098,3.4929,3.5843,3.641,3.6787,3.7064,3.7315,3.7563,3.7896,3.7591,3.7418,3.788,3.7287,3.6944,3.7484,3.7571,3.8076,3.9506,3.9585,3.9852,4.0853,4.0477,4.0311,0.0,0.0,0.0,4.0917,4.1731,4.2258,4.2258,4.2258,4.2318,4.2338,4.2338,4.2289,4.2065,4.2065,4.2065,4.2065,4.2065,4.219,4.2338,4.2338,4.2221,4.2037,4.2442,4.2172,4.1443,4.1612,4.1167,4.0228,3.9495,3.8985,3.8549,3.788,3.7618,3.7572,0.0,0.0,0.0,0.0,0.0,0.0,0.0,0.0,0.0,0.0,0.0,0.0,0.0,0.0,0.0,0.0,0.0,0.0,2.8124,2.8254,2.8803,2.9888,3.0062,3.017,3.0361,3.0505,3.1278,3.2844,3.328,3.4132,3.5347,3.5162,3.5338,3.5783,3.5461,3.5561,3.6087,3.7038,3.7259,3.6967,3.7072,3.6949,3.663,3.5274,3.3981,3.2836,3.2938,3.161,2.9984,3.0658,3.1551,3.2137,3.0905,3.1187,3.2235,3.336,3.3333,3.3279,3.4915,3.5263,3.5529,3.6903,3.7369,3.7497,3.7497,3.7524,3.7659,3.819,3.7838,3.7594,3.8109,3.7558,3.7268,3.7886,3.8256,3.8831,3.9717,4.0329,4.0627,4.0409,4.0409,0.0,0.0,0.0,0.0,4.1165,0.0,4.1266,4.1266,4.1266,4.1506,4.2065,4.2065,4.2065,4.2065,4.2065,4.2065,4.2065,4.2065,4.2065,4.2065,4.2065,4.1528,4.0541,4.1634,4.1501,4.0514,4.1026,4.1239,4.1058,3.9914,3.9157,3.8705,3.8614,3.7965,3.7155,0.0,0.0,0.0,0.0,0.0,0.0,0.0,0.0,0.0,0.0,0.0,0.0,0.0,0.0,0.0,0.0,0.0,0.0,2.6956,2.7819,2.8156,2.783,2.9408,3.0211,2.9954,3.0626,3.1207,3.1689,3.1745,3.1829,3.1928,3.2149,3.2111,3.1861,3.216,3.2146,3.2006,3.3438,3.3541,3.2826,3.3881,3.4103,3.3748,3.3233,3.3104,3.3087,3.2503,3.1667,3.0854,3.0901,3.1199,3.1656,3.2006,3.2085,3.2098,3.2304,3.2909,3.3651,3.4312,3.5393,3.6551,3.7384,3.7615,3.7571,3.7193,3.7448,3.751,3.6759,3.6454,3.6216,3.5791,3.5427,3.5547,3.6596,3.6897,3.759,3.9084,3.9265,3.9516,4.0305,4.0409,4.054,4.0853,4.106,0.0,0.0,4.1417,4.1852,4.1852,4.1852,4.1834,4.1796,4.1796,4.1696,4.1498,4.1498,4.1498,4.1498,4.1498,4.1597,4.1796,4.1796,4.1785,4.1688,4.1959,4.1955,4.1688,4.1799,4.1515,4.0848,4.0557,3.9707,3.8684,3.8693,3.824,3.769,0.0,0.0,0.0,0.0,0.0,0.0,0.0,0.0,0.0,0.0,0.0,0.0,0.0,0.0,0.0,0.0,0.0,0.0,0.0,2.6899,2.7141,2.6679,2.8041,2.868,2.8365,2.9249,3.0008,3.0557,3.0809,3.1009,3.1111,3.0992,3.0887,3.0722,3.0487,3.0409,3.0507,3.1216,3.1485,0.0,0.0,3.2541,3.2936,3.2579,3.2568,3.2698,3.242,3.1988,3.1626,3.198,3.1811,3.1596,3.2415,3.2294,3.2071,3.271,3.3436,3.4224,3.5257,3.6359,3.735,3.8042,3.8104,3.7792,3.7131,3.6788,3.6409,3.5752,3.5139,3.4781,3.4777,3.4507,3.4725,3.6182,3.64,3.7076,3.8958,3.9362,3.9881,4.093,4.1448,4.1785,4.1963,4.1967,4.1637,0.0,4.1176,4.135,4.135,4.135,4.1433,4.1498,4.1498,4.1448,4.1324,4.1324,4.1324,4.1324,4.1324,4.1374,4.1498,4.1498,4.1334,4.1006,0.0,4.1455,4.1033,4.1535,4.1462,4.0999,4.0736,4.0079,3.9192,3.8956,3.851,3.8057,0.0,0.0,0.0,0.0,0.0,0.0,0.0,0.0,0.0,0.0,0.0,0.0,0.0,0.0,0.0,0.0,0.0,0.0,0.0,0.0,2.6113,2.6113,2.6547,2.6689,2.64,2.7474,2.8445,2.9326,3.0188,3.0854,3.1241,3.0771,3.0669,3.0823,2.9827,2.975,3.0368,2.9944,3.0513,3.1539,3.114,3.1774,3.2916,0.0,3.2293,3.214,3.2498,3.2495,3.2437,3.3323,3.2832,3.2036,3.2663,3.2485,3.2301,3.3733,3.4384,3.4989,3.6683,3.7431,3.7865,3.8595,3.8478,3.7957,3.7057,3.5891,3.4989,3.4911,3.3967,3.3473,3.4399,3.4206,3.4477,3.6198,3.6329,3.6967,3.897,3.9979,4.0814,4.1778,4.2722,4.3222,4.3026,4.2807,4.2323,4.1547,4.0877,4.054,4.054,4.054,4.0775,4.1298,4.1324,4.1324,4.1324,4.1324,4.1324,4.1324,4.1324,4.1324,4.1324,4.1324,4.0775,3.9886,4.088,4.0749,3.9913,4.0906,4.1324,4.1272,4.0749,4.0267,3.9828,3.9401,3.8794,3.8304,0.0,0.0,0.0,0.0,0.0,0.0,0.0,0.0,0.0,0.0,2.6665,2.5709,0.0,0.0,0.0,0.0,0.0,0.0,0.0,0.0,0.0,2.5611,2.6381,2.6524,2.5944,2.7353,2.806,2.7936,2.9139,2.9611,2.9476,2.9945,2.9812,2.9166,2.953,2.9548,2.9298,2.9654,2.9848,2.9954,3.0529,3.0884,3.1229,3.185,0.0,0.0,3.2326,3.2784,3.345,3.3543,3.3294,3.309,3.4058,3.4064,3.3704,3.3972,3.4899,3.5887,3.6201,3.7004,3.7828,3.7978,3.7558,3.7022,3.6496,3.5502,3.4503,3.3807,3.3183,3.2843,3.3317,3.3675,3.4341,3.5655,3.5936,3.6596,3.8308,3.9563,4.0666,4.1679,4.2722,4.35,4.4022,4.2759,0.0,0.0,4.169,4.1167,4.1167,4.1167,4.1219,4.1324,4.1324,4.1324,4.1324,4.1324,4.1324,4.1324,4.1324,4.1324,4.1324,4.1324,4.1219,4.1036,4.1219,0.0,4.1036,4.1246,4.1324,4.1298,4.1193,4.0634,3.9881,3.9823,3.923,3.8557,0.0,0.0,0.0,0.0,0.0,0.0,0.0,0.0,2.82,2.7674,2.656,2.587,2.5913,2.5509,0.0,0.0,0.0,0.0,0.0,0.0,0.0,0.0,2.5883,2.6008,2.4978,2.6935,2.7829,2.7506,0.0,2.9798,2.944,2.9874,2.9741,2.9132,2.9495,2.9636,2.9566,2.9557,2.9892,3.0432,3.0377,3.0669,3.1229,0.0,0.0,0.0,3.2988,3.3284,3.4011,3.3752,3.3649,3.3783,3.4459,3.4439,3.4047,3.3793,3.4675,3.5727,3.5797,3.6599,3.7422,3.7384,3.7168,3.6467,3.4933,3.4153,3.3415,3.2371,3.1954,3.1961,3.2533,3.2833,3.3512,3.4965,3.5358,3.6186,3.8351,3.9947,4.1402,4.2697,4.4033,4.4789,4.4583,4.3828,4.3083,4.2351,4.231,4.2011,4.1348,4.1324,4.1324,4.1324,4.1324,4.1324,4.1324,4.1324,4.1324,4.1324,4.1324,4.1324,4.1324,4.1324,4.1324,4.1324,4.1324,4.0984,4.0461,4.1063,4.0958,4.0488,4.1089,4.0788,4.0097,4.0097,3.9541,3.88,0.0,0.0,0.0,0.0,0.0,0.0,0.0,2.8318,2.8098,2.7437,2.6642,2.6309,2.6686,2.6122,2.5608,0.0,0.0,0.0,0.0,0.0,0.0,0.0,0.0,0.0,2.4658,0.0,0.0,2.7619,2.9441,0.0,0.0,0.0,0.0,0.0,2.9971,3.0148,3.0325,2.9962,3.037,0.0,0.0,3.0887,0.0,0.0,0.0,0.0,0.0,3.3598,3.4063,3.381,3.3852,3.4063,3.4439,3.4314,3.392,3.3623,3.4328,3.5307,3.5436,3.6128,3.6765,3.6812,3.6701,3.6067,3.4135,3.328,3.2618,3.1733,3.1235,3.1288,3.2235,3.2409,3.3016,3.5006,3.5063,3.5948,3.894,4.0594,4.2119,4.3795,4.5316,0.0,4.5405,4.4996,0.0,4.2766,4.3166,4.2968,4.172,4.1647,4.1498,4.1324,4.1324,4.1324,4.1324,4.1324,4.1324,4.1324,4.1324,4.1324,4.1324,4.1324,4.1324,4.1324,4.1324,4.0671,3.9703,4.0853,4.0644,3.973,4.0853,4.0886,4.0287,4.0287,3.9726,3.8997,0.0,0.0,0.0,0.0,0.0,0.0,0.0,2.9371,2.9005,2.8045,2.7594,2.729,2.7177,2.5965,2.5176,0.0,0.0,0.0,0.0,0.0,0.0,0.0,0.0,0.0,0.0,0.0,0.0,2.8299,2.9474,0.0,0.0,0.0,0.0,0.0,0.0,3.1483,3.1188,3.1325,0.0,0.0,0.0,0.0,0.0,0.0,0.0,0.0,0.0,3.3471,3.3283,3.3598,3.3725,3.381,3.4063,3.3937,3.3743,3.3846,3.4397,3.4986,3.5333,3.5519,3.5788,3.6251,3.5923,3.5641,3.5949,3.4409,3.2952,3.3138,3.2006,3.1393,3.2776,3.3033,3.3841,3.648,3.555,3.5991,4.0134,4.0996,4.2009,4.4206,4.5552,0.0,4.703,4.5683,4.4993,4.5409,4.4691,4.3787,4.2695,4.2647,4.2235,4.1324,4.1324,4.1324,4.1324,4.1324,4.1324,4.1324,4.1324,4.1324,4.1324,4.1324,4.1324,4.1324,4.1324,4.0671,0.0,4.0853,4.0644,3.973,4.0853,4.0886,4.0287,4.0287,3.9865,3.9247,0.0,0.0,0.0,0.0,0.0,0.0,0.0,2.9504,2.9137,2.8103,2.7612,2.7174,2.6795,2.6285,2.595,0.0,0.0,0.0,0.0,0.0,0.0,0.0,0.0,0.0,0.0,0.0,2.8227,2.8773,2.9961,0.0,0.0,0.0,0.0,0.0,0.0,3.1817,3.1669,3.1633,0.0,0.0,0.0,0.0,0.0,0.0,0.0,0.0,0.0,0.0,3.381,3.3428,3.3513,3.3564,3.2963,3.2904,3.2979,3.2668,3.3081,3.3629,3.3503,3.4464,3.5451,3.535,3.5654,3.577,3.4937,3.4059,3.3193,3.2645,3.1871,3.1511,3.2085,3.2397,3.3009,3.4451,3.4651,3.597,3.9763,4.1283,4.294,4.5402,4.6539,4.6989,4.6711,0.0,4.5825,4.6091,4.5183,4.4607,4.461,4.3436,4.2598,4.2235,4.1647,4.1324,4.1324,4.1324,4.1324,4.1324,4.1918,4.2186,4.2186,4.2186,4.2186,4.2186,4.2186,4.0808,0.0,4.1196,4.0781,3.8762,4.0592,4.0886,4.0287,4.0287,3.9865,3.9292,0.0,0.0,0.0,0.0,0.0,3.0055,2.9573,2.9504,2.9183,2.831,2.7801,2.7405,2.6996,2.6892,2.6789,2.6508,0.0,0.0,0.0,0.0,0.0,0.0,0.0,0.0,0.0,0.0,2.7987,2.8631,2.9745,3.0738,0.0,0.0,3.189,3.1706,0.0,0.0,0.0,0.0,0.0,0.0,0.0,0.0,0.0,0.0,0.0,0.0,0.0,0.0,0.0,0.0,0.0,3.3327,3.2247,3.2031,3.212,3.1772,3.2106,3.2536,3.26,3.3809,3.5006,3.4931,3.5429,3.5546,3.4292,3.3683,3.3193,3.2306,3.1838,3.169,3.2019,3.2309,3.2908,3.4164,3.4815,3.6335,3.9762,4.1336,4.3053,4.5636,4.6552,4.6894,4.6621,4.6621,4.6621,4.6621,4.5959,4.5742,4.6226,4.461,4.3531,4.3273,4.2284,4.1868,4.2164,4.1868,4.172,4.172,4.2479,4.2602,4.2229,4.2917,4.3006,4.2704,4.306,4.1746,0.0,4.1835,4.1437,3.9432,4.1099,4.1443,4.1055,4.1055,4.0568,3.9881,0.0,0.0,0.0,0.0,0.0,0.0,0.0,2.9504,2.9297,2.8769,2.8457,2.824,2.8008,2.7877,2.7445,2.6599,0.0,0.0,0.0,0.0,0.0,0.0,0.0,0.0,0.0,0.0,2.6372,2.7719,2.8511,2.9616,3.0932,3.1763,3.2109,3.189,0.0,0.0,0.0,0.0,0.0,0.0,0.0,0.0,0.0,0.0,0.0,0.0,0.0,0.0,0.0,0.0,0.0,0.0,0.0,3.1531,3.1207,3.159,3.1788,3.2197,3.3361,3.3817,3.4173,3.5232,3.5082,3.4726,3.47,3.3723,3.2767,3.2604,3.2064,3.1909,3.2967,3.3178,3.4098,3.6896,3.6693,3.7317,4.0634,4.1058,4.1883,4.4225,4.5168,4.6082,4.716,4.7309,4.7309,4.7309,4.7279,0.0,4.7266,4.6299,4.5326,4.4312,4.3321,4.3273,4.4266,4.3273,4.2792,4.2792,4.2792,4.2072,4.0896,4.324,4.3592,4.2379,0.0,4.361,0.0,4.2704,4.27,4.2598,4.2712,4.2766,4.2754,4.2754,4.2136,4.1281,0.0,0.0,0.0,0.0,0.0,0.0,0.0,2.9986,2.9802,2.932,2.9157,2.8833,2.81,2.8253,2.8083,2.729,0.0,0.0,0.0,0.0,0.0,0.0,0.0,0.0,0.0,0.0,2.6995,2.7719,2.8213,2.8948,2.9843,3.1048,3.1549,3.1514,3.1992,3.2146,0.0,0.0,0.0,0.0,0.0,0.0,0.0,0.0,0.0,0.0,0.0,0.0,0.0,0.0,0.0,0.0,0.0,0.0,0.0,3.11,3.0904,3.0991,3.1886,3.2743,3.352,3.4248,3.4575,3.476,3.4974,3.4098,3.319,3.312,3.2508,3.2164,3.2692,3.301,3.3959,3.6307,3.6507,3.7669,4.1512,4.2289,4.343,4.5902,4.6539,4.6873,4.7249,4.689,4.683,4.7279,4.689,4.683,4.7279,4.6344,4.5644,4.5326,4.4359,4.3984,4.4312,4.3984,4.3843,4.3843,4.4517,4.414,4.2887,4.4571,4.4592,0.0,0.0,4.4293,4.2705,4.4237,4.3947,4.266,4.299,4.3006,4.2741,4.2288,4.1781,4.1281,0.0,0.0,0.0,0.0,0.0,0.0,0.0,3.0216,3.0101,2.9802,2.978,2.9458,2.8654,2.8902,2.8714,2.7782,0.0,0.0,0.0,0.0,0.0,0.0,0.0,0.0,0.0,2.6839,2.6916,2.7162,2.7668,2.8119,2.8518,2.9936,3.0547,3.0574,3.1235,3.1639,0.0,0.0,0.0,0.0,0.0,0.0,3.2436,0.0,0.0,0.0,0.0,0.0,0.0,0.0,0.0,0.0,0.0,0.0,0.0,0.0,3.0678,3.0548,3.1195,3.2215,3.3212,3.3712,3.4262,3.4717,3.4821,3.4073,3.333,3.3302,3.2896,3.2654,3.3171,3.3627,3.4519,3.6166,3.685,3.8205,4.12,4.1906,4.2985,4.5415,4.6202,4.6741,4.7249,4.692,4.686,4.7279,4.692,4.686,4.7279,4.6726,4.6344,4.6344,4.5372,4.5052,4.5417,4.5052,4.4869,4.4869,4.5508,4.5111,4.3878,4.5581,4.5639,0.0,4.5786,4.5639,0.0,4.5415,4.508,4.3992,4.3922,4.3684,4.3314,4.2909,4.2444,4.2058,0.0,0.0,0.0,0.0,0.0,0.0,0.0,0.0,0.0,3.0397,3.0397,3.0212,2.9818,2.988,2.9485,0.0,0.0,0.0,0.0,0.0,0.0,0.0,0.0,0.0,0.0,2.665,2.6391,2.6353,2.6975,2.7225,2.7225,2.861,2.9302,2.9328,3.0108,3.0798,0.0,0.0,0.0,0.0,3.2596,3.2596,0.0,0.0,0.0,0.0,0.0,0.0,0.0,0.0,0.0,0.0,0.0,0.0,0.0,0.0,0.0,0.0,0.0,3.2156,3.3096,3.3479,3.4016,3.4427,3.435,3.3739,0.0,3.3381,3.3311,3.3505,3.4214,3.5014,3.5756,3.6502,3.7738,3.8962,4.0104,4.0471,4.1365,4.3344,4.4708,4.5873,4.704,4.7249,4.7309,4.7309,4.7309,4.7309,4.7309,4.7309,4.7309,4.7309,4.6388,4.6344,4.7309,4.6344,4.5884,4.5797,4.5884,4.5171,4.3848,4.6235,4.6561,0.0,4.6711,4.7309,4.7193,4.6241,4.602,4.6207,4.5156,4.4579,4.4317,4.4257,4.3828,4.329,0.0,0.0,0.0,0.0,0.0,0.0,0.0,0.0,0.0,0.0,3.2345,3.2296,3.2173,3.1564,3.0974,0.0,0.0,0.0,0.0,0.0,0.0,0.0,0.0,0.0,0.0,2.7567,2.7204,2.6932,2.6967,2.6941,2.6857,2.8221,2.9108,2.9557,3.0635,3.1422,3.2001,0.0,0.0,0.0,3.2846,3.2917,0.0,0.0,0.0,0.0,3.3721,3.3939,0.0,0.0,0.0,0.0,0.0,0.0,0.0,0.0,3.1637,3.1216,3.1233,0.0,3.1912,3.2281,3.2838,3.3405,0.0,3.3369,3.2978,3.42,3.4634,3.4848,3.4946,3.6904,3.8377,3.81,3.8723,3.9702,4.0878,4.25,4.3563,4.3478,4.5465,4.6561,4.5843,4.6711,4.7309,4.7309,4.7309,4.7309,4.7309,4.7309,4.7309,4.7309,4.7062,4.7062,4.7309,4.7062,4.644,4.5416,4.6426,4.5713,4.3504,4.6105,4.6561,4.5364,4.6711,4.7309,4.7236,4.6483,4.6228,4.619,4.4906,4.4381,4.4257,4.3708,4.3439,4.329,0.0,0.0,0.0,0.0,0.0,0.0,0.0,0.0,0.0,0.0,0.0,0.0,0.0,0.0,0.0,0.0,0.0,0.0,0.0,0.0,0.0,0.0,0.0,0.0,2.8339,2.8155,2.7852,2.7394,2.7217,2.6955,2.6663,2.8023,2.8803,2.9132,3.0628,3.1477,3.1838,3.2307,3.2561,3.2596,3.2952,0.0,0.0,0.0,0.0,0.0,3.3711,3.3913,0.0,3.4897,3.4771,3.4397,0.0,0.0,0.0,0.0,3.2304,3.1661,3.1596,3.1425,3.1451,3.2071,3.2854,3.3616,3.4326,3.376,3.363,3.5487,3.5264,3.5045,3.602,3.7223,3.8039,3.8039,3.8354,3.921,4.1031,4.3054,4.4146,4.3617,4.4738,4.5507,4.5304,4.6501,4.7309,4.7309,4.7309,4.7309,4.7309,4.7309,4.7309,4.7309,4.7309,4.7309,4.7309,4.7309,4.6621,4.5304,4.6651,4.6232,4.4317,4.6381,4.689,4.6232,4.6322,4.6561,4.677,4.5813,4.5394,4.5334,4.4586,4.4137,4.3798,4.3409,4.329,4.329,0.0,0.0,0.0,0.0,0.0,0.0,0.0,0.0,0.0,0.0,0.0,0.0,0.0,0.0,0.0,0.0,0.0,0.0,0.0,0.0,0.0,0.0,0.0,2.8555,2.8522,2.8522,2.8258,2.769,2.7439,2.7052,2.6566,2.7776,2.8492,2.8794,3.0619,3.1422,3.1485,3.2341,3.2596,3.2489,3.3051,0.0,0.0,0.0,0.0,0.0,0.0,0.0,0.0,3.4954,3.5168,3.5086,3.5086,0.0,0.0,0.0,0.0,0.0,3.218,3.1731,3.1435,3.2296,3.3221,3.4073,3.4669,3.4256,3.4437,3.6782,3.592,3.5317,3.7198,3.7477,3.7443,3.7488,3.7829,3.8839,4.0898,4.297,4.4113,4.3705,4.3927,4.4449,4.5256,4.6501,4.7309,4.7309,4.7309,4.7309,4.7309,4.7309,4.7309,4.7309,4.7309,4.7309,4.7309,4.7309,4.6621,4.5304,4.6651,4.6591,4.5334,4.6681,4.7309,4.7249,0.0,0.0,4.619,4.4855,4.4317,4.4317,4.4197,4.3798,4.329,4.329,4.329,4.329,0.0,0.0,0.0,0.0,0.0,0.0,0.0,0.0,0.0,0.0,0.0,0.0,0.0,0.0,0.0,0.0,0.0,0.0,0.0,0.0,0.0,0.0,2.9135,2.8712,2.8483,2.8522,2.8258,2.769,2.7196,2.6692,2.6177,2.6843,2.8206,3.0151,3.1487,3.2083,3.2083,3.2533,3.2668,3.2704,3.3122,0.0,0.0,0.0,0.0,0.0,0.0,0.0,0.0,3.5359,3.5386,3.5086,3.5086,0.0,0.0,0.0,0.0,0.0,3.3014,3.2337,3.1697,3.2342,3.2581,3.3031,3.448,3.4028,3.4164,3.7253,3.7779,3.7853,3.8118,4.0527,4.1387,3.8014,3.9296,4.071,4.071,4.3452,4.4941,4.3519,4.5376,4.6364,4.5394,4.6501,4.7309,4.7309,4.7309,4.7309,4.7309,4.7309,4.7309,4.7309,4.7309,4.7309,4.7309,4.7309,4.6621,4.5304,4.6651,4.6591,4.5334,4.6681,4.7309,4.7249,0.0,4.619,4.619,4.4855,4.4317,4.4257,4.3678,4.3379,4.329,4.329,4.329,4.329,0.0,0.0,0.0,0.0,0.0,0.0,0.0,0.0,0.0,0.0,0.0,0.0,0.0,0.0,0.0,0.0,0.0,0.0,0.0,0.0,0.0,3.0167,3.0626,3.0204,2.8753,2.8299,2.7969,2.769,2.7162,2.6753,2.655,2.741,2.8955,3.0997,3.1473,3.1873,3.2336,3.2453,3.2668,3.2881,0.0,0.0,0.0,0.0,0.0,0.0,0.0,0.0,0.0,0.0,3.5305,3.5426,3.5426,0.0,0.0,0.0,0.0,0.0,3.3728,3.3641,3.3716,3.4744,3.4431,3.4499,3.668,3.5955,3.5662,3.8684,3.7961,3.7211,3.8702,3.9684,4.0013,3.9109,4.1184,4.2931,4.2924,4.4578,4.5505,4.4699,4.565,4.6119,4.5364,4.6501,4.7309,4.7309,4.7309,4.7309,4.7309,4.7309,4.7309,4.7309,4.7309,4.7309,4.7309,4.7309,4.6621,4.5304,4.6651,4.6591,4.5334,4.6681,4.7309,4.7219,0.0,4.5424,4.5633,4.3958,4.3479,4.3708,4.3409,4.329,4.329,4.329,4.329,4.329,0.0,0.0,0.0,0.0,0.0,0.0,0.0,0.0,0.0,0.0,0.0,0.0,0.0,0.0,0.0,0.0,0.0,0.0,0.0,0.0,3.2404,3.1097,3.2014,3.1365,2.8739,2.8306,2.7893,2.7459,2.697,2.6777,2.6898,2.8049,2.9441,3.1033,3.1182,3.1589,3.2173,3.2453,3.2739,3.2988,0.0,0.0,0.0,0.0,0.0,0.0,0.0,0.0,0.0,0.0,0.0,0.0,0.0,0.0,0.0,3.5249,3.4821,3.4366,3.4578,3.4865,3.5469,3.7025,3.6294,3.5894,3.86,3.7623,3.7028,3.995,3.8372,3.7138,3.9477,3.8688,3.8315,4.0243,4.2504,4.4226,4.489,4.5737,4.6241,4.6075,4.6033,4.595,4.5753,4.6711,4.7309,4.7309,4.7309,4.7309,4.7309,4.7309,4.7309,4.7309,4.7309,4.7309,4.7309,4.7309,4.677,4.5783,4.68,4.677,4.5813,4.683,4.7219,4.698,4.5274,4.4736,4.4945,4.3269,4.288,4.329,4.329,4.329,4.329,4.329,4.329,4.329,0.0,0.0,0.0,0.0,0.0,0.0,0.0,0.0,0.0,0.0,0.0,0.0,0.0,0.0,0.0,0.0,0.0,0.0,0.0,0.0,3.2943,3.2825,3.2668,3.1149,2.8056,2.891,2.8488,2.6681,2.6319,2.643,2.6898,2.8049,2.8935,2.9613,3.0921,3.1516,3.1626,3.2533,3.2988,3.3023,3.3192,0.0,0.0,0.0,0.0,0.0,0.0,0.0,0.0,0.0,0.0,0.0,0.0,0.0,3.5669,3.5669,3.5223,3.4932,3.569,3.548,3.5614,3.7754,3.6781,3.5996,3.8597,3.7592,3.7035,4.0382,4.0244,3.9889,4.0898,3.9531,3.9001,4.1224,4.2455,4.3598,4.5098,4.6533,4.7387,4.7203,4.716,4.716,4.716,4.7249,4.7309,4.7309,4.7309,4.7309,4.7309,4.7309,4.7309,4.7309,4.7309,4.7309,4.7309,4.7309,4.7249,4.716,4.7249,4.7249,4.716,4.7249,4.698,4.6309,4.5574,4.4915,4.4317,4.3529,4.326,4.329,4.329,4.329,4.329,4.329,4.329,4.329,0.0,0.0,0.0,0.0,0.0,0.0,0.0,0.0,0.0,0.0,0.0,0.0,0.0,0.0,0.0,0.0,0.0,0.0,0.0,0.0,3.4271,3.3411,3.4117,3.2735,2.8858,2.9135,2.8411,2.6609,2.6247,2.6382,2.6898,2.8049,2.9139,3.0203,3.1082,3.1846,3.2426,3.2561,3.2846,3.3157,3.3016,3.3086,0.0,0.0,0.0,0.0,0.0,0.0,0.0,0.0,3.4757,3.5181,3.5601,3.571,3.571,3.571,3.5547,3.5516,3.6353,3.6448,3.6859,3.9073,3.8146,3.7312,3.9854,3.9214,3.8715,4.1076,4.0045,3.8645,3.8595,3.9325,4.0436,4.1995,4.3594,4.5092,4.6364,4.7066,4.7396,4.7309,4.7309,4.7309,4.7309,4.7309,4.7309,4.7309,4.7309,4.7309,4.7309,4.7309,4.7309,4.7309,4.7309,4.7309,4.7309,4.7309,4.7309,4.7309,4.7309,4.7309,4.7309,4.689,4.6561,4.6219,4.5155,4.4556,4.4257,4.3559,4.329,4.329,4.329,4.329,4.329,4.329,4.329,4.329,0.0,0.0,0.0,0.0,0.0,0.0,0.0,0.0,0.0,0.0,0.0,0.0,0.0,0.0,0.0,0.0,0.0,0.0,3.571,3.571,3.5278,3.4325,3.5211,3.4124,3.0751,3.0618,2.9504,2.7339,2.7383,2.7668,2.8113,2.8787,2.9555,3.0336,3.1188,3.1884,3.2357,3.2585,3.2909,3.329,3.3016,3.3051,0.0,0.0,0.0,0.0,0.0,0.0,0.0,0.0,3.417,3.4612,3.5209,3.5398,3.5425,3.5655,3.5734,3.5873,3.6493,3.6921,3.7546,3.9108,3.8446,3.8069,4.0527,4.006,3.9534,4.1182,4.0353,3.9143,3.8232,3.9748,4.1526,4.2625,4.4118,4.5668,4.71,4.7309,4.7309,4.7309,4.7309,4.7309,4.7309,4.7309,4.7309,4.7309,4.7309,4.7309,4.7309,4.7309,4.7309,4.7309,4.7309,4.7309,4.7309,4.7309,4.7309,4.7309,4.71,4.698,4.698,4.6488,4.6082,4.5633,4.4706,4.4197,4.3917,4.3469,4.329,4.329,4.329,4.329,4.329,4.329,4.329,4.329,0.0,0.0,0.0,0.0,0.0,0.0,0.0,0.0,0.0,0.0,0.0,0.0,0.0,0.0,0.0,0.0,0.0,0.0,3.571,3.571,3.571,3.571,3.571,3.505,3.363,3.3604,3.2049,2.891,2.9896,3.0507,3.067,3.0431,3.011,2.9792,3.1176,3.146,3.1047,3.2596,3.329,3.329,3.329,3.329,3.329,0.0,0.0,0.0,0.0,0.0,0.0,0.0,3.3581,3.4016,3.4585,3.4775,3.491,3.552,3.5762,3.592,3.6071,3.6687,3.7331,3.7453,3.7364,3.7842,4.0284,3.9854,3.9238,4.0426,4.1716,4.2152,4.0673,4.1115,4.2092,4.315,4.3858,4.5035,4.704,4.7309,4.7309,4.7309,4.7309,4.7309,4.7309,4.7309,4.7309,4.7309,4.7309,4.7309,4.7309,4.7309,4.7309,4.7309,4.7309,4.7309,4.7309,4.7309,4.7309,4.7279,4.6621,4.6279,4.6279,4.6279,4.5574,4.4317,4.4317,4.3888,4.329,4.329,4.329,4.329,4.329,4.329,4.329,4.329,4.329,4.329,0.0,0.0,0.0,0.0,0.0,0.0,0.0,0.0,0.0,0.0,0.0,0.0,0.0,0.0,0.0,0.0,0.0,0.0,3.571,3.571,3.571,3.571,3.571,3.505,3.363,3.3604,3.2536,3.036,3.0381,3.0725,3.1343,3.1066,3.1325,3.1994,3.1883,3.2101,3.2596,3.2967,3.3157,3.329,3.3157,3.3157,3.329,0.0,0.0,0.0,0.0,0.0,0.0,0.0,0.0,0.0,3.4027,3.4179,3.4287,3.4883,3.4769,3.483,3.6372,3.5909,3.5477,3.7557,3.7203,3.6645,3.7691,3.8741,3.9666,4.0327,4.077,4.077,3.9858,4.1811,4.3609,4.3958,4.5364,4.6621,4.7219,4.7309,4.7309,4.7309,4.7309,4.7309,4.7309,4.7309,4.7309,4.7309,4.7309,4.7309,4.7309,4.7309,4.7309,4.7309,4.7309,4.7309,4.7309,4.686,4.6621,4.6621,4.5933,4.5843,4.6249,4.5334,4.4706,4.4287,4.3798,4.3469,4.329,4.329,4.329,4.329,4.329,4.329,4.329,4.329,4.329,4.329,0.0,0.0,0.0,0.0,0.0,0.0,0.0,0.0,0.0,0.0,3.571,3.571,0.0,0.0,0.0,0.0,0.0,0.0,0.0,0.0,3.571,3.571,3.571,3.5305,3.4459,3.4206,3.3675,3.2869,3.2384,3.2472,3.31,3.2299,3.2351,3.3019,3.2412,3.2374,3.2716,3.301,3.3157,3.3192,3.3157,3.3192,3.329,0.0,0.0,0.0,0.0,0.0,0.0,0.0,0.0,0.0,3.3441,3.3718,3.3989,3.4341,3.4574,3.5013,3.605,3.5804,3.5759,3.777,3.7255,3.6481,3.7188,3.8327,3.9397,4.0217,4.0816,4.1055,4.0666,4.2851,4.4796,4.5065,4.6352,4.7309,4.7309,4.7309,4.7309,4.7309,4.7309,4.7309,4.7309,4.7309,4.7309,4.7309,4.7309,4.7309,4.7309,4.7309,4.7309,4.7309,4.704,4.692,4.692,4.6262,4.5903,4.5903,4.5214,4.5125,4.5484,4.4676,4.4167,4.3898,4.3469,4.329,4.329,4.329,4.329,4.329,4.329,4.329,4.329,4.329,4.329,4.329,0.0,0.0,3.571,3.571,0.0,0.0,0.0,0.0,0.0,0.0,3.571,3.571,0.0,0.0,0.0,0.0,0.0,0.0,0.0,0.0,3.571,3.571,3.571,3.571,3.571,3.5154,3.5127,3.571,3.51,3.5026,3.5443,3.3929,3.3257,3.3266,3.2894,3.2463,3.2048,3.2926,3.3192,3.3023,3.3227,3.329,3.329,3.329,0.0,0.0,0.0,0.0,0.0,0.0,0.0,0.0,3.288,3.3349,3.3772,3.3799,3.4827,3.5841,3.5398,3.606,3.7107,3.7872,3.7397,3.7007,3.8217,3.8422,3.8781,4.0127,4.1354,4.2261,4.244,4.4018,4.5544,4.6249,4.692,4.7309,4.7309,4.7309,4.7309,4.7309,4.7309,4.7309,4.7309,4.7309,4.7309,4.7309,4.7309,4.7309,4.7309,4.7249,4.7219,4.7219,4.6561,4.619,4.619,4.5544,4.5214,4.5185,4.4526,4.4227,4.4227,4.4227,4.3898,4.329,4.329,4.329,4.329,4.329,4.329,4.329,4.329,4.329,4.329,4.329,4.329,4.329,0.0,0.0,3.571,3.571,0.0,0.0,0.0,0.0,0.0,0.0,0.0,0.0,0.0,0.0,0.0,0.0,0.0,0.0,0.0,0.0,3.571,3.571,3.571,3.571,3.571,3.5601,3.5601,3.571,3.51,3.5204,3.5946,3.4635,3.4365,3.4841,3.3584,3.3068,3.3228,3.3289,3.3192,3.3023,3.3227,3.329,3.329,3.329,3.329,0.0,0.0,0.0,0.0,0.0,0.0,0.0,3.2427,3.2453,3.2643,3.3105,3.3919,3.4846,3.5547,3.5161,3.5001,3.6622,3.6767,3.7023,3.8781,3.8781,3.8781,4.0127,4.0636,4.1294,4.2851,4.4317,4.5693,4.689,4.7219,4.7309,4.7309,4.7309,4.7309,4.7309,4.7309,4.7309,4.7309,4.7309,4.7309,4.7309,4.7309,4.7309,4.7309,4.68,4.6531,4.6531,4.5873,4.5514,4.5514,4.4855,4.4526,4.4526,4.3828,4.3499,4.3499,4.3499,4.3439,4.329,4.329,4.329,4.329,4.329,4.329,4.329,4.329,4.329,4.329,4.329,4.329,4.329,0.0,0.0,0.0,0.0,0.0,0.0,0.0,0.0,0.0,0.0,0.0,0.0,0.0,0.0,0.0,0.0,3.571,0.0,0.0,0.0,0.0,0.0,3.571,3.571,3.571,0.0,0.0,3.571,3.5371,3.5558,3.6058,3.5049,3.4854,3.5344,3.4168,3.3542,3.3468,3.3565,3.3294,3.2881,3.3157,3.329,3.329,3.329,3.329,3.329,3.329,0.0,0.0,0.0,0.0,0.0,0.0,0.0,3.2653,3.2653,3.3394,3.4405,3.5282,3.5438,3.5718,3.7169,3.7713,3.8063,3.8781,3.8901,3.908,3.9798,4.0187,4.0995,4.2931,4.4137,4.5364,4.704,4.7309,4.7309,4.7309,4.7309,4.7309,4.7309,4.7309,4.7309,4.7309,4.701,4.683,4.683,4.6531,4.6352,4.6352,4.6022,4.5843,4.5843,4.5185,4.4825,4.4825,4.4167,4.3798,4.3838,4.3469,4.329,4.329,4.329,4.329,4.329,4.329,4.329,4.329,4.329,4.329,4.329,4.329,4.329,4.329,4.329,4.329,4.329,0.0,0.0,0.0,0.0,0.0,0.0,0.0,0.0,0.0,0.0,0.0,0.0,0.0,0.0,3.6086,0.0,0.0,0.0,0.0,0.0,0.0,0.0,3.571,3.571,0.0,0.0,0.0,0.0,3.571,3.5817,3.6018,3.5449,3.5338,3.5586,3.4865,3.4159,3.3584,3.3799,3.3484,3.2878,3.3178,3.329,3.329,3.3255,3.329,3.329,3.3255,3.329,3.329,3.3058,0.0,0.0,0.0,0.0,3.288,3.2354,3.319,3.4427,3.4986,3.6073,3.7243,3.8023,3.8661,3.899,3.8631,3.8901,3.926,3.9409,3.9948,4.0965,4.2821,4.3688,4.4766,4.6651,4.695,4.695,4.695,4.695,4.695,4.695,4.695,4.695,4.695,4.6471,4.6142,4.6142,4.5603,4.5304,4.5304,4.5185,4.5125,4.5125,4.4496,4.4137,4.4137,4.3559,4.329,4.329,4.329,4.329,4.329,4.329,4.329,4.329,4.329,4.329,4.329,4.329,4.329,4.329,4.329,4.329,4.329,4.329,4.329,4.3329,0.0,0.0,0.0,0.0,0.0,0.0,0.0,0.0,0.0,0.0,3.6246,3.6286,0.0,0.0,3.6365,3.6325,3.6166,0.0,0.0,0.0,0.0,0.0,3.571,0.0,0.0,0.0,0.0,3.571,3.571,3.571,3.5777,3.6375,3.6566,3.6416,3.6138,3.5495,3.4555,3.4085,3.3734,3.3477,3.3345,3.329,3.329,3.3122,3.3157,3.329,3.3094,3.3157,3.329,3.3058,3.2988,0.0,0.0,0.0,3.2454,3.2255,3.362,3.5131,3.5125,3.6315,3.7601,3.7558,3.7614,3.7943,3.902,3.8901,3.8691,3.929,3.9948,4.0816,4.2261,4.303,4.3888,4.5334,4.5574,4.5574,4.5574,4.5574,4.5574,4.5574,4.5574,4.5574,4.5574,4.5484,4.5424,4.5424,4.5334,4.5304,4.5304,4.4766,4.4436,4.4436,4.3768,4.3409,4.3409,4.3349,4.329,4.329,4.329,4.329,4.329,4.329,4.329,4.329,4.329,4.329,4.329,4.329,4.329,4.329,4.329,4.329,4.329,4.329,4.329,4.3409,0.0,0.0,0.0,0.0,0.0,0.0,0.0,0.0,0.0,0.0,0.0,3.6484,0.0,0.0,3.6524,3.6405,3.6206,3.6046,0.0,0.0,0.0,3.571,3.571,3.571,3.571,0.0,0.0,3.5181,3.4974,3.5217,3.5938,3.6345,3.621,3.5601,3.6031,3.5386,3.4001,3.4506,3.4168,3.3262,3.3553,3.3493,3.329,3.3192,3.3227,3.329,3.3058,3.3122,3.329,3.3058,3.2988,3.2988,3.281,0.0,0.0,0.0,3.2897,3.3839,3.5153,3.6281,3.7368,3.8307,3.7704,3.7345,3.902,3.8601,3.8153,3.92,3.9649,4.0247,4.1602,4.2342,4.321,4.4526,4.5035,4.5304,4.5304,4.5304,4.5304,4.5304,4.5304,4.5304,4.5304,4.4975,4.4736,4.4736,4.4407,4.4197,4.4197,4.3888,4.3738,4.3738,4.3439,4.329,4.329,4.329,4.329,4.329,4.329,4.329,4.329,4.329,4.329,4.329,4.329,4.329,4.329,4.329,4.329,4.329,4.329,4.329,4.329,4.329,4.3286,4.3265,0.0,0.0,0.0,0.0,0.0,0.0,0.0,0.0,0.0,0.0,0.0,0.0,0.0,0.0,0.0,0.0,3.6286,3.6018,3.571,0.0,0.0,3.571,3.571,3.571,3.571,0.0,3.4802,3.4802,3.4399,3.4678,3.562,3.5955,3.5601,3.4808,3.573,3.537,3.4135,3.493,3.4639,3.3712,3.3916,3.3828,3.3515,3.3311,3.3255,3.329,3.3058,3.3122,3.329,3.3122,3.3023,3.2988,3.2952,3.2668,0.0,0.0,0.0,3.3203,3.5275,3.633,3.7171,3.8547,3.7588,3.6723,3.8302,3.8003,3.7734,3.8901,3.9559,4.0217,4.1205,4.1811,4.259,4.3838,4.4466,4.4796,4.4796,4.4796,4.4796,4.4796,4.4796,4.4796,4.4796,4.4347,4.4077,4.4077,4.3559,4.329,4.329,4.329,4.329,4.329,4.329,4.329,4.329,4.329,4.329,4.329,4.329,4.329,4.329,4.329,4.32,4.309,4.323,4.329,4.329,4.329,4.329,4.329,4.329,4.32,4.309,4.309,4.302,4.2945,0.0,0.0,0.0,0.0,0.0,0.0,0.0,0.0,0.0,0.0,0.0,0.0,0.0,3.685,3.6889,3.6721,3.6524,3.6178,3.571,3.571,0.0,3.571,3.571,0.0,3.571,3.51,3.4802,3.4802,3.4399,3.4241,3.4323,3.5063,3.5151,3.4654,3.5813,3.6282,3.6184,3.5232,3.5151,3.5551,3.4593,3.4189,3.4076,3.3282,3.3122,3.329,3.3058,3.3122,3.329,3.329,3.3157,3.2988,3.2775,3.248,3.2218,0.0,0.0,0.0,3.5561,3.6514,3.7225,3.7481,3.664,3.5926,3.651,3.7045,3.7614,3.8302,3.9948,4.1332,4.1422,4.1452,4.1863,4.314,4.3379,4.3379,4.3379,4.3379,4.3379,4.3379,4.3379,4.3379,4.3379,4.3349,4.3349,4.3349,4.3319,4.329,4.329,4.329,4.329,4.329,4.329,4.329,4.329,4.329,4.329,4.329,4.329,4.329,4.329,4.329,4.3,4.25,4.306,4.329,4.329,4.329,4.329,4.329,4.329,4.294,4.244,4.244,4.2334,4.2322,0.0,0.0,0.0,0.0,0.0,0.0,0.0,0.0,0.0,0.0,0.0,0.0,0.0,3.6575,3.6575,3.6524,3.6325,3.6058,3.571,3.571,0.0,3.571,3.571,3.5547,3.5127,3.4531,3.412,3.3864,3.3422,3.3487,3.4021,3.4427,3.4762,3.5022,3.6086,3.5909,3.4853,3.568,3.5457,3.4594,3.5031,3.4734,3.398,3.3828,3.3816,3.3824,3.3198,3.3274,3.3589,3.3092,3.2846,3.281,3.2739,3.2525,3.2336,3.2255,3.3206,3.4457,3.5194,3.5889,3.6613,3.7402,3.5919,3.4686,3.6181,3.6327,3.6267,3.6477,3.8452,4.0127,4.0127,4.1145,4.2201,4.2641,4.306,4.329,4.329,4.329,4.329,4.329,4.297,4.288,4.326,4.294,4.288,4.326,4.2551,4.2462,4.326,4.2521,4.2462,4.326,4.329,4.329,4.329,4.329,4.329,4.329,4.291,4.2701,4.2701,4.2282,4.1953,4.1782,4.1983,4.2073,4.2073,4.2073,4.2073,4.2073,4.2073,4.1953,4.182,4.2168,4.2193,4.2151,0.0,0.0,0.0,0.0,0.0,3.7198,3.7278,0.0,0.0,0.0,0.0,0.0,0.0,0.0,3.6365,3.6325,3.6098,3.5898,3.571,3.571,3.571,3.571,3.571,3.5398,3.4802,3.4016,3.3506,3.3293,3.2671,3.2767,3.3601,3.4083,3.45,3.4899,3.5934,3.5756,3.4715,3.5973,3.5878,3.4985,3.5551,3.5338,3.4594,3.4472,3.4312,3.4161,3.3828,3.3848,3.3952,3.3648,3.3282,3.3043,3.3043,3.269,3.23,3.2146,3.3101,3.4327,3.4589,3.53,3.6154,3.68,3.5409,3.4175,3.5252,3.5818,3.6088,3.5878,3.8093,4.0068,4.0068,4.1145,4.2201,4.2611,4.306,4.329,4.329,4.329,4.329,4.329,4.294,4.2761,4.3,4.2611,4.25,4.2671,4.2073,4.2102,4.297,4.2402,4.2342,4.3,4.3,4.291,4.2671,4.2671,4.2671,4.2671,4.2291,4.2081,4.2051,4.1602,4.1265,4.1055,4.1055,4.1175,4.1422,4.1422,4.1422,4.1422,4.1422,4.1385,4.1361,4.1736,4.1886,4.1985,0.0,3.7796,3.7781,3.7528,3.7528,3.7612,3.7769,3.7811,0.0,0.0,0.0,0.0,0.0,0.0,0.0,3.6153,3.5885,3.5737,3.571,3.571,3.571,3.571,0.0,0.0,3.4802,3.3675,3.3162,3.3293,3.2179,3.2081,3.3016,3.4085,3.4409,3.4217,3.5264,3.5861,3.6061,3.6089,3.6427,3.6866,3.613,3.5889,3.5967,3.5115,3.4566,3.4273,3.4964,3.4759,3.4329,3.4992,3.451,3.3679,3.3652,3.301,3.2182,3.2,3.2952,3.407,0.0,0.0,0.0,3.5557,3.5048,3.4481,3.3665,3.5489,3.7165,3.6537,3.899,4.1265,4.1332,4.1324,4.1773,4.3021,4.323,4.323,4.323,4.323,4.323,4.323,4.323,4.3,4.244,4.2351,4.2081,4.1482,4.1961,4.2321,4.2381,4.294,4.3,4.2381,4.2381,4.2081,4.1384,4.1422,4.1422,4.1422,4.1392,4.1354,4.1354,4.1324,4.0965,4.0367,4.0404,4.0763,4.1362,4.1362,4.1324,4.1324,4.1324,4.1277,4.1179,4.1179,4.1448,4.1787,3.832,3.8367,3.8316,3.7794,3.788,3.8033,3.8048,0.0,0.0,0.0,0.0,0.0,3.7234,3.7206,3.6974,3.6497,3.6402,3.6171,3.5737,3.571,3.571,3.571,3.571,3.5398,3.4802,3.4043,3.356,3.3293,3.2698,3.2609,3.2988,3.3449,3.3605,3.3571,3.4147,3.4446,3.4575,3.5648,3.5583,3.4873,3.6161,3.5787,3.4594,3.5433,3.5078,3.4273,3.4964,3.5003,3.4743,3.491,3.4289,3.3404,3.2819,3.24,3.2291,3.2624,3.3346,3.4086,3.3893,0.0,0.0,0.0,0.0,0.0,3.3575,3.4412,3.525,3.5102,3.6896,3.8661,3.914,4.0008,4.0935,4.1773,4.1923,4.1923,4.1923,4.1923,4.1923,4.1923,4.1504,4.1324,4.1662,4.1235,4.1055,0.0,4.0666,4.0636,4.1632,4.1833,4.1833,4.1692,4.1692,4.1602,4.1422,4.1422,4.1422,4.1384,4.0905,4.0666,4.0666,4.0187,3.9858,3.9679,4.0081,4.035,4.0496,4.013,3.9948,3.9948,3.9948,4.019,4.0511,4.0928,4.135,4.1852,3.8857,3.8863,3.8842,3.8487,3.8562,3.8648,3.8648,0.0,0.0,0.0,0.0,0.0,3.7555,0.0,3.735,3.7012,3.6985,3.6741,3.6117,3.609,3.5981,3.5737,3.571,3.5398,3.4802,3.4322,3.3946,3.3666,3.3073,3.2949,3.3378,3.372,3.3792,3.3712,3.4399,3.4622,3.45,3.5658,3.5685,3.5161,3.6084,3.6123,3.5637,3.6151,3.5779,3.5068,3.5723,3.5704,3.5423,3.5675,3.4946,3.3788,3.3135,3.2589,3.2355,3.3223,3.3514,3.3609,3.3859,3.4044,3.4118,3.3757,0.0,0.0,3.3155,3.4233,3.5282,3.4951,3.6686,3.8182,3.8003,3.8631,3.929,3.9649,3.9709,4.0127,4.1235,4.1422,4.1422,4.1422,4.1055,4.0846,4.0965,4.0636,4.0457,4.0546,4.0098,4.0277,4.1324,4.1422,4.1265,4.0965,4.0965,4.0846,4.0576,4.0576,4.0576,4.0546,4.0187,3.9978,3.9978,3.9589,3.9517,3.9737,4.0056,4.0305,4.0512,4.02,4.0091,4.0091,4.0091,4.0409,4.0891,4.1227,4.1656,4.2206,0.0,3.9292,3.9292,3.9292,3.9292,3.9292,0.0,0.0,0.0,0.0,0.0,0.0,0.0,0.0,0.0,0.0,3.7594,3.7323,3.6741,3.6674,0.0,3.5845,3.5858,3.5585,3.491,3.4712,3.4561,3.441,3.3614,3.3553,3.4119,3.4557,3.4576,3.4357,3.5292,3.5497,3.518,3.5742,3.6256,3.6643,3.6203,3.6766,3.7765,3.7135,3.6626,3.6314,3.6989,3.6887,3.6485,3.6887,3.6039,3.4685,3.4044,3.3169,3.2636,3.3772,3.3618,3.3206,3.3836,3.3745,3.3515,3.3395,3.3395,0.0,3.2647,3.4352,3.5908,3.5489,3.7195,3.8452,3.7404,3.7195,3.7195,3.7195,3.7195,3.8063,4.0576,4.1055,4.1115,4.0965,4.1085,4.0935,4.0337,4.0277,4.0038,3.9433,3.9948,4.0546,4.1145,4.1175,4.0876,4.0307,4.0277,4.0008,3.9439,3.9373,3.9373,3.9373,3.9373,3.9409,3.9481,3.9409,3.9702,4.027,4.027,4.0615,4.1093,4.1127,4.1093,4.0992,4.0992,4.1327,4.1787,4.1787,4.2174,4.268,3.9292,3.9292,3.9292,3.9292,3.9292,3.9292,0.0,0.0,0.0,0.0,0.0,0.0,3.8966,0.0,0.0,0.0,0.0,3.7989,0.0,0.0,3.6716,3.6442,3.6797,3.6531,3.5547,3.625,3.6322,3.5647,3.5798,3.569,3.543,3.5625,3.5443,3.502,3.505,3.5041,3.4966,3.5078,3.5723,3.6684,3.7282,3.7361,3.7259,3.8118,3.7793,3.695,3.8143,3.8433,3.8265,3.7557,3.6779,3.5723,3.3851,3.3468,3.378,3.4013,3.4375,3.465,3.4562,3.4148,3.3577,3.2856,3.2706,0.0,3.2527,3.2916,3.3544,3.4472,3.4651,3.4891,3.5729,3.5878,3.5878,3.5878,3.5878,3.6417,3.7973,3.911,3.9409,3.8302,3.914,3.9738,3.9619,3.9619,3.9559,3.9403,3.9493,3.9679,3.9798,3.9798,3.9738,3.9619,3.9619,3.9523,3.9373,3.9373,3.9373,3.9373,3.9373,3.9625,4.0056,3.9589,3.995,4.0823,4.0823,4.1127,4.1689,4.211,4.1786,4.0992,4.0992,4.1327,4.1787,4.1787,4.2333,4.3021,3.9292,3.9292,3.9292,3.9292,0.0,0.0,0.0,0.0,0.0,3.9292,3.9292,3.9292,3.9292,3.9292,0.0,0.0,0.0,0.0,0.0,0.0,3.7194,3.7193,3.713,3.7028,3.6894,3.7526,3.7428,3.6626,3.7012,3.6866,3.6213,3.6395,3.6324,3.6,3.5958,3.5883,3.5751,3.5451,3.6183,3.7558,3.7833,3.813,3.8448,3.9466,3.9477,3.8986,3.961,3.9847,3.9702,3.8764,3.7749,3.6741,3.5892,3.4936,3.4235,3.4996,3.4938,3.4671,3.4908,3.4455,3.3789,3.3276,3.2886,0.0,0.0,3.2766,3.3185,3.3844,3.4262,3.4502,3.4502,3.4502,3.4502,3.4502,3.4502,3.4741,3.537,3.7165,3.8422,3.8422,3.902,3.9373,3.9373,3.9373,3.9373,3.9373,3.9373,3.9373,3.9373,3.9373,3.9373,3.9373,3.9373,3.9373,3.9373,3.9373,3.9373,3.9373,3.9696,3.995,4.02,4.02,4.065,4.1393,4.1393,4.1689,4.2206,4.2492,4.2302,4.1819,4.1819,4.1948,4.2206,4.2206,4.2585,4.3143,3.9292,3.9292,3.9292,3.9292,3.9292,0.0,0.0,0.0,3.9264,3.9156,3.9129,3.9183,3.9292,3.9292,3.9336,3.9513,0.0,0.0,0.0,0.0,3.8159,3.7966,3.7585,3.7586,3.8115,3.8627,3.8509,3.7711,3.8128,3.7906,3.7176,3.7271,3.7237,3.7199,3.6996,3.7025,3.7184,3.6618,3.7367,3.8948,3.8917,3.9203,3.9791,4.0781,4.0988,4.082,4.1202,4.124,4.0994,4.0153,3.9022,3.7949,3.7924,3.6367,3.4753,3.5955,3.5427,3.4598,3.5217,3.479,3.4152,3.4,3.3457,3.2885,0.0,0.0,0.0,3.3155,3.3993,3.4412,0.0,0.0,0.0,3.2946,0.0,0.0,0.0,3.525,0.0,3.8153,3.8512,3.8661,3.8661,3.8901,3.914,3.9409,3.9373,3.9373,3.9373,3.9373,3.9373,3.9373,3.9373,3.9373,3.9373,3.9553,3.9625,3.9625,4.0165,4.0512,4.0615,4.0925,4.1393,4.2013,4.1852,4.211,4.2586,4.2586,4.2586,4.2586,4.2711,4.268,4.2586,4.2711,4.2898,4.3174,3.9292,3.9292,3.9292,3.9292,0.0,0.0,0.0,0.0,3.9102,3.8586,3.8505,3.8722,3.9237,3.9292,3.9601,4.0315,4.0935,4.0811,3.955,4.0238,0.0,3.868,3.8878,3.8734,3.8115,3.9535,3.9884,3.9066,3.9824,3.9899,3.9331,3.8679,3.8399,3.8495,3.7209,3.7688,3.9362,3.873,3.9239,4.0531,4.1716,4.1135,3.9833,4.1676,4.1676,4.086,4.2641,4.2896,4.2256,4.1444,4.0674,3.9713,3.7879,3.6734,3.6089,3.629,3.5908,3.5462,3.5952,3.5491,3.4819,3.4665,3.3998,3.3275,3.2647,0.0,3.2437,3.1839,0.0,3.1899,3.175,0.0,0.0,0.0,0.0,0.0,3.2527,3.3395,3.3993,3.4143,3.522,3.5938,3.5938,3.6956,3.8123,3.932,3.9373,3.9373,3.9373,3.9373,3.9373,3.9373,3.9373,3.9373,3.9373,4.0056,4.0374,4.0374,4.1026,4.1591,4.2045,4.1492,4.1819,4.2744,4.2077,4.211,4.2586,4.2586,4.2586,4.2618,4.305,4.2958,4.2649,4.308,4.3171,4.3174,3.9513,3.9292,3.9183,3.8857,0.0,0.0,0.0,0.0,3.8136,3.7892,3.7865,3.8082,3.8722,3.8803,3.9043,3.9722,4.0057,4.0046,3.9479,3.9606,0.0,3.9979,3.9554,3.9549,4.01,4.0344,4.0161,3.9529,4.0161,4.0226,3.9696,3.9343,3.9206,3.9134,3.787,3.8113,3.9453,3.8509,3.9254,4.1092,4.0919,4.0812,4.0982,4.2977,4.3408,4.2993,4.3472,4.3594,4.3358,4.1826,4.1377,4.1129,3.9505,3.8272,3.7558,3.8065,3.7111,3.6075,3.675,3.656,3.6123,3.6059,3.5116,3.4087,3.3755,3.3066,3.2288,3.163,0.0,0.0,0.0,0.0,0.0,0.0,3.1301,3.16,0.0,0.0,3.2946,3.4472,0.0,0.0,3.5459,3.528,3.5519,3.6477,3.7285,3.7554,3.7165,3.8601,3.9373,3.9373,3.9373,3.9373,3.9373,3.9732,4.0091,4.0512,4.1093,4.1656,4.2174,4.2206,4.2429,4.2713,4.2397,4.2397,4.2586,4.2586,4.2586,4.2649,4.3111,4.3171,4.305,4.3443,4.3684,4.3831,4.0315,3.9837,3.941,3.8575,3.8423,3.8249,3.7905,3.7838,3.7838,3.7838,3.7655,3.7787,3.8617,3.8577,3.8984,4.0275,4.0541,4.0668,4.0668,4.0391,4.0694,4.1796,4.0351,4.0281,4.1827,4.0966,4.0331,3.9945,4.0331,4.0296,3.9879,3.9702,3.9672,3.9733,3.8487,3.8579,3.9606,3.8979,3.9858,4.167,4.1103,4.1614,4.2786,4.371,4.4264,4.4548,4.4055,4.4096,4.4136,4.2481,4.2203,4.2311,4.1188,3.992,3.8943,3.9677,3.8335,3.6835,3.7667,3.7532,3.7089,3.6758,3.5782,3.481,3.4324,3.3455,3.2647,3.2138,3.2288,0.0,0.0,0.0,0.0,0.0,0.0,3.1451,0.0,3.1391,0.0,0.0,0.0,0.0,0.0,3.3963,3.3694,3.4204,3.5459,3.5998,3.5519,3.7823,3.914,3.914,3.932,3.9373,3.9373,3.9589,4.0056,4.0786,4.1327,4.1884,4.246,4.2775,4.2837,4.2681,4.2618,4.2586,4.2586,4.2586,4.2586,4.2649,4.3262,4.3502,4.3532,4.371,4.3948,4.4179,4.1893,4.1155,4.0107,3.8635,3.8423,3.8464,3.8615,3.8654,3.8654,3.8654,3.8006,3.8015,3.9411,3.9018,3.9898,4.2832,4.3747,4.4146,4.4146,4.4157,4.4127,4.4197,4.1615,4.0939,4.2504,4.1181,4.0505,4.047,4.0505,4.0505,4.047,3.9707,3.9713,4.0378,3.8948,3.9108,4.0501,4.1177,4.1884,4.2688,4.3956,4.4849,4.5249,4.3371,4.3464,4.461,4.4579,4.461,4.4479,4.3778,4.3525,4.3396,4.2505,4.1265,4.0248,4.0715,3.9429,3.8004,3.8671,3.8296,3.7375,3.6082,3.5589,3.513,3.3814,3.3484,3.3455,3.3425,3.2946,3.2497,0.0,0.0,0.0,0.0,0.0,0.0,0.0,0.0,0.0,0.0,0.0,0.0,0.0,3.3155,3.3514,0.0,3.4771,3.5519,3.5519,3.7345,3.8422,3.8422,3.908,3.9373,3.9373,4.0126,4.082,4.1459,4.2013,4.2648,4.3358,4.3054,4.2899,4.2868,4.2681,4.2586,4.2586,4.2586,4.2586,4.268,4.3621,4.3972,4.3972,4.386,4.3802,4.3831,4.304,4.2235,4.1255,3.9731,3.9074,3.8712,3.8341,3.8294,3.8476,3.8974,3.8796,3.9327,4.1044,4.1056,4.1534,4.2943,4.3319,4.326,4.2779,4.2892,4.3359,4.4267,4.3122,4.2714,4.3248,4.2355,4.1427,4.0505,4.0505,4.0505,4.0505,4.0231,4.0231,4.0474,3.9528,3.9623,4.0536,4.1309,4.1986,4.2694,4.3593,4.4363,4.488,4.4664,4.4849,4.5249,4.5249,4.4895,4.4228,4.3094,4.3234,4.367,4.2498,4.1724,4.1444,4.2105,4.0783,3.9164,3.9485,3.9219,3.8647,3.7884,3.658,3.54,3.4921,3.3784,3.2706,3.2258,3.2348,3.2348,0.0,0.0,0.0,0.0,0.0,0.0,0.0,0.0,3.1511,3.1511,0.0,0.0,0.0,0.0,0.0,0.0,3.145,0.0,3.1599,3.4711,3.6686,3.7105,3.8182,3.896,3.9373,4.0126,4.0854,4.1525,4.2173,4.2803,4.3419,4.3298,4.3176,4.3021,4.2868,4.2806,4.2806,4.2649,4.2586,4.2649,4.3292,4.3739,4.4059,4.4463,4.4603,4.4575,4.3334,4.2493,4.164,4.0246,3.9498,3.9044,3.8943,3.8876,3.9258,4.0479,4.0188,4.0646,4.2655,4.2707,4.3024,4.4157,4.405,4.405,4.4317,4.3337,4.359,4.5374,4.4029,4.3593,4.4302,4.3187,4.2263,4.1617,4.0843,4.0628,4.0909,4.0597,4.0505,4.0474,4.0043,3.9828,3.989,4.1586,4.2294,4.2355,4.3464,4.4641,4.5649,4.5618,4.5741,4.5957,4.5957,4.5448,4.4626,4.3738,4.3777,4.3952,4.3069,4.2682,4.2629,4.3114,4.1995,4.0708,4.0788,4.0461,3.9865,3.8832,3.7567,3.6417,3.5968,3.4861,3.3873,3.3633,3.3753,3.3634,0.0,0.0,0.0,0.0,0.0,0.0,0.0,3.1511,3.1511,3.1511,3.1331,0.0,0.0,0.0,0.0,0.0,0.0,0.0,0.0,3.3125,3.5459,3.6118,3.7614,3.8721,3.9373,3.9879,4.0581,4.1525,4.1917,4.2585,4.3419,4.3358,4.3174,4.3021,4.2961,4.2868,4.2775,4.2649,4.2586,4.2649,4.3292,4.3739,4.4059,4.4575,4.4803,4.4831,4.2971,4.2171,4.1365,4.0295,3.9735,3.9661,4.0417,4.0464,4.1115,4.3109,4.2237,4.2184,4.4267,4.4028,4.4497,4.6502,4.6049,4.648,4.8389,4.5495,4.4918,4.7496,4.4572,4.3741,4.5557,4.3771,4.3063,4.3655,4.1617,4.0935,4.1648,4.0843,4.0505,4.0505,4.0505,3.9767,3.8785,4.2176,4.2879,4.1955,4.3802,4.5741,4.7404,4.6111,4.608,4.6696,4.6665,4.6203,4.5618,4.5588,4.5041,4.4327,4.4297,4.4026,4.3675,4.3675,4.3106,4.244,4.241,4.1931,4.0965,3.902,3.8452,3.8063,3.6866,3.6507,3.6596,3.7195,3.6836,3.6058,0.0,0.0,0.0,0.0,0.0,0.0,0.0,0.0,3.1511,3.1511,3.2019,0.0,0.0,0.0,0.0,0.0,0.0,0.0,0.0,3.2557,3.4592,3.5429,3.7165,3.8512,3.9313,3.9361,4.0074,4.1492,4.1426,4.211,4.3419,4.3204,4.3052,4.293,4.2899,4.2806,4.2586,4.2586,4.2586,4.268,4.3621,4.4001,4.403,4.4265,4.444,4.4615,4.4233,4.3562,4.283,4.2051,4.1431,4.124,4.1943,4.286,4.3655,4.4174,4.5239,4.6143,4.6712,4.7548,4.7875,4.7404,4.7188,4.7096,4.7127,4.6296,4.6357,4.7558,4.725,4.6603,4.5618,4.5588,4.5157,4.4363,4.2817,4.2171,4.2325,4.1058,4.0505,4.0505,4.0505,4.0013,3.9431,4.2355,4.3994,4.451,4.4055,4.5033,4.6819,4.648,4.7065,4.8019,4.7527,4.6911,4.6265,4.5741,4.5348,4.4939,4.4295,4.391,4.3636,4.3478,4.3249,4.297,4.253,4.2261,4.1901,4.0876,3.9499,3.8302,3.7973,3.6776,3.5789,3.5968,3.5878,3.5639,3.531,3.4292,0.0,0.0,0.0,0.0,0.0,0.0,0.0,3.1511,3.1212,3.0821,0.0,0.0,0.0,0.0,0.0,0.0,2.9562,3.04,3.2077,3.4651,3.4262,3.5519,3.8631,3.8756,3.9721,4.1525,4.2522,4.3204,4.3539,4.3509,4.3419,4.3267,4.3113,4.2959,4.2806,4.2681,4.2586,4.2649,4.3262,4.3798,4.4265,4.4659,4.472,4.4615,4.3895,4.3402,4.3033,4.2663,4.3033,4.3464,4.3864,4.4541,4.5464,4.6665,4.7527,4.8266,4.8881,4.9651,4.9805,4.9035,4.8112,4.7835,4.8358,4.6973,4.685,4.845,4.8296,4.765,4.648,4.6542,4.6234,4.5464,4.3556,4.2756,4.3002,4.1309,4.0505,4.0505,4.0505,4.0105,3.9674,4.2417,4.4548,4.5957,4.5226,4.5926,0.0,4.6819,4.7434,4.8573,4.8173,4.7619,4.6973,4.6603,4.5962,4.5214,4.4847,4.4269,4.3675,4.3636,4.3448,4.323,4.288,4.2791,4.2641,4.2021,4.1003,4.0074,3.9768,3.8631,3.7644,3.7644,3.7434,3.7045,3.6447,3.525,3.3993,0.0,0.0,0.0,0.0,0.0,0.0,0.0,3.1421,3.115,3.0552,2.9684,2.8876,0.0,0.0,0.0,2.8693,2.9804,3.115,3.2677,3.3455,3.4592,3.6237,3.7092,3.8435,4.023,4.1517,4.2643,4.3598,4.3598,4.3539,4.3388,4.3265,4.3115,4.2899,4.2775,4.2681,4.2649,4.3353,4.3885,4.435,4.4858,4.4831,4.4615,4.3125,4.2879,4.291,4.3094,4.451,4.5741,4.6172,4.6265,4.7065,4.9374,4.9374,4.9558,5.0574,5.0851,5.0882,5.0697,4.9035,4.8758,5.0574,4.7896,4.7311,4.9712,4.8727,4.8019,4.7742,4.725,4.6942,4.685,4.4172,4.3156,4.3685,4.1524,4.0505,4.0505,4.0505,4.0351,4.0324,4.2509,4.4664,4.6603,4.6603,4.7311,4.8235,4.725,4.7588,4.8604,4.8604,4.8235,4.7711,4.7619,4.6699,4.5598,4.5624,4.4852,4.3904,4.3992,4.3696,4.329,4.329,4.329,4.314,4.2641,4.247,4.2261,4.1662,4.0995,4.0516,4.0427,3.9948,3.917,3.7913,3.6477,3.4651,0.0,0.0,0.0,0.0,0.0,0.0,0.0,0.0,0.0,3.0372,2.9325,2.8457,2.7794,2.7645,2.7675,2.7854,2.9864,3.0883,3.0642,3.3365,3.4502,3.3754,3.5337,3.7095,3.8992,3.9895,4.1466,4.3598,4.3598,4.3539,4.3419,4.3388,4.3207,4.2899,4.2868,4.2775,4.268,4.3562,4.403,4.4265,4.4714,4.4776,4.4615,4.451,4.4233,4.4603,4.5711,4.5711,4.6542,4.9374,4.9805,4.9774,4.9682,5.1036,5.1652,5.079,5.1682,5.1898,5.079,5.0359,5.0297,5.0667,5.0143,5.002,5.0482,5.082,5.0174,4.8481,4.8912,4.885,4.8266,4.5557,4.4295,4.4394,4.174,4.0505,4.0505,4.0505,4.1709,4.3648,4.3033,4.4264,4.6603,4.6603,4.6726,4.7065,4.7927,4.8419,4.8604,4.8604,4.8543,4.8358,4.7804,4.7394,4.7037,4.6203,4.5394,4.4688,4.4339,4.3788,4.329,4.329,4.329,4.326,4.314,4.2761,4.2381,4.2261,4.1722,4.1055,4.0516,4.0307,3.9978,3.92,3.7105,3.4801,3.2647,3.142,3.055,3.015,0.0,0.0,0.0,0.0,3.0342,2.9056,2.9235,2.9172,2.8457,2.7914,2.8094,2.9202,2.8633,2.9205,3.1271,3.136,3.2587,3.513,3.5859,3.7805,4.0989,4.1089,4.1972,4.3598,4.3598,4.3539,4.3388,4.3235,4.3052,4.2899,4.2744,4.2618,4.2649,4.3202,4.3562,4.3802,4.4236,4.4497,4.4615,4.6265,4.5865,4.5834,4.648,4.7219,4.8266,4.9928,5.1067,5.1621,5.1313,5.2113,5.2452,5.1805,5.2329,5.2452,5.1805,5.1097,5.1005,5.1682,5.1097,5.1005,5.1713,5.1713,5.1023,4.9512,4.9639,4.9301,4.8427,4.5887,4.461,4.4548,4.1801,4.0505,4.0536,4.1243,4.2325,4.3618,4.4356,4.5434,4.6665,4.7373,4.765,4.7711,4.8358,4.8552,4.8469,4.8563,4.8521,4.8407,4.8194,4.7896,4.7517,4.6977,4.6224,4.5414,4.4841,4.4268,4.3738,4.3379,4.329,4.329,4.329,4.309,4.288,4.288,4.241,4.1841,4.1512,4.0876,3.9978,3.8631,3.7345,3.5968,3.4322,3.2706,3.1414,3.0867,0.0,3.0543,0.0,0.0,0.0,0.0,2.9864,2.9505,2.8158,2.7794,2.7884,2.8543,2.8603,2.9232,3.0462,3.1509,3.2855,3.4516,3.5973,3.7981,4.0505,4.0994,4.2059,4.3598,4.3598,4.3568,4.3509,4.3325,4.3143,4.299,4.2958,4.3111,4.3353,4.3591,4.3768,4.4006,4.4207,4.444,4.4615,4.7804,4.7404,4.7127,4.7404,4.8573,4.9651,5.0236,5.1436,5.239,5.2667,5.2698,5.2698,5.2698,5.2698,5.2606,5.2298,5.1559,5.1344,5.1805,5.1405,5.1467,5.2236,5.2052,5.1502,5.0621,5.0273,4.9627,4.8588,4.6339,4.4941,4.4288,4.2012,4.0935,4.0997,4.2417,4.3187,4.3587,4.5711,4.6757,4.7127,4.8173,4.8604,4.8604,4.8604,4.848,4.8355,4.848,4.8438,4.8343,4.8438,4.8142,4.7753,4.763,4.6925,4.6041,4.5445,4.484,4.4197,4.3648,4.3409,4.329,4.329,4.329,4.329,4.329,4.294,4.256,4.244,4.1324,3.9918,3.8332,3.7704,3.6956,3.5519,3.3816,3.2284,3.1229,0.0,3.0087,0.0,0.0,0.0,3.0163,2.9953,2.9175,2.7525,2.7375,2.7585,2.8004,2.8633,2.9172,2.9592,3.1955,3.3423,3.3813,3.6144,3.8312,4.0264,4.0906,4.2059,4.3598,4.3598,4.3598,4.3598,4.3479,4.3265,4.3113,4.3292,4.3591,4.3914,4.3943,4.4121,4.4293,4.4265,4.4412,4.4615,4.8512,4.8481,4.882,5.0082,4.9435,4.9558,5.2052,5.1559,5.1313,5.2544,5.2698,5.2698,5.2698,5.2698,5.2206,5.0974,5.1898,5.1528,4.9158,5.1221,5.2021,5.0944,5.199,5.2298,5.1577,5.1559,5.0882,4.9589,4.8081,4.6001,4.3387,4.2744,4.2417,4.2479,4.3802,4.5064,4.6234,4.648,4.7311,4.8419,4.8573,4.8604,4.8604,4.8604,4.8563,4.8521,4.8385,4.8343,4.8301,4.8133,4.8145,4.8168,4.7746,4.7093,4.6508,4.6269,4.5274,4.4317,4.4227,4.3738,4.329,4.329,4.329,4.329,4.329,4.326,4.306,4.253,4.1324,4.0337,4.0157,3.8631,3.6776,3.4923,3.3455,3.1717,2.9418,0.0,3.0308,2.9934,0.0,0.0,2.8846,2.8244,2.7555,2.6776,2.6716,2.7495,2.9322,2.7824,2.7735,2.9562,3.1362,3.301,3.4496,3.6658,3.9285,4.2292,4.1632,4.2121,4.3598,4.3598,4.3598,4.3598,4.3479,4.3265,4.3143,4.3413,4.3625,4.3654,4.3772,4.4006,4.4265,4.4184,4.4298,4.4615,5.0482,5.0143,5.0051,5.0605,5.0574,5.0851,5.1929,5.199,5.2082,5.2637,5.2698,5.2698,5.2698,5.2698,5.2483,5.1959,5.239,5.2236,5.1159,5.2113,5.2483,5.1929,5.2421,5.2485,5.2074,5.1809,5.1348,5.0634,4.7825,4.5795,4.4642,4.3242,4.3033,4.3864,4.5187,4.608,4.6634,4.7465,4.8112,4.8604,4.8604,4.8604,4.8604,4.8604,4.8521,4.8396,4.8343,4.7943,4.7543,4.7716,4.7922,4.8091,4.788,4.757,4.7099,4.6623,4.6017,4.5334,4.4526,4.4107,4.3798,4.3379,4.329,4.329,4.329,4.329,4.323,4.3,4.2222,4.1324,4.0546,3.9738,3.8542,3.6567,3.5524,3.4207,3.2042,0.0,0.0,3.2103,0.0,3.0492,3.145,2.9505,2.8274,2.8393,2.7675,2.7555,2.8364,2.8677,2.9403,3.0702,3.2737,3.5041,3.7524,3.8667,4.058,4.3204,4.2855,4.3006,4.3598,4.3598,4.3658,4.3713,4.3476,4.3535,4.3831,4.3977,4.4179,4.4435,4.4344,4.4519,4.4659,4.4321,4.4384,4.4615,5.199,5.1621,5.1282,5.1282,5.1682,5.1867,5.1467,5.2144,5.2575,5.2175,5.2452,5.2698,5.2698,5.2698,5.2544,5.2144,5.2483,5.2359,5.1559,5.2267,5.2544,5.2144,5.2513,5.2608,5.2397,5.2147,5.1809,5.1386,4.8706,4.688,4.5825,4.4158,4.4042,4.5249,4.6573,4.7188,4.725,4.8204,4.8604,4.8604,4.8604,4.8563,4.848,4.848,4.8385,4.8218,4.8133,4.7581,4.6898,4.7129,4.7202,4.728,4.7673,4.7666,4.7405,4.6924,4.6569,4.607,4.5155,4.4616,4.4197,4.3708,4.3439,4.329,4.329,4.329,4.329,4.329,4.2821,4.2111,4.1145,4.0666,3.9798,3.8003,3.7203,3.616,0.0,3.3547,0.0,3.3607,3.1777,3.115,3.2766,3.0462,2.8996,2.9292,2.8603,2.8235,2.8333,2.8997,3.0055,3.1548,3.3067,3.5464,3.8762,3.9468,4.1102,4.3598,4.3598,4.3598,4.3598,4.3598,4.3717,4.386,4.3717,4.3889,4.4378,4.4463,4.4686,4.4961,4.4906,4.4906,4.4968,4.4575,4.4525,4.4615,5.2698,5.2698,5.2698,5.2698,5.2698,5.2236,5.0913,5.1836,5.2236,5.0882,5.1898,5.2698,5.2698,5.2698,5.2175,5.082,5.1959,5.1559,4.885,5.119,5.2113,5.079,5.199,5.2698,5.2698,5.2698,5.2359,5.1713,5.1652,4.9812,4.6404,4.5699,4.5808,4.6634,4.7989,4.8604,4.8604,4.8604,4.8604,4.8604,4.8604,4.848,4.8301,4.8301,4.8175,4.7964,4.7709,4.7171,4.6557,4.6364,4.5873,4.5544,4.689,4.7309,4.7309,4.7309,4.683,4.6279,4.6249,4.5334,4.4317,4.4317,4.3768,4.329,4.329,4.329,4.329,4.329,4.2821,4.241,4.2381,4.1265,3.9948,3.8601,3.7823,3.6716,0.0,3.4474,0.0,3.3574,3.1719,3.0791,3.1451,3.0342,2.9322,2.8667,2.9205,2.9723,3.006,2.8278,2.8627,3.1706,3.1571,3.3303,3.7187,3.8351,4.0494,4.3598,4.3598,4.3598,4.3598,4.3598,4.3776,4.4097,4.4097,4.427,4.4513,4.4852,4.4961,4.4988,4.5123,4.5096,4.4995,4.4831,4.4692,4.4615,5.1436,5.2082,5.2575,5.2113,5.2421,5.2575,5.2144,5.2452,5.2575,5.2144,5.2452,5.2698,5.2698,5.2698,5.2544,5.2113,5.1621,5.1344,5.1405,5.1374,5.1559,5.2052,5.159,5.1344,5.1344,5.1344,5.1221,5.1005,5.0543,4.9485,4.7907,4.7661,4.7978,4.8727,4.9158,4.9066,4.8563,4.8438,4.8427,4.8355,4.826,4.8175,4.8091,4.8091,4.8049,4.7964,4.7709,4.7171,4.6557,4.6364,4.5873,4.5364,4.5813,4.6262,4.6621,4.6621,4.68,4.689,4.6399,4.598,4.5454,4.4556,4.4167,4.3858,4.3379,4.329,4.329,4.329,4.314,4.288,4.25,4.1692,4.0487,3.8691,3.8601,3.8242,3.6686,0.0,3.6237,3.5609,3.3754,3.3006,3.4143,3.2617,3.1689,3.1928,3.13,3.0758,3.0385,3.1332,3.2674,3.4273,3.562,3.7335,3.9431,3.9661,4.1099,4.3598,4.3598,4.3598,4.3598,4.3598,4.386,4.435,4.4184,4.4384,4.4852,4.4968,4.5022,4.4988,4.515,4.5096,4.4995,4.4858,4.4692,4.4615,5.1528,5.2144,5.2575,5.2144,5.2421,5.2544,5.2021,5.239,5.2544,5.2021,5.239,5.2698,5.2698,5.2698,5.2698,5.2698,5.1929,5.1805,5.2667,5.1929,5.1836,5.2667,5.1898,5.1436,5.1436,5.1436,5.1436,5.1436,5.0759,5.0205,4.9774,4.9528,4.962,5.0082,5.0082,4.9805,4.9404,4.9278,4.9151,4.9035,4.8907,4.8766,4.8594,4.8594,4.8551,4.8434,4.8019,4.7435,4.6791,4.6454,4.5693,4.4915,4.4915,4.5214,4.5622,4.613,4.6621,4.689,4.6741,4.6501,4.607,4.5233,4.4676,4.4137,4.3439,4.329,4.329,4.329,4.329,4.317,4.2791,4.2192,4.1302,3.9768,3.9679,3.9409,3.8302,3.7734,3.7255,0.0,3.507,3.4382,3.5759,3.4691,3.3999,3.4234,3.3186,3.2701,3.3033,3.3216,3.4041,3.5548,3.6846,3.8428,4.0387,4.0251,4.1344,4.3598,4.3598,4.3598,4.3598,4.3598,4.3919,4.4491,4.4321,4.4575,4.5157,4.5157,4.5157,4.5157,4.5177,4.5096,4.4995,4.4858,4.4692,4.4615,5.2575,5.2637,5.2698,5.2637,5.2698,5.2298,5.1036,5.1898,5.2267,5.1005,5.1929,5.2698,5.2698,5.2698,5.2698,5.2698,5.2637,5.2606,5.2698,5.2637,5.2606,5.2698,5.2637,5.2575,5.2575,5.2575,5.2637,5.2698,5.2082,5.1775,5.1775,5.1128,5.082,5.0759,5.0759,5.0728,5.0697,5.0697,5.0537,5.0289,5.0245,4.9982,4.9613,4.9568,4.9479,4.9239,4.8566,4.7967,4.7339,4.6621,4.5544,4.4496,4.4347,4.4317,4.4556,4.5771,4.616,4.6411,4.707,4.68,4.6279,4.6279,4.5304,4.4167,4.3499,4.3319,4.329,4.329,4.329,4.329,4.329,4.2791,4.2171,4.155,4.0853,4.0127,3.9415,3.8217,3.7409,3.7319,3.5827,3.5289,3.6484,3.6615,3.6376,3.5737,3.5034,3.5461,3.7302,3.433,3.3679,3.6009,3.6101,3.7458,4.0339,4.0339,4.1441,4.3598,4.3598,4.3598,4.3598,4.3598,4.3919,4.4519,4.4519,4.4852,4.5397,4.5397,4.5397,4.5397,4.523,4.5096,4.4995,4.4831,4.4726,4.4615,5.1282,5.2021,5.2544,5.2021,5.2359,5.2606,5.2298,5.2513,5.2606,5.2267,5.2513,5.2698,5.2698,5.2698,5.2698,5.2698,5.1775,5.1621,5.2637,5.1744,5.1621,5.2667,5.1713,5.1159,5.1159,5.1159,5.1682,5.2698,5.2544,5.2483,5.2483,5.2298,5.1959,5.1467,5.1467,5.119,5.0697,5.0493,5.0332,5.0245,4.9893,4.9702,4.9568,4.9434,4.9344,4.9299,4.9149,4.897,4.8626,4.7459,4.686,4.6322,4.4796,4.4317,4.4377,4.4706,4.5155,4.5693,4.6381,4.6399,4.6279,4.6279,4.5304,4.4287,4.4107,4.3648,4.329,4.329,4.329,4.329,4.329,4.2791,4.2325,4.2045,4.1113,3.9944,3.8648,3.8199,3.7651,3.6679,3.743,3.7957,3.7809,3.9067,3.9228,3.7687,3.7836,3.8153,3.865,3.7872,3.8153,3.9712,4.0132,4.0833,4.1786,4.1786,4.2416,4.3598,4.3598,4.3598,4.3598,4.3598,4.3919,4.4519,4.4519,4.4852,4.5397,4.5397,4.5397,4.5371,4.5157,4.5049,4.4968,4.472,4.4643,4.4615,5.1682,5.2206,5.2606,5.2236,5.2483,5.2698,5.2698,5.2698,5.2698,5.2698,5.2698,5.2698,5.2698,5.2698,5.2698,5.2698,5.2052,5.1929,5.2667,5.2021,5.1959,5.2667,5.2021,5.1621,5.1621,5.1621,5.199,5.2698,5.2698,5.2698,5.2698,5.2698,5.2513,5.2175,5.201,5.1871,5.1577,5.1236,5.1058,5.1058,5.0653,5.0426,5.0335,5.0198,5.0152,5.0122,4.9823,4.9703,4.9553,4.8536,4.7818,4.713,4.6022,4.5065,4.4317,4.4317,4.4556,4.5005,4.5663,4.5843,4.5843,4.5843,4.5544,4.5155,4.4825,4.4257,4.3738,4.3738,4.3499,4.329,4.329,4.303,4.2814,4.2768,4.1353,4.0011,3.9226,3.8012,3.7299,3.7495,3.8209,3.8889,3.9411,4.0622,4.0847,3.9568,3.9242,3.9437,4.0291,3.9532,3.9685,4.0961,4.1294,4.1689,4.2206,4.2585,4.3082,4.3598,4.3598,4.3598,4.3598,4.3598,4.3919,4.4519,4.4519,4.4852,4.5397,4.5397,4.5397,4.5371,4.5103,4.5022,4.4968,4.4692,4.4615,4.4615,5.2698,5.2698,5.2698,5.2698,5.2698,5.2698,5.2698,5.2698,5.2698,5.2698,5.2698,5.2698,5.2698,5.2698,5.2698,5.2698,5.2698,5.2698,5.2698,5.2698,5.2698,5.2698,5.2698,5.2698,5.2698,5.2698,5.2698,5.2698,5.2698,5.2698,5.2698,5.2698,5.2698,5.2698,5.2442,5.2518,5.2653,5.22,5.2048,5.2017,5.1741,5.1433,5.1276,5.1229,5.1229,5.1139,5.0554,5.0345,5.0255,4.9643,4.8686,4.7698,4.7399,4.6082,4.4586,4.4377,4.4257,4.4317,4.4975,4.5214,4.5304,4.5424,4.5813,4.6052,4.5574,4.4945,4.4436,4.4347,4.3828,4.3409,4.3319,4.329,4.3235,4.3033,4.1398,4.0063,3.9937,3.8119,3.7464,3.9184,3.9268,3.9794,4.1312,4.1941,4.2006,4.1473,4.0538,4.0608,4.2171,4.0799,4.0445,4.1543,4.1353,4.159,4.2238,4.3021,4.3479,4.3598,4.3598,4.3598,4.3598,4.3598,4.3919,4.4519,4.4519,4.4852,4.5397,4.5397,4.5397,4.5371,4.5103,4.5022,4.4968,4.4692,4.4615,4.4615,5.2698,5.2698,5.2698,5.2698,5.2698,5.2698,5.2698,5.2698,5.2698,5.2698,5.2698,5.2698,5.2698,5.2698,5.2698,5.2698,5.2698,5.2698,5.2698,5.2698,5.2698,5.2698,5.2698,5.2698,5.2698,5.2698,5.2698,5.2698,5.2698,5.2698,5.2698,5.2698,5.2698,5.2698,5.2653,5.2653,5.2653,5.2352,5.2261,5.2215,5.1757,5.1572,5.1479,5.1323,5.1229,5.1199,5.1063,5.1033,5.096,5.0255,4.9897,4.9448,4.7818,4.6711,4.5741,4.4646,4.3888,4.3589,4.4287,4.4855,4.5424,4.6022,4.5813,4.5574,4.6052,4.5633,4.4975,4.4436,4.4227,4.3947,4.3379,4.329,4.2707,4.0985,4.0375,3.9726,3.8654,3.9409,4.0452,4.1405,4.2846,4.3712,4.3566,4.4035,4.4102,4.3597,4.3776,4.4041,4.4333,4.4073,4.4041,4.4201,4.3009,4.2555,4.2959,4.3235,4.3479,4.3598,4.3598,4.3598,4.3598,4.3598,4.3919,4.4519,4.4519,4.4852,4.5397,4.5397,4.5397,4.5371,4.5103,4.5022,4.4968,4.4692,4.4615,4.4615,5.279,5.2698,5.2698,5.2698,5.2698,5.2698,5.2698,5.2698,5.2698,5.2698,5.2698,5.2698,5.2698,5.2698,5.2698,5.2698,5.2698,5.2698,5.2698,5.2698,5.2698,5.2698,5.2698,5.2698,5.2698,5.2698,5.2698,5.2698,5.2698,5.2698,5.2698,5.2698,5.2698,5.2698,5.2563,5.2563,5.2653,5.2124,5.1987,5.2109,5.1602,5.1386,5.1369,5.1276,5.1229,5.1229,5.1229,5.1229,5.1169,5.0823,5.0495,5.0016,4.9119,4.8207,4.713,4.5783,4.4366,4.3349,4.3678,4.4257,4.4855,4.5155,4.5274,4.5484,4.6172,4.5783,4.5304,4.5394,4.4825,4.4227,4.3888,4.3529,4.3106,4.2591,4.1704,4.1034,4.0862,4.1151,4.1598,4.2269,4.3554,4.4388,4.4455,4.4655,4.4688,4.4455,4.4388,4.4489,4.4787,4.4522,4.4522,4.4787,4.414,4.3944,4.4292,4.4386,4.4542,4.4787,4.497,4.506,4.506,4.506,4.5152,4.5348,4.5151,4.5199,4.5397,4.5397,4.5397,4.5371,4.5103,4.5022,4.4968,4.4692,4.4615,4.4615,5.3037,5.2821,5.2698,5.2698,5.2698,5.2698,5.2698,5.2698,5.2698,5.2698,5.2698,5.2698,5.2698,5.2698,5.2698,5.2698,5.2698,5.2698,5.2698,5.2698,5.2698,5.2698,5.2698,5.2698,5.2698,5.2698,5.2698,5.2698,5.2698,5.2698,5.2698,5.2698,5.2698,5.2698,5.2397,5.2397,5.2563,5.1926,5.1741,5.1834,5.1416,5.1229,5.1229,5.1229,5.1229,5.1229,5.1229,5.1229,5.1229,5.1229,5.0853,5.0405,5.0255,4.9434,4.8297,4.713,4.5364,4.3678,4.3379,4.3678,4.4107,4.4287,4.4706,4.5244,4.5933,4.5663,4.5454,4.5963,4.5125,4.4317,4.4317,4.3738,4.3377,4.3518,4.2509,4.1984,4.2768,4.2391,4.246,4.3557,4.4294,4.4836,4.524,4.5273,4.5273,4.5273,4.4903,4.4837,4.5273,4.4903,4.487,4.5273,4.4949,4.4951,4.5211,4.5275,4.5435,4.5719,4.6091,4.6307,4.6307,4.6364,4.6418,4.6327,4.6073,4.5964,4.5914,4.5914,4.5914,4.5922,4.5617,4.5507,4.5446,4.5004,4.4886,4.4852,5.3652,5.316,5.2698,5.2698,5.2698,5.2698,5.2698,5.2698,5.2698,5.2698,5.2698,5.2698,5.2698,5.2698,5.2698,5.2698,5.2698,5.2698,5.2698,5.2698,5.2698,5.2698,5.2698,5.2698,5.2698,5.2698,5.2698,5.2698,5.2698,5.2698,5.2698,5.2698,5.2698,5.2698,5.2397,5.2306,5.2306,5.1803,5.1618,5.1572,5.1323,5.1229,5.1229,5.1229,5.1229,5.1229,5.1229,5.1229,5.1229,5.1229,5.1199,5.105,5.0375,4.9763,4.909,4.8356,4.6711,4.4885,4.3618,4.3319,4.3499,4.4127,4.4347,4.4556,4.5214,4.5334,4.5304,4.5364,4.4796,4.4317,4.4317,4.3738,4.2731,4.098,4.0934,4.1352,4.2157,4.2534,4.3705,4.6273,4.6666,4.6696,4.673,4.673,4.673,4.673,4.6696,4.6696,4.673,4.6696,4.6696,4.673,4.5467,4.4886,4.5017,4.5211,4.5371,4.5529,4.606,4.6307,4.6304,4.6634,4.6889,4.7107,4.7079,4.7249,4.7534,4.7534,4.7534,4.7472,4.7192,4.7045,4.692,4.5987,4.5635,4.5534,5.376,5.3191,5.2698,5.2698,5.2698,5.2698,5.2698,5.2698,5.2698,5.2698,5.2698,5.2698,5.2698,5.2698,5.2698,5.2698,5.2698,5.2698,5.2698,5.2698,5.2698,5.2698,5.2698,5.2698,5.2698,5.2698,5.2698,5.2698,5.2698,5.2698,5.2698,5.2698,5.2698,5.2698,5.2397,5.2306,5.2261,5.1803,5.1572,5.1572,5.1323,5.1229,5.1229,5.1229,5.1229,5.1229,5.1229,5.1229,5.1229,5.1229,5.1229,5.1169,5.0883,5.0661,5.0272,4.9239,4.7489,4.5723,4.4796,4.3917,4.3349,4.3618,4.3678,4.3868,4.4526,4.4676,4.4796,4.5214,4.4766,4.4317,4.4317,4.3738,4.305,4.2342,4.2652,4.3223,4.392,4.4457,4.5336,4.6761,4.6892,4.6892,4.6892,4.6892,4.6892,4.6892,4.6892,4.6892,4.6892,4.6892,4.6892,4.6892,4.6374,4.6184,4.6352,4.6419,4.6618,4.6881,4.7488,4.7864,4.802,4.832,4.8343,4.8157,4.7986,4.7797,4.7672,4.7672,4.7672,4.7644,4.7329,4.7187,4.7124,4.6598,4.6075,4.5669,5.4068,5.3314,5.2698,5.2698,5.2698,5.2698,5.2698,5.2698,5.2698,5.2698,5.2698,5.2698,5.2698,5.2698,5.2698,5.2698,5.2698,5.2698,5.2698,5.2698,5.2698,5.2698,5.2698,5.2698,5.2698,5.2698,5.2698,5.2698,5.2698,5.2698,5.2698,5.2698,5.2698,5.2684,5.2382,5.2246,5.217,5.1665,5.1479,5.1463,5.1276,5.1229,5.1229,5.1229,5.1229,5.1229,5.1229,5.1229,5.1229,5.1229,5.1229,5.1229,5.1229,5.1229,5.096,4.9689,4.8147,4.6741,4.5873,4.4646,4.3559,4.3349,4.329,4.3409,4.3898,4.4018,4.4197,4.4855,4.4639,4.4448,4.4659,4.4106,4.3654,4.3654,4.381,4.4167,4.4999,4.5478,4.602,4.6823,4.6892,4.6892,4.6892,4.6892,4.6892,4.6892,4.6892,4.6892,4.6892,4.6892,4.6892,4.6892,4.6892,4.7064,4.7336,4.7404,4.7638,4.8033,4.8513,4.8923,4.9138,4.9415,4.9375,4.9154,4.8918,4.8673,4.8396,4.8396,4.8396,4.8396,4.8049,4.7933,4.787,4.7344,4.6819,4.6346,5.4683,5.3607,5.2698,5.2698,5.2698,5.2698,5.2698,5.2698,5.2698,5.2698,5.2698,5.2698,5.2698,5.2698,5.2698,5.2698,5.2698,5.2698,5.2698,5.2698,5.2698,5.2698,5.2698,5.2698,5.2698,5.2698,5.2698,5.2698,5.2698,5.2698,5.2698,5.2698,5.2698,5.2684,5.2231,5.2002,5.1956,5.1416,5.1229,5.1229,5.1229,5.1229,5.1229,5.1229,5.1229,5.1229,5.1229,5.1229,5.1229,5.1229,5.1229,5.1229,5.1229,5.1229,5.096,4.9673,4.885,4.8027,4.6681,4.5364,4.4167,4.3469,4.329,4.329,4.329,4.329,4.3469,4.4167,4.4382,4.4726,4.5364,4.4972,4.451,4.451,4.3849,4.3732,4.4962,4.511,4.5551,4.6756,4.6892,4.6892,4.6892,4.6892,4.6892,4.6892,4.6892,4.6892,4.6892,4.6892,4.6892,4.6892,4.6892,4.7167,4.7704,4.7836,4.8162,4.8702,4.8892,4.9202,4.95,4.95,4.9683,5.0011,5.0011,5.0011,5.0011,5.0011,5.0011,4.9982,4.9654,4.95,4.9372,4.8293,4.7906,4.7669,5.4683,5.3607,5.2698,5.2698,5.2698,5.2698,5.2698,5.2698,5.2698,5.2698,5.2698,5.2698,5.2698,5.2698,5.2698,5.2698,5.2698,5.2698,5.2698,5.2698,5.2698,5.2698,5.2698,5.2698,5.2698,5.2698,5.2698,5.2698,5.2698,5.2698,5.2698,5.2698,5.2698,5.2684,5.2382,5.2155,5.2002,5.1649,5.1339,5.1229,5.1229,5.1229,5.1229,5.1229,5.1229,5.1229,5.1229,5.1229,5.1229,5.1229,5.1229,5.1229,5.1229,5.1229,5.1139,5.075,5.0182,4.9374,4.8057,4.707,4.6022,4.4396,4.3648,4.329,4.329,4.329,4.3349,4.3559,4.4048,4.4572,4.4749,4.5086,4.5332,4.5332,4.5036,4.5036,4.5841,4.5805,4.602,4.6823,4.6892,4.6892,4.6892,4.6892,4.6892,4.6892,4.6892,4.6892,4.6892,4.6892,4.6892,4.6892,4.6892,4.7202,4.7836,4.7803,4.8065,4.8702,4.8981,4.929,4.95,4.9742,4.9923,5.0011,5.0011,5.0011,5.0011,5.0011,5.0011,4.9982,4.9654,4.95,4.9441,4.887,4.8342,4.7838,5.4745,5.3822,5.3037,5.276,5.2698,5.2698,5.2698,5.2698,5.2698,5.2698,5.2698,5.2698,5.2698,5.2698,5.2698,5.2698,5.2698,5.2698,5.2698,5.2698,5.2698,5.2698,5.2698,5.2698,5.2698,5.2698,5.2698,5.2698,5.2698,5.2698,5.2698,5.2698,5.2653,5.2518,5.2291,5.2063,5.1834,5.1556,5.1339,5.1229,5.1229,5.1229,5.1229,5.1229,5.1229,5.1229,5.1229,5.1229,5.1229,5.1229,5.1229,5.1229,5.1229,5.1229,5.1229,5.1229,5.0704,5.0016,4.9284,4.8207,4.701,4.5813,4.4575,4.3618,4.3349,4.329,4.329,4.329,4.3927,4.4586,4.4924,4.5369,4.5805,4.6092,4.5805,4.5733,4.6337,4.6337,4.6574,4.7422,4.7556,4.7653,4.7946,4.7979,4.7814,4.7485,4.7452,4.7288,4.6927,4.6892,4.6892,4.6892,4.6996,4.727,4.7902,4.8032,4.8386,4.9012,4.9195,4.9441,4.9713,4.9772,4.986,5.0011,5.0011,5.0011,5.0011,5.0011,5.0011,4.9982,4.9654,4.95,4.9441,4.9107,4.8714,4.8308,5.4806,5.4129,5.3498,5.2821,5.2698,5.2698,5.2698,5.2698,5.2698,5.2698,5.2698,5.2698,5.2698,5.2698,5.2698,5.2698,5.2698,5.2698,5.2698,5.2698,5.2698,5.2698,5.2698,5.2698,5.2698,5.2698,5.2698,5.2698,5.2653,5.2653,5.2653,5.2684,5.2518,5.2261,5.2063,5.1834,5.1572,5.1369,5.1229,5.1229,5.1229,5.1229,5.1229,5.1229,5.1229,5.1229,5.1229,5.1229,5.1229,5.1229,5.1229,5.1229,5.1229,5.1229,5.1229,5.1229,5.0734,5.0255,5.0196,4.888,4.7519,4.7339,4.5933,4.4377,4.3559,4.3399,4.3409,4.3409,4.4043,4.4849,4.566,4.5805,4.6056,4.6793,4.634,4.6056,4.6617,4.6687,4.7119,4.8253,4.8453,4.8748,4.9436,4.9567,4.9267,4.8474,4.8442,4.8044,4.7188,4.7056,4.7024,4.7059,4.7131,4.7437,4.7934,4.845,4.8951,4.95,4.95,4.9713,4.9982,4.9683,4.9713,5.0011,5.0011,5.0011,5.0011,5.0011,5.0011,4.9982,4.9654,4.95,4.9441,4.9107,4.9018,4.8883,5.4806,5.4129,5.3498,5.2821,5.2698,5.2698,5.2698,5.2698,5.2698,5.2698,5.2698,5.2698,5.2698,5.2698,5.2698,5.2698,5.2698,5.2698,5.2698,5.2698,5.2698,5.2698,5.2698,5.2698,5.2698,5.2698,5.2698,5.2698,5.2518,5.2397,5.2397,5.22,5.2139,5.2063,5.2048,5.1834,5.1572,5.1526,5.1386,5.1229,5.1229,5.1229,5.1229,5.1229,5.1229,5.1229,5.1229,5.1229,5.1229,5.1229,5.1229,5.1229,5.1229,5.1229,5.1229,5.1229,5.1109,5.09,5.0315,4.9867,4.9179,4.7698,4.698,4.6202,4.4496,4.4134,4.4274,4.4274,4.4887,4.566,4.6413,4.6585,4.6828,4.7605,4.7471,4.7303,4.7471,4.737,4.7434,4.7667,4.8191,4.8551,4.8715,4.9272,4.9534,4.9335,4.9335,4.9235,4.9036,4.8374,4.8048,4.8153,4.7528,4.7504,4.8129,4.8513,4.8951,4.95,4.9772,4.9952,5.0011,4.9923,4.9952,5.0011,5.0011,5.0011,5.0011,5.0011,5.0011,4.9982,4.9654,4.95,4.9441,4.9107,4.9018,4.8883,5.5315,5.4668,5.3991,5.3314,5.2914,5.2698,5.2698,5.2698,5.2698,5.2698,5.2698,5.2698,5.2698,5.2698,5.2698,5.2698,5.2698,5.2698,5.2698,5.2698,5.2698,5.2698,5.2698,5.2698,5.2698,5.2698,5.2698,5.2698,5.2563,5.2518,5.2518,5.2246,5.2063,5.2002,5.188,5.1649,5.1416,5.1416,5.1323,5.1229,5.1229,5.1229,5.1229,5.1229,5.1229,5.1229,5.1229,5.1229,5.1229,5.1229,5.1229,5.1229,5.1229,5.1229,5.1229,5.1229,5.1229,5.1139,5.0764,5.0435,4.9956,4.8955,4.7997,4.677,4.4766,4.4655,4.491,4.4572,4.5147,4.5949,4.6689,4.6828,4.7067,4.7869,4.7902,4.7836,4.7836,4.777,4.7869,4.8231,4.8594,4.9055,4.978,5.0175,5.0371,5.03,5.0265,5.0066,4.9599,4.9169,4.8938,4.901,4.8322,4.8231,4.8727,4.881,4.9077,4.95,4.983,5.0011,5.0011,5.0011,5.0011,5.0011,5.0011,5.0011,5.0011,5.0011,5.0011,4.9982,4.9654,4.95,4.9441,4.9107,4.9018,4.8883,5.5838,5.5253,5.4591,5.3868,5.3252,5.2852,5.2729,5.2698,5.2698,5.2698,5.2698,5.2698,5.2698,5.2698,5.2698,5.2698,5.2698,5.2698,5.2698,5.2698,5.2698,5.2698,5.2698,5.2698,5.2698,5.2698,5.2698,5.2698,5.2653,5.2608,5.2608,5.2306,5.2079,5.1926,5.1649,5.1416,5.1229,5.1229,5.1229,5.1229,5.1229,5.1229,5.1229,5.1229,5.1229,5.1229,5.1229,5.1229,5.1229,5.1229,5.1229,5.1229,5.1229,5.1229,5.1229,5.1229,5.1229,5.1229,5.1229,5.0764,5.0315,5.0226,4.897,4.7309,4.5424,4.5352,4.5565,4.4977,4.5395,4.6127,4.6862,4.6896,4.7067,4.7869,4.8001,4.8001,4.8001,4.8001,4.8233,4.8829,4.9028,4.9624,5.0949,5.1082,5.1047,5.0907,5.1041,5.0707,4.9737,4.9739,4.9739,4.9705,4.9187,4.9061,4.9424,4.9335,4.9365,4.9594,4.986,5.0011,5.0011,5.0011,5.0011,5.0011,5.0011,5.0011,5.0011,5.0011,5.0011,4.9982,4.9654,4.95,4.9441,4.9107,4.9018,4.8917,5.5838,5.5622,5.5161,5.3929,5.3652,5.3375,5.279,5.2698,5.2698,5.2698,5.2698,5.2698,5.2698,5.2698,5.2698,5.2698,5.2698,5.2698,5.2698,5.2698,5.2698,5.2698,5.2698,5.2698,5.2698,5.2698,5.2698,5.2698,5.2442,5.2352,5.2352,5.1895,5.1665,5.1618,5.1369,5.1229,5.1229,5.1229,5.1229,5.1229,5.1229,5.1229,5.1229,5.1229,5.1229,5.1229,5.1229,5.1229,5.1229,5.1229,5.1229,5.1229,5.1229,5.1229,5.1229,5.1229,5.1229,5.1229,5.1229,5.1139,5.096,5.0345,4.9986,4.9418,4.8057,4.7098,4.6522,4.6428,4.6542,4.6896,4.7704,4.727,4.7067,4.7869,4.8001,4.8001,4.8001,4.8001,4.8034,4.8133,4.873,4.9425,5.0286,5.0353,5.0318,5.0318,5.1192,5.1226,5.0185,5.0223,5.0223,5.0119,4.9592,4.9557,5.0008,5.0249,5.024,4.9952,4.9982,5.0011,5.0011,5.0011,5.0011,5.0011,5.0011,5.0011,5.0011,5.0011,5.0011,4.9982,4.9654,4.95,4.9441,4.9107,4.9018,4.8984,5.6409,5.5961,5.5499,5.4914,5.4206,5.3622,5.3314,5.2944,5.2698,5.2698,5.2698,5.2698,5.2698,5.2698,5.2698,5.2698,5.2698,5.2698,5.2698,5.2698,5.2698,5.2698,5.2698,5.2698,5.2698,5.2698,5.2698,5.2698,5.2563,5.2518,5.2518,5.2063,5.1834,5.1787,5.1416,5.1229,5.1229,5.1229,5.1229,5.1229,5.1229,5.1229,5.1229,5.1229,5.1229,5.1229,5.1229,5.1229,5.1229,5.1229,5.1229,5.1229,5.1229,5.1229,5.1229,5.1229,5.1229,5.1229,5.1229,5.1229,5.1139,5.0823,5.0465,5.0046,4.9494,4.8839,4.8243,4.7902,4.7974,4.8196,4.8564,4.7968,4.7605,4.7935,4.8001,4.8001,4.8001,4.8001,4.8001,4.8001,4.8299,4.8796,4.9525,4.9591,4.999,5.1026,5.153,5.1866,5.1967,5.2034,5.2034,5.1967,5.1363,5.1223,5.1575,5.0946,5.0609,5.0631,5.0218,5.0011,5.0011,5.0011,5.0011,5.0011,5.0011,5.0011,5.0011,5.0011,5.0011,4.9982,4.9654,4.9415,4.9199,4.9046,4.9018,4.9018]}]]